<?xml version="1.0" encoding="UTF-8" standalone="no" ?>
<gpx xmlns="http://www.topografix.com/GPX/1/1" xmlns:xsi="http://www.w3.org/2001/XMLSchema-instance" xsi:schemaLocation="http://www.topografix.com/GPX/1/1 http://www.topografix.com/GPX/1/1/gpx.xsd" version="1.1" creator="VisuGPX - https://www.visugpx.com">
  <metadata>
    <name>Rando du massif de Fontainebleau</name>
    <desc><![CDATA[Belle rando hivernale dans un cadre magnifique !
57km pour 600mD ]]></desc>
  </metadata>
  <trk>
    <name><![CDATA[2013-02-17T07:53:22Z]]></name>
    <trkseg>
      <trkpt lat="48.52029" lon="2.63357">
        <ele>47.694</ele>
        <time>2013-02-17T07:53:22Z</time>
      </trkpt>
      <trkpt lat="48.52029" lon="2.63357">
        <ele>47.694</ele>
        <time>2013-02-17T07:53:23Z</time>
      </trkpt>
      <trkpt lat="48.52013" lon="2.63372">
        <ele>47.428</ele>
        <time>2013-02-17T07:54:26Z</time>
      </trkpt>
      <trkpt lat="48.52013" lon="2.63372">
        <ele>47.423</ele>
        <time>2013-02-17T07:54:30Z</time>
      </trkpt>
      <trkpt lat="48.52013" lon="2.63372">
        <ele>47.422</ele>
        <time>2013-02-17T07:54:37Z</time>
      </trkpt>
      <trkpt lat="48.52013" lon="2.63372">
        <ele>47.63</ele>
        <time>2013-02-17T07:54:41Z</time>
      </trkpt>
      <trkpt lat="48.52013" lon="2.63372">
        <ele>47.72</ele>
        <time>2013-02-17T07:54:43Z</time>
      </trkpt>
      <trkpt lat="48.52013" lon="2.63372">
        <ele>47.917</ele>
        <time>2013-02-17T07:54:49Z</time>
      </trkpt>
      <trkpt lat="48.52033" lon="2.63355">
        <ele>47.891</ele>
        <time>2013-02-17T07:54:50Z</time>
      </trkpt>
      <trkpt lat="48.52042" lon="2.63349">
        <ele>47.679</ele>
        <time>2013-02-17T07:54:54Z</time>
      </trkpt>
      <trkpt lat="48.52044" lon="2.63348">
        <ele>47.47</ele>
        <time>2013-02-17T07:54:56Z</time>
      </trkpt>
      <trkpt lat="48.52013" lon="2.63372">
        <ele>47.371</ele>
        <time>2013-02-17T07:55:02Z</time>
      </trkpt>
      <trkpt lat="48.5205" lon="2.63344">
        <ele>47.499</ele>
        <time>2013-02-17T07:55:05Z</time>
      </trkpt>
      <trkpt lat="48.52041" lon="2.6335">
        <ele>48.098</ele>
        <time>2013-02-17T07:55:11Z</time>
      </trkpt>
      <trkpt lat="48.5203" lon="2.63357">
        <ele>48.545</ele>
        <time>2013-02-17T07:55:18Z</time>
      </trkpt>
      <trkpt lat="48.52022" lon="2.63361">
        <ele>48.528</ele>
        <time>2013-02-17T07:55:24Z</time>
      </trkpt>
      <trkpt lat="48.52015" lon="2.63365">
        <ele>48.637</ele>
        <time>2013-02-17T07:55:29Z</time>
      </trkpt>
      <trkpt lat="48.52015" lon="2.63365">
        <ele>48.688</ele>
        <time>2013-02-17T07:55:32Z</time>
      </trkpt>
      <trkpt lat="48.52015" lon="2.63367">
        <ele>48.739</ele>
        <time>2013-02-17T07:55:33Z</time>
      </trkpt>
      <trkpt lat="48.51986" lon="2.63379">
        <ele>48.992</ele>
        <time>2013-02-17T07:55:42Z</time>
      </trkpt>
      <trkpt lat="48.51967" lon="2.63388">
        <ele>49.523</ele>
        <time>2013-02-17T07:55:51Z</time>
      </trkpt>
      <trkpt lat="48.51953" lon="2.63393">
        <ele>49.846</ele>
        <time>2013-02-17T07:55:57Z</time>
      </trkpt>
      <trkpt lat="48.51935" lon="2.63399">
        <ele>50.135</ele>
        <time>2013-02-17T07:56:04Z</time>
      </trkpt>
      <trkpt lat="48.51914" lon="2.63407">
        <ele>50.412</ele>
        <time>2013-02-17T07:56:12Z</time>
      </trkpt>
      <trkpt lat="48.51891" lon="2.63416">
        <ele>50.447</ele>
        <time>2013-02-17T07:56:21Z</time>
      </trkpt>
      <trkpt lat="48.51868" lon="2.63424">
        <ele>50.467</ele>
        <time>2013-02-17T07:56:29Z</time>
      </trkpt>
      <trkpt lat="48.51839" lon="2.63433">
        <ele>51.086</ele>
        <time>2013-02-17T07:56:40Z</time>
      </trkpt>
      <trkpt lat="48.51829" lon="2.63438">
        <ele>51.196</ele>
        <time>2013-02-17T07:56:45Z</time>
      </trkpt>
      <trkpt lat="48.5182" lon="2.63442">
        <ele>50.956</ele>
        <time>2013-02-17T07:56:51Z</time>
      </trkpt>
      <trkpt lat="48.51808" lon="2.63445">
        <ele>51.213</ele>
        <time>2013-02-17T07:56:56Z</time>
      </trkpt>
      <trkpt lat="48.51782" lon="2.63434">
        <ele>51.611</ele>
        <time>2013-02-17T07:57:04Z</time>
      </trkpt>
      <trkpt lat="48.51782" lon="2.63434">
        <ele>51.684</ele>
        <time>2013-02-17T07:57:06Z</time>
      </trkpt>
      <trkpt lat="48.51781" lon="2.63433">
        <ele>51.887</ele>
        <time>2013-02-17T07:57:20Z</time>
      </trkpt>
      <trkpt lat="48.5178" lon="2.63451">
        <ele>51.965</ele>
        <time>2013-02-17T07:57:27Z</time>
      </trkpt>
      <trkpt lat="48.51779" lon="2.63456">
        <ele>51.969</ele>
        <time>2013-02-17T07:57:30Z</time>
      </trkpt>
      <trkpt lat="48.51778" lon="2.63473">
        <ele>52.129</ele>
        <time>2013-02-17T07:57:36Z</time>
      </trkpt>
      <trkpt lat="48.51777" lon="2.63499">
        <ele>52.151</ele>
        <time>2013-02-17T07:57:43Z</time>
      </trkpt>
      <trkpt lat="48.51776" lon="2.6351">
        <ele>52.352</ele>
        <time>2013-02-17T07:57:48Z</time>
      </trkpt>
      <trkpt lat="48.51774" lon="2.63538">
        <ele>52.45</ele>
        <time>2013-02-17T07:57:56Z</time>
      </trkpt>
      <trkpt lat="48.51773" lon="2.63562">
        <ele>52.694</ele>
        <time>2013-02-17T07:58:03Z</time>
      </trkpt>
      <trkpt lat="48.51773" lon="2.63589">
        <ele>53.013</ele>
        <time>2013-02-17T07:58:10Z</time>
      </trkpt>
      <trkpt lat="48.51773" lon="2.63628">
        <ele>53.282</ele>
        <time>2013-02-17T07:58:19Z</time>
      </trkpt>
      <trkpt lat="48.51772" lon="2.63662">
        <ele>53.461</ele>
        <time>2013-02-17T07:58:27Z</time>
      </trkpt>
      <trkpt lat="48.51771" lon="2.6369">
        <ele>53.591</ele>
        <time>2013-02-17T07:58:34Z</time>
      </trkpt>
      <trkpt lat="48.5177" lon="2.63729">
        <ele>53.963</ele>
        <time>2013-02-17T07:58:42Z</time>
      </trkpt>
      <trkpt lat="48.51769" lon="2.63767">
        <ele>54.514</ele>
        <time>2013-02-17T07:58:49Z</time>
      </trkpt>
      <trkpt lat="48.51767" lon="2.63801">
        <ele>54.282</ele>
        <time>2013-02-17T07:58:55Z</time>
      </trkpt>
      <trkpt lat="48.51765" lon="2.63824">
        <ele>53.994</ele>
        <time>2013-02-17T07:58:59Z</time>
      </trkpt>
      <trkpt lat="48.51758" lon="2.63835">
        <ele>53.727</ele>
        <time>2013-02-17T07:59:03Z</time>
      </trkpt>
      <trkpt lat="48.5175" lon="2.63829">
        <ele>53.691</ele>
        <time>2013-02-17T07:59:06Z</time>
      </trkpt>
      <trkpt lat="48.5172" lon="2.63813">
        <ele>54.68</ele>
        <time>2013-02-17T07:59:16Z</time>
      </trkpt>
      <trkpt lat="48.51691" lon="2.63795">
        <ele>55.626</ele>
        <time>2013-02-17T07:59:25Z</time>
      </trkpt>
      <trkpt lat="48.51664" lon="2.63777">
        <ele>56.508</ele>
        <time>2013-02-17T07:59:33Z</time>
      </trkpt>
      <trkpt lat="48.51633" lon="2.6376">
        <ele>57.764</ele>
        <time>2013-02-17T07:59:42Z</time>
      </trkpt>
      <trkpt lat="48.51619" lon="2.63753">
        <ele>58.155</ele>
        <time>2013-02-17T07:59:46Z</time>
      </trkpt>
      <trkpt lat="48.51605" lon="2.63746">
        <ele>58.792</ele>
        <time>2013-02-17T07:59:50Z</time>
      </trkpt>
      <trkpt lat="48.51602" lon="2.63744">
        <ele>58.903</ele>
        <time>2013-02-17T07:59:51Z</time>
      </trkpt>
      <trkpt lat="48.51598" lon="2.63742">
        <ele>59.093</ele>
        <time>2013-02-17T07:59:52Z</time>
      </trkpt>
      <trkpt lat="48.51561" lon="2.63705">
        <ele>60.44</ele>
        <time>2013-02-17T08:00:04Z</time>
      </trkpt>
      <trkpt lat="48.51542" lon="2.63684">
        <ele>60.635</ele>
        <time>2013-02-17T08:00:11Z</time>
      </trkpt>
      <trkpt lat="48.51531" lon="2.63697">
        <ele>60.886</ele>
        <time>2013-02-17T08:00:15Z</time>
      </trkpt>
      <trkpt lat="48.51531" lon="2.637">
        <ele>61.002</ele>
        <time>2013-02-17T08:00:16Z</time>
      </trkpt>
      <trkpt lat="48.5153" lon="2.63737">
        <ele>61.311</ele>
        <time>2013-02-17T08:00:24Z</time>
      </trkpt>
      <trkpt lat="48.5153" lon="2.63792">
        <ele>61.846</ele>
        <time>2013-02-17T08:00:34Z</time>
      </trkpt>
      <trkpt lat="48.51528" lon="2.63832">
        <ele>61.936</ele>
        <time>2013-02-17T08:00:41Z</time>
      </trkpt>
      <trkpt lat="48.51525" lon="2.63875">
        <ele>61.945</ele>
        <time>2013-02-17T08:00:49Z</time>
      </trkpt>
      <trkpt lat="48.51523" lon="2.63902">
        <ele>61.881</ele>
        <time>2013-02-17T08:00:55Z</time>
      </trkpt>
      <trkpt lat="48.51519" lon="2.63957">
        <ele>62.456</ele>
        <time>2013-02-17T08:01:05Z</time>
      </trkpt>
      <trkpt lat="48.51515" lon="2.64003">
        <ele>61.921</ele>
        <time>2013-02-17T08:01:13Z</time>
      </trkpt>
      <trkpt lat="48.51511" lon="2.64036">
        <ele>61.909</ele>
        <time>2013-02-17T08:01:19Z</time>
      </trkpt>
      <trkpt lat="48.51507" lon="2.64054">
        <ele>61.813</ele>
        <time>2013-02-17T08:01:23Z</time>
      </trkpt>
      <trkpt lat="48.51507" lon="2.64054">
        <ele>61.89</ele>
        <time>2013-02-17T08:01:29Z</time>
      </trkpt>
      <trkpt lat="48.51488" lon="2.64071">
        <ele>62.024</ele>
        <time>2013-02-17T08:01:33Z</time>
      </trkpt>
      <trkpt lat="48.51498" lon="2.64097">
        <ele>62.025</ele>
        <time>2013-02-17T08:01:37Z</time>
      </trkpt>
      <trkpt lat="48.51508" lon="2.64127">
        <ele>61.685</ele>
        <time>2013-02-17T08:01:42Z</time>
      </trkpt>
      <trkpt lat="48.51507" lon="2.6414">
        <ele>61.531</ele>
        <time>2013-02-17T08:01:44Z</time>
      </trkpt>
      <trkpt lat="48.51504" lon="2.64189">
        <ele>61.021</ele>
        <time>2013-02-17T08:01:52Z</time>
      </trkpt>
      <trkpt lat="48.51501" lon="2.64224">
        <ele>60.868</ele>
        <time>2013-02-17T08:01:58Z</time>
      </trkpt>
      <trkpt lat="48.51499" lon="2.64256">
        <ele>60.835</ele>
        <time>2013-02-17T08:02:03Z</time>
      </trkpt>
      <trkpt lat="48.51496" lon="2.64306">
        <ele>60.87</ele>
        <time>2013-02-17T08:02:11Z</time>
      </trkpt>
      <trkpt lat="48.51495" lon="2.64319">
        <ele>60.889</ele>
        <time>2013-02-17T08:02:13Z</time>
      </trkpt>
      <trkpt lat="48.51494" lon="2.6438">
        <ele>61.533</ele>
        <time>2013-02-17T08:02:23Z</time>
      </trkpt>
      <trkpt lat="48.51494" lon="2.64427">
        <ele>62.039</ele>
        <time>2013-02-17T08:02:31Z</time>
      </trkpt>
      <trkpt lat="48.51494" lon="2.64473">
        <ele>61.811</ele>
        <time>2013-02-17T08:02:39Z</time>
      </trkpt>
      <trkpt lat="48.51494" lon="2.64509">
        <ele>61.365</ele>
        <time>2013-02-17T08:02:45Z</time>
      </trkpt>
      <trkpt lat="48.51494" lon="2.64538">
        <ele>61.258</ele>
        <time>2013-02-17T08:02:50Z</time>
      </trkpt>
      <trkpt lat="48.51494" lon="2.64575">
        <ele>61.165</ele>
        <time>2013-02-17T08:02:58Z</time>
      </trkpt>
      <trkpt lat="48.51494" lon="2.64594">
        <ele>61.201</ele>
        <time>2013-02-17T08:03:03Z</time>
      </trkpt>
      <trkpt lat="48.51494" lon="2.6463">
        <ele>61.999</ele>
        <time>2013-02-17T08:03:12Z</time>
      </trkpt>
      <trkpt lat="48.51494" lon="2.6464">
        <ele>62.264</ele>
        <time>2013-02-17T08:03:14Z</time>
      </trkpt>
      <trkpt lat="48.51494" lon="2.64646">
        <ele>62.271</ele>
        <time>2013-02-17T08:03:15Z</time>
      </trkpt>
      <trkpt lat="48.51494" lon="2.64652">
        <ele>62.394</ele>
        <time>2013-02-17T08:03:16Z</time>
      </trkpt>
      <trkpt lat="48.51494" lon="2.64658">
        <ele>62.482</ele>
        <time>2013-02-17T08:03:17Z</time>
      </trkpt>
      <trkpt lat="48.51494" lon="2.64701">
        <ele>63.096</ele>
        <time>2013-02-17T08:03:24Z</time>
      </trkpt>
      <trkpt lat="48.51494" lon="2.64749">
        <ele>63.42</ele>
        <time>2013-02-17T08:03:32Z</time>
      </trkpt>
      <trkpt lat="48.51494" lon="2.64804">
        <ele>63.258</ele>
        <time>2013-02-17T08:03:41Z</time>
      </trkpt>
      <trkpt lat="48.51494" lon="2.64847">
        <ele>63.085</ele>
        <time>2013-02-17T08:03:48Z</time>
      </trkpt>
      <trkpt lat="48.51494" lon="2.64905">
        <ele>62.683</ele>
        <time>2013-02-17T08:03:57Z</time>
      </trkpt>
      <trkpt lat="48.51495" lon="2.64956">
        <ele>62.642</ele>
        <time>2013-02-17T08:04:05Z</time>
      </trkpt>
      <trkpt lat="48.51495" lon="2.64999">
        <ele>62.58</ele>
        <time>2013-02-17T08:04:12Z</time>
      </trkpt>
      <trkpt lat="48.51496" lon="2.65024">
        <ele>62.42</ele>
        <time>2013-02-17T08:04:16Z</time>
      </trkpt>
      <trkpt lat="48.51496" lon="2.65036">
        <ele>62.211</ele>
        <time>2013-02-17T08:04:18Z</time>
      </trkpt>
      <trkpt lat="48.51489" lon="2.65053">
        <ele>61.922</ele>
        <time>2013-02-17T08:04:22Z</time>
      </trkpt>
      <trkpt lat="48.51483" lon="2.65052">
        <ele>61.929</ele>
        <time>2013-02-17T08:04:25Z</time>
      </trkpt>
      <trkpt lat="48.51463" lon="2.65049">
        <ele>62.653</ele>
        <time>2013-02-17T08:04:33Z</time>
      </trkpt>
      <trkpt lat="48.51446" lon="2.65046">
        <ele>63.144</ele>
        <time>2013-02-17T08:04:39Z</time>
      </trkpt>
      <trkpt lat="48.51422" lon="2.65042">
        <ele>64.04</ele>
        <time>2013-02-17T08:04:47Z</time>
      </trkpt>
      <trkpt lat="48.51401" lon="2.65038">
        <ele>64.587</ele>
        <time>2013-02-17T08:04:53Z</time>
      </trkpt>
      <trkpt lat="48.51382" lon="2.65035">
        <ele>65.176</ele>
        <time>2013-02-17T08:04:59Z</time>
      </trkpt>
      <trkpt lat="48.51365" lon="2.65032">
        <ele>65.719</ele>
        <time>2013-02-17T08:05:04Z</time>
      </trkpt>
      <trkpt lat="48.51341" lon="2.65029">
        <ele>66.677</ele>
        <time>2013-02-17T08:05:11Z</time>
      </trkpt>
      <trkpt lat="48.51316" lon="2.65024">
        <ele>67.425</ele>
        <time>2013-02-17T08:05:19Z</time>
      </trkpt>
      <trkpt lat="48.51294" lon="2.65021">
        <ele>68.281</ele>
        <time>2013-02-17T08:05:26Z</time>
      </trkpt>
      <trkpt lat="48.51267" lon="2.65016">
        <ele>69.177</ele>
        <time>2013-02-17T08:05:34Z</time>
      </trkpt>
      <trkpt lat="48.51241" lon="2.65012">
        <ele>69.77</ele>
        <time>2013-02-17T08:05:41Z</time>
      </trkpt>
      <trkpt lat="48.51216" lon="2.65008">
        <ele>70.723</ele>
        <time>2013-02-17T08:05:48Z</time>
      </trkpt>
      <trkpt lat="48.5121" lon="2.65007">
        <ele>70.924</ele>
        <time>2013-02-17T08:05:50Z</time>
      </trkpt>
      <trkpt lat="48.512" lon="2.65006">
        <ele>71.259</ele>
        <time>2013-02-17T08:05:53Z</time>
      </trkpt>
      <trkpt lat="48.51173" lon="2.65003">
        <ele>71.929</ele>
        <time>2013-02-17T08:06:00Z</time>
      </trkpt>
      <trkpt lat="48.5116" lon="2.65001">
        <ele>72.215</ele>
        <time>2013-02-17T08:06:04Z</time>
      </trkpt>
      <trkpt lat="48.51139" lon="2.64998">
        <ele>72.826</ele>
        <time>2013-02-17T08:06:10Z</time>
      </trkpt>
      <trkpt lat="48.51136" lon="2.64998">
        <ele>72.887</ele>
        <time>2013-02-17T08:06:11Z</time>
      </trkpt>
      <trkpt lat="48.51127" lon="2.64997">
        <ele>73.143</ele>
        <time>2013-02-17T08:06:14Z</time>
      </trkpt>
      <trkpt lat="48.51124" lon="2.64996">
        <ele>73.182</ele>
        <time>2013-02-17T08:06:15Z</time>
      </trkpt>
      <trkpt lat="48.51095" lon="2.64992">
        <ele>73.545</ele>
        <time>2013-02-17T08:06:23Z</time>
      </trkpt>
      <trkpt lat="48.51066" lon="2.64989">
        <ele>74.081</ele>
        <time>2013-02-17T08:06:31Z</time>
      </trkpt>
      <trkpt lat="48.51051" lon="2.64987">
        <ele>74.436</ele>
        <time>2013-02-17T08:06:35Z</time>
      </trkpt>
      <trkpt lat="48.51035" lon="2.64985">
        <ele>74.769</ele>
        <time>2013-02-17T08:06:39Z</time>
      </trkpt>
      <trkpt lat="48.51015" lon="2.64982">
        <ele>75.449</ele>
        <time>2013-02-17T08:06:44Z</time>
      </trkpt>
      <trkpt lat="48.51012" lon="2.64981">
        <ele>75.479</ele>
        <time>2013-02-17T08:06:45Z</time>
      </trkpt>
      <trkpt lat="48.50997" lon="2.64979">
        <ele>75.701</ele>
        <time>2013-02-17T08:06:49Z</time>
      </trkpt>
      <trkpt lat="48.50976" lon="2.64975">
        <ele>75.816</ele>
        <time>2013-02-17T08:06:55Z</time>
      </trkpt>
      <trkpt lat="48.5095" lon="2.64971">
        <ele>76.634</ele>
        <time>2013-02-17T08:07:02Z</time>
      </trkpt>
      <trkpt lat="48.5092" lon="2.64968">
        <ele>77.09</ele>
        <time>2013-02-17T08:07:10Z</time>
      </trkpt>
      <trkpt lat="48.50895" lon="2.64965">
        <ele>77.419</ele>
        <time>2013-02-17T08:07:17Z</time>
      </trkpt>
      <trkpt lat="48.50877" lon="2.64962">
        <ele>77.45</ele>
        <time>2013-02-17T08:07:22Z</time>
      </trkpt>
      <trkpt lat="48.50839" lon="2.64958">
        <ele>78.117</ele>
        <time>2013-02-17T08:07:31Z</time>
      </trkpt>
      <trkpt lat="48.50825" lon="2.64957">
        <ele>78.422</ele>
        <time>2013-02-17T08:07:35Z</time>
      </trkpt>
      <trkpt lat="48.50792" lon="2.64955">
        <ele>78.875</ele>
        <time>2013-02-17T08:07:43Z</time>
      </trkpt>
      <trkpt lat="48.50762" lon="2.6495">
        <ele>79.305</ele>
        <time>2013-02-17T08:07:50Z</time>
      </trkpt>
      <trkpt lat="48.50731" lon="2.64945">
        <ele>80.025</ele>
        <time>2013-02-17T08:07:58Z</time>
      </trkpt>
      <trkpt lat="48.50712" lon="2.64943">
        <ele>80.259</ele>
        <time>2013-02-17T08:08:03Z</time>
      </trkpt>
      <trkpt lat="48.50687" lon="2.64939">
        <ele>80.581</ele>
        <time>2013-02-17T08:08:09Z</time>
      </trkpt>
      <trkpt lat="48.50664" lon="2.64935">
        <ele>80.824</ele>
        <time>2013-02-17T08:08:15Z</time>
      </trkpt>
      <trkpt lat="48.50659" lon="2.64935">
        <ele>81.001</ele>
        <time>2013-02-17T08:08:17Z</time>
      </trkpt>
      <trkpt lat="48.50655" lon="2.64934">
        <ele>81.073</ele>
        <time>2013-02-17T08:08:18Z</time>
      </trkpt>
      <trkpt lat="48.50655" lon="2.64934">
        <ele>81.146</ele>
        <time>2013-02-17T08:08:19Z</time>
      </trkpt>
      <trkpt lat="48.50663" lon="2.64982">
        <ele>80.96</ele>
        <time>2013-02-17T08:08:25Z</time>
      </trkpt>
      <trkpt lat="48.5067" lon="2.65022">
        <ele>80.953</ele>
        <time>2013-02-17T08:08:32Z</time>
      </trkpt>
      <trkpt lat="48.50675" lon="2.65058">
        <ele>81.396</ele>
        <time>2013-02-17T08:08:38Z</time>
      </trkpt>
      <trkpt lat="48.5068" lon="2.6509">
        <ele>82.602</ele>
        <time>2013-02-17T08:08:44Z</time>
      </trkpt>
      <trkpt lat="48.50684" lon="2.65119">
        <ele>83.608</ele>
        <time>2013-02-17T08:08:50Z</time>
      </trkpt>
      <trkpt lat="48.50688" lon="2.65146">
        <ele>84.185</ele>
        <time>2013-02-17T08:08:56Z</time>
      </trkpt>
      <trkpt lat="48.50693" lon="2.65175">
        <ele>84.524</ele>
        <time>2013-02-17T08:09:02Z</time>
      </trkpt>
      <trkpt lat="48.50697" lon="2.65207">
        <ele>85.264</ele>
        <time>2013-02-17T08:09:08Z</time>
      </trkpt>
      <trkpt lat="48.50702" lon="2.65241">
        <ele>85.486</ele>
        <time>2013-02-17T08:09:14Z</time>
      </trkpt>
      <trkpt lat="48.5071" lon="2.65291">
        <ele>85.552</ele>
        <time>2013-02-17T08:09:22Z</time>
      </trkpt>
      <trkpt lat="48.50715" lon="2.65327">
        <ele>85.473</ele>
        <time>2013-02-17T08:09:28Z</time>
      </trkpt>
      <trkpt lat="48.50718" lon="2.65348">
        <ele>85.367</ele>
        <time>2013-02-17T08:09:31Z</time>
      </trkpt>
      <trkpt lat="48.50719" lon="2.65356">
        <ele>85.086</ele>
        <time>2013-02-17T08:09:34Z</time>
      </trkpt>
      <trkpt lat="48.50719" lon="2.65356">
        <ele>84.946</ele>
        <time>2013-02-17T08:09:35Z</time>
      </trkpt>
      <trkpt lat="48.50719" lon="2.65356">
        <ele>84.753</ele>
        <time>2013-02-17T08:09:39Z</time>
      </trkpt>
      <trkpt lat="48.50669" lon="2.65367">
        <ele>84.871</ele>
        <time>2013-02-17T08:09:46Z</time>
      </trkpt>
      <trkpt lat="48.50651" lon="2.65371">
        <ele>85.055</ele>
        <time>2013-02-17T08:09:51Z</time>
      </trkpt>
      <trkpt lat="48.50618" lon="2.65379">
        <ele>85.45</ele>
        <time>2013-02-17T08:09:59Z</time>
      </trkpt>
      <trkpt lat="48.50613" lon="2.6538">
        <ele>85.51</ele>
        <time>2013-02-17T08:10:00Z</time>
      </trkpt>
      <trkpt lat="48.50593" lon="2.65384">
        <ele>85.701</ele>
        <time>2013-02-17T08:10:05Z</time>
      </trkpt>
      <trkpt lat="48.50555" lon="2.65392">
        <ele>86.185</ele>
        <time>2013-02-17T08:10:14Z</time>
      </trkpt>
      <trkpt lat="48.50522" lon="2.654">
        <ele>86.828</ele>
        <time>2013-02-17T08:10:22Z</time>
      </trkpt>
      <trkpt lat="48.50488" lon="2.65407">
        <ele>86.473</ele>
        <time>2013-02-17T08:10:30Z</time>
      </trkpt>
      <trkpt lat="48.50457" lon="2.65414">
        <ele>86.651</ele>
        <time>2013-02-17T08:10:38Z</time>
      </trkpt>
      <trkpt lat="48.50427" lon="2.6542">
        <ele>87.177</ele>
        <time>2013-02-17T08:10:46Z</time>
      </trkpt>
      <trkpt lat="48.50406" lon="2.65425">
        <ele>87.65</ele>
        <time>2013-02-17T08:10:52Z</time>
      </trkpt>
      <trkpt lat="48.50395" lon="2.65427">
        <ele>87.932</ele>
        <time>2013-02-17T08:10:55Z</time>
      </trkpt>
      <trkpt lat="48.50381" lon="2.65431">
        <ele>88.229</ele>
        <time>2013-02-17T08:10:59Z</time>
      </trkpt>
      <trkpt lat="48.50358" lon="2.65435">
        <ele>88.454</ele>
        <time>2013-02-17T08:11:05Z</time>
      </trkpt>
      <trkpt lat="48.50357" lon="2.65436">
        <ele>88.427</ele>
        <time>2013-02-17T08:11:07Z</time>
      </trkpt>
      <trkpt lat="48.50357" lon="2.65436">
        <ele>88.445</ele>
        <time>2013-02-17T08:11:12Z</time>
      </trkpt>
      <trkpt lat="48.50304" lon="2.65446">
        <ele>88.852</ele>
        <time>2013-02-17T08:11:19Z</time>
      </trkpt>
      <trkpt lat="48.50274" lon="2.65452">
        <ele>88.893</ele>
        <time>2013-02-17T08:11:27Z</time>
      </trkpt>
      <trkpt lat="48.5025" lon="2.65457">
        <ele>88.954</ele>
        <time>2013-02-17T08:11:34Z</time>
      </trkpt>
      <trkpt lat="48.50225" lon="2.65462">
        <ele>89.31</ele>
        <time>2013-02-17T08:11:41Z</time>
      </trkpt>
      <trkpt lat="48.50199" lon="2.65467">
        <ele>89.503</ele>
        <time>2013-02-17T08:11:48Z</time>
      </trkpt>
      <trkpt lat="48.50178" lon="2.65471">
        <ele>89.486</ele>
        <time>2013-02-17T08:11:54Z</time>
      </trkpt>
      <trkpt lat="48.50142" lon="2.65479">
        <ele>89.806</ele>
        <time>2013-02-17T08:12:04Z</time>
      </trkpt>
      <trkpt lat="48.50102" lon="2.65502">
        <ele>89.892</ele>
        <time>2013-02-17T08:12:14Z</time>
      </trkpt>
      <trkpt lat="48.50084" lon="2.65509">
        <ele>89.743</ele>
        <time>2013-02-17T08:12:20Z</time>
      </trkpt>
      <trkpt lat="48.5007" lon="2.65502">
        <ele>89.7</ele>
        <time>2013-02-17T08:12:25Z</time>
      </trkpt>
      <trkpt lat="48.50045" lon="2.65499">
        <ele>90.024</ele>
        <time>2013-02-17T08:12:32Z</time>
      </trkpt>
      <trkpt lat="48.5001" lon="2.65497">
        <ele>90.007</ele>
        <time>2013-02-17T08:12:41Z</time>
      </trkpt>
      <trkpt lat="48.49977" lon="2.65484">
        <ele>90.165</ele>
        <time>2013-02-17T08:12:50Z</time>
      </trkpt>
      <trkpt lat="48.4995" lon="2.65482">
        <ele>90.302</ele>
        <time>2013-02-17T08:12:57Z</time>
      </trkpt>
      <trkpt lat="48.49917" lon="2.6548">
        <ele>90.445</ele>
        <time>2013-02-17T08:13:05Z</time>
      </trkpt>
      <trkpt lat="48.4988" lon="2.65478">
        <ele>90.536</ele>
        <time>2013-02-17T08:13:14Z</time>
      </trkpt>
      <trkpt lat="48.49844" lon="2.65476">
        <ele>90.459</ele>
        <time>2013-02-17T08:13:23Z</time>
      </trkpt>
      <trkpt lat="48.49799" lon="2.65474">
        <ele>90.615</ele>
        <time>2013-02-17T08:13:33Z</time>
      </trkpt>
      <trkpt lat="48.49758" lon="2.65472">
        <ele>90.484</ele>
        <time>2013-02-17T08:13:42Z</time>
      </trkpt>
      <trkpt lat="48.49716" lon="2.6547">
        <ele>90.336</ele>
        <time>2013-02-17T08:13:51Z</time>
      </trkpt>
      <trkpt lat="48.49685" lon="2.65468">
        <ele>90.19</ele>
        <time>2013-02-17T08:13:58Z</time>
      </trkpt>
      <trkpt lat="48.49658" lon="2.65466">
        <ele>90.174</ele>
        <time>2013-02-17T08:14:05Z</time>
      </trkpt>
      <trkpt lat="48.49653" lon="2.65466">
        <ele>90.179</ele>
        <time>2013-02-17T08:14:06Z</time>
      </trkpt>
      <trkpt lat="48.49609" lon="2.65463">
        <ele>90.129</ele>
        <time>2013-02-17T08:14:16Z</time>
      </trkpt>
      <trkpt lat="48.496" lon="2.65463">
        <ele>90.216</ele>
        <time>2013-02-17T08:14:18Z</time>
      </trkpt>
      <trkpt lat="48.49561" lon="2.65461">
        <ele>90.221</ele>
        <time>2013-02-17T08:14:26Z</time>
      </trkpt>
      <trkpt lat="48.49552" lon="2.6546">
        <ele>90.053</ele>
        <time>2013-02-17T08:14:28Z</time>
      </trkpt>
      <trkpt lat="48.49522" lon="2.65458">
        <ele>89.916</ele>
        <time>2013-02-17T08:14:35Z</time>
      </trkpt>
      <trkpt lat="48.49505" lon="2.65457">
        <ele>89.889</ele>
        <time>2013-02-17T08:14:39Z</time>
      </trkpt>
      <trkpt lat="48.49469" lon="2.65455">
        <ele>89.771</ele>
        <time>2013-02-17T08:14:47Z</time>
      </trkpt>
      <trkpt lat="48.49434" lon="2.65453">
        <ele>89.606</ele>
        <time>2013-02-17T08:14:55Z</time>
      </trkpt>
      <trkpt lat="48.49411" lon="2.65452">
        <ele>89.482</ele>
        <time>2013-02-17T08:15:00Z</time>
      </trkpt>
      <trkpt lat="48.49397" lon="2.65451">
        <ele>89.499</ele>
        <time>2013-02-17T08:15:04Z</time>
      </trkpt>
      <trkpt lat="48.49397" lon="2.65443">
        <ele>89.422</ele>
        <time>2013-02-17T08:15:05Z</time>
      </trkpt>
      <trkpt lat="48.49396" lon="2.65401">
        <ele>88.908</ele>
        <time>2013-02-17T08:15:13Z</time>
      </trkpt>
      <trkpt lat="48.49395" lon="2.65341">
        <ele>88.67</ele>
        <time>2013-02-17T08:15:23Z</time>
      </trkpt>
      <trkpt lat="48.49393" lon="2.65296">
        <ele>88.804</ele>
        <time>2013-02-17T08:15:31Z</time>
      </trkpt>
      <trkpt lat="48.49392" lon="2.65254">
        <ele>88.735</ele>
        <time>2013-02-17T08:15:38Z</time>
      </trkpt>
      <trkpt lat="48.49391" lon="2.65211">
        <ele>88.295</ele>
        <time>2013-02-17T08:15:45Z</time>
      </trkpt>
      <trkpt lat="48.49391" lon="2.65184">
        <ele>88.111</ele>
        <time>2013-02-17T08:15:50Z</time>
      </trkpt>
      <trkpt lat="48.49389" lon="2.65141">
        <ele>88.031</ele>
        <time>2013-02-17T08:15:57Z</time>
      </trkpt>
      <trkpt lat="48.49388" lon="2.65101">
        <ele>87.837</ele>
        <time>2013-02-17T08:16:04Z</time>
      </trkpt>
      <trkpt lat="48.49388" lon="2.65068">
        <ele>87.726</ele>
        <time>2013-02-17T08:16:10Z</time>
      </trkpt>
      <trkpt lat="48.49386" lon="2.6502">
        <ele>87.688</ele>
        <time>2013-02-17T08:16:18Z</time>
      </trkpt>
      <trkpt lat="48.49386" lon="2.65008">
        <ele>87.708</ele>
        <time>2013-02-17T08:16:20Z</time>
      </trkpt>
      <trkpt lat="48.49385" lon="2.64964">
        <ele>87.548</ele>
        <time>2013-02-17T08:16:27Z</time>
      </trkpt>
      <trkpt lat="48.49384" lon="2.64913">
        <ele>87.316</ele>
        <time>2013-02-17T08:16:36Z</time>
      </trkpt>
      <trkpt lat="48.49383" lon="2.64873">
        <ele>87.089</ele>
        <time>2013-02-17T08:16:43Z</time>
      </trkpt>
      <trkpt lat="48.49382" lon="2.6484">
        <ele>86.906</ele>
        <time>2013-02-17T08:16:49Z</time>
      </trkpt>
      <trkpt lat="48.49381" lon="2.64813">
        <ele>86.878</ele>
        <time>2013-02-17T08:16:53Z</time>
      </trkpt>
      <trkpt lat="48.4938" lon="2.64764">
        <ele>86.84</ele>
        <time>2013-02-17T08:17:01Z</time>
      </trkpt>
      <trkpt lat="48.49379" lon="2.6472">
        <ele>86.722</ele>
        <time>2013-02-17T08:17:08Z</time>
      </trkpt>
      <trkpt lat="48.49378" lon="2.64695">
        <ele>86.68</ele>
        <time>2013-02-17T08:17:12Z</time>
      </trkpt>
      <trkpt lat="48.49377" lon="2.64639">
        <ele>86.788</ele>
        <time>2013-02-17T08:17:21Z</time>
      </trkpt>
      <trkpt lat="48.49376" lon="2.64633">
        <ele>86.667</ele>
        <time>2013-02-17T08:17:22Z</time>
      </trkpt>
      <trkpt lat="48.49366" lon="2.64619">
        <ele>86.494</ele>
        <time>2013-02-17T08:17:26Z</time>
      </trkpt>
      <trkpt lat="48.49346" lon="2.64621">
        <ele>86.591</ele>
        <time>2013-02-17T08:17:33Z</time>
      </trkpt>
      <trkpt lat="48.49315" lon="2.64623">
        <ele>86.625</ele>
        <time>2013-02-17T08:17:41Z</time>
      </trkpt>
      <trkpt lat="48.49278" lon="2.64626">
        <ele>86.895</ele>
        <time>2013-02-17T08:17:50Z</time>
      </trkpt>
      <trkpt lat="48.49262" lon="2.64625">
        <ele>86.996</ele>
        <time>2013-02-17T08:17:55Z</time>
      </trkpt>
      <trkpt lat="48.49256" lon="2.64623">
        <ele>87.197</ele>
        <time>2013-02-17T08:18:00Z</time>
      </trkpt>
      <trkpt lat="48.49248" lon="2.64642">
        <ele>87.31</ele>
        <time>2013-02-17T08:18:04Z</time>
      </trkpt>
      <trkpt lat="48.49226" lon="2.64633">
        <ele>87.11</ele>
        <time>2013-02-17T08:18:10Z</time>
      </trkpt>
      <trkpt lat="48.49204" lon="2.64635">
        <ele>87.283</ele>
        <time>2013-02-17T08:18:16Z</time>
      </trkpt>
      <trkpt lat="48.49178" lon="2.64637">
        <ele>87.497</ele>
        <time>2013-02-17T08:18:23Z</time>
      </trkpt>
      <trkpt lat="48.4916" lon="2.64638">
        <ele>87.449</ele>
        <time>2013-02-17T08:18:28Z</time>
      </trkpt>
      <trkpt lat="48.49137" lon="2.64639">
        <ele>87.449</ele>
        <time>2013-02-17T08:18:34Z</time>
      </trkpt>
      <trkpt lat="48.49122" lon="2.6464">
        <ele>87.566</ele>
        <time>2013-02-17T08:18:38Z</time>
      </trkpt>
      <trkpt lat="48.49095" lon="2.64641">
        <ele>87.606</ele>
        <time>2013-02-17T08:18:45Z</time>
      </trkpt>
      <trkpt lat="48.49076" lon="2.64643">
        <ele>87.694</ele>
        <time>2013-02-17T08:18:50Z</time>
      </trkpt>
      <trkpt lat="48.49052" lon="2.64644">
        <ele>88.154</ele>
        <time>2013-02-17T08:18:56Z</time>
      </trkpt>
      <trkpt lat="48.4902" lon="2.64647">
        <ele>88.478</ele>
        <time>2013-02-17T08:19:04Z</time>
      </trkpt>
      <trkpt lat="48.48987" lon="2.64649">
        <ele>88.443</ele>
        <time>2013-02-17T08:19:12Z</time>
      </trkpt>
      <trkpt lat="48.48978" lon="2.6465">
        <ele>88.445</ele>
        <time>2013-02-17T08:19:14Z</time>
      </trkpt>
      <trkpt lat="48.48944" lon="2.64652">
        <ele>88.551</ele>
        <time>2013-02-17T08:19:22Z</time>
      </trkpt>
      <trkpt lat="48.48916" lon="2.64652">
        <ele>88.691</ele>
        <time>2013-02-17T08:19:29Z</time>
      </trkpt>
      <trkpt lat="48.48896" lon="2.64651">
        <ele>88.96</ele>
        <time>2013-02-17T08:19:34Z</time>
      </trkpt>
      <trkpt lat="48.48885" lon="2.6465">
        <ele>89.122</ele>
        <time>2013-02-17T08:19:39Z</time>
      </trkpt>
      <trkpt lat="48.48878" lon="2.64582">
        <ele>88.998</ele>
        <time>2013-02-17T08:19:48Z</time>
      </trkpt>
      <trkpt lat="48.48872" lon="2.64525">
        <ele>88.753</ele>
        <time>2013-02-17T08:19:58Z</time>
      </trkpt>
      <trkpt lat="48.48867" lon="2.64479">
        <ele>88.809</ele>
        <time>2013-02-17T08:20:06Z</time>
      </trkpt>
      <trkpt lat="48.48865" lon="2.64451">
        <ele>88.711</ele>
        <time>2013-02-17T08:20:11Z</time>
      </trkpt>
      <trkpt lat="48.48861" lon="2.64412">
        <ele>88.692</ele>
        <time>2013-02-17T08:20:18Z</time>
      </trkpt>
      <trkpt lat="48.48857" lon="2.64379">
        <ele>88.557</ele>
        <time>2013-02-17T08:20:25Z</time>
      </trkpt>
      <trkpt lat="48.48855" lon="2.64349">
        <ele>88.555</ele>
        <time>2013-02-17T08:20:32Z</time>
      </trkpt>
      <trkpt lat="48.48852" lon="2.64322">
        <ele>88.58</ele>
        <time>2013-02-17T08:20:38Z</time>
      </trkpt>
      <trkpt lat="48.4885" lon="2.64298">
        <ele>88.544</ele>
        <time>2013-02-17T08:20:43Z</time>
      </trkpt>
      <trkpt lat="48.48847" lon="2.64266">
        <ele>88.562</ele>
        <time>2013-02-17T08:20:49Z</time>
      </trkpt>
      <trkpt lat="48.48844" lon="2.64234">
        <ele>88.384</ele>
        <time>2013-02-17T08:20:55Z</time>
      </trkpt>
      <trkpt lat="48.4884" lon="2.64193">
        <ele>88.414</ele>
        <time>2013-02-17T08:21:02Z</time>
      </trkpt>
      <trkpt lat="48.48837" lon="2.64161">
        <ele>88.422</ele>
        <time>2013-02-17T08:21:08Z</time>
      </trkpt>
      <trkpt lat="48.48834" lon="2.64126">
        <ele>88.569</ele>
        <time>2013-02-17T08:21:15Z</time>
      </trkpt>
      <trkpt lat="48.4883" lon="2.64091">
        <ele>88.716</ele>
        <time>2013-02-17T08:21:21Z</time>
      </trkpt>
      <trkpt lat="48.48828" lon="2.64069">
        <ele>88.79</ele>
        <time>2013-02-17T08:21:25Z</time>
      </trkpt>
      <trkpt lat="48.48825" lon="2.64039">
        <ele>88.778</ele>
        <time>2013-02-17T08:21:30Z</time>
      </trkpt>
      <trkpt lat="48.48821" lon="2.64005">
        <ele>88.932</ele>
        <time>2013-02-17T08:21:36Z</time>
      </trkpt>
      <trkpt lat="48.48817" lon="2.63965">
        <ele>89.084</ele>
        <time>2013-02-17T08:21:43Z</time>
      </trkpt>
      <trkpt lat="48.48813" lon="2.63927">
        <ele>89.116</ele>
        <time>2013-02-17T08:21:50Z</time>
      </trkpt>
      <trkpt lat="48.48808" lon="2.63877">
        <ele>88.779</ele>
        <time>2013-02-17T08:21:59Z</time>
      </trkpt>
      <trkpt lat="48.48805" lon="2.63843">
        <ele>88.684</ele>
        <time>2013-02-17T08:22:05Z</time>
      </trkpt>
      <trkpt lat="48.488" lon="2.63799">
        <ele>88.541</ele>
        <time>2013-02-17T08:22:13Z</time>
      </trkpt>
      <trkpt lat="48.48795" lon="2.63744">
        <ele>88.72</ele>
        <time>2013-02-17T08:22:23Z</time>
      </trkpt>
      <trkpt lat="48.48789" lon="2.63695">
        <ele>88.915</ele>
        <time>2013-02-17T08:22:32Z</time>
      </trkpt>
      <trkpt lat="48.48784" lon="2.63649">
        <ele>88.783</ele>
        <time>2013-02-17T08:22:40Z</time>
      </trkpt>
      <trkpt lat="48.48778" lon="2.63601">
        <ele>88.83</ele>
        <time>2013-02-17T08:22:48Z</time>
      </trkpt>
      <trkpt lat="48.48775" lon="2.63578">
        <ele>88.836</ele>
        <time>2013-02-17T08:22:52Z</time>
      </trkpt>
      <trkpt lat="48.48761" lon="2.6356">
        <ele>89.029</ele>
        <time>2013-02-17T08:22:56Z</time>
      </trkpt>
      <trkpt lat="48.48756" lon="2.63561">
        <ele>89.124</ele>
        <time>2013-02-17T08:22:58Z</time>
      </trkpt>
      <trkpt lat="48.48739" lon="2.63623">
        <ele>89.075</ele>
        <time>2013-02-17T08:23:06Z</time>
      </trkpt>
      <trkpt lat="48.48715" lon="2.6367">
        <ele>88.96</ele>
        <time>2013-02-17T08:23:15Z</time>
      </trkpt>
      <trkpt lat="48.48689" lon="2.6372">
        <ele>88.687</ele>
        <time>2013-02-17T08:23:24Z</time>
      </trkpt>
      <trkpt lat="48.48683" lon="2.63732">
        <ele>88.547</ele>
        <time>2013-02-17T08:23:26Z</time>
      </trkpt>
      <trkpt lat="48.48659" lon="2.63777">
        <ele>88.132</ele>
        <time>2013-02-17T08:23:34Z</time>
      </trkpt>
      <trkpt lat="48.48645" lon="2.63805">
        <ele>87.55</ele>
        <time>2013-02-17T08:23:39Z</time>
      </trkpt>
      <trkpt lat="48.48635" lon="2.63824">
        <ele>87.179</ele>
        <time>2013-02-17T08:23:42Z</time>
      </trkpt>
      <trkpt lat="48.48605" lon="2.63883">
        <ele>85.573</ele>
        <time>2013-02-17T08:23:51Z</time>
      </trkpt>
      <trkpt lat="48.48585" lon="2.63923">
        <ele>84.122</ele>
        <time>2013-02-17T08:23:57Z</time>
      </trkpt>
      <trkpt lat="48.48557" lon="2.63977">
        <ele>82.194</ele>
        <time>2013-02-17T08:24:04Z</time>
      </trkpt>
      <trkpt lat="48.48533" lon="2.64024">
        <ele>80.541</ele>
        <time>2013-02-17T08:24:10Z</time>
      </trkpt>
      <trkpt lat="48.48508" lon="2.64072">
        <ele>79.393</ele>
        <time>2013-02-17T08:24:17Z</time>
      </trkpt>
      <trkpt lat="48.4849" lon="2.64108">
        <ele>79.22</ele>
        <time>2013-02-17T08:24:23Z</time>
      </trkpt>
      <trkpt lat="48.48481" lon="2.64125">
        <ele>79.272</ele>
        <time>2013-02-17T08:24:26Z</time>
      </trkpt>
      <trkpt lat="48.48467" lon="2.64152">
        <ele>79.387</ele>
        <time>2013-02-17T08:24:31Z</time>
      </trkpt>
      <trkpt lat="48.48445" lon="2.64194">
        <ele>79.59</ele>
        <time>2013-02-17T08:24:39Z</time>
      </trkpt>
      <trkpt lat="48.48424" lon="2.64236">
        <ele>79.653</ele>
        <time>2013-02-17T08:24:47Z</time>
      </trkpt>
      <trkpt lat="48.48402" lon="2.64278">
        <ele>79.558</ele>
        <time>2013-02-17T08:24:55Z</time>
      </trkpt>
      <trkpt lat="48.48376" lon="2.6433">
        <ele>78.954</ele>
        <time>2013-02-17T08:25:04Z</time>
      </trkpt>
      <trkpt lat="48.4836" lon="2.64363">
        <ele>78.813</ele>
        <time>2013-02-17T08:25:10Z</time>
      </trkpt>
      <trkpt lat="48.48334" lon="2.64414">
        <ele>79.179</ele>
        <time>2013-02-17T08:25:20Z</time>
      </trkpt>
      <trkpt lat="48.48317" lon="2.64447">
        <ele>79.311</ele>
        <time>2013-02-17T08:25:27Z</time>
      </trkpt>
      <trkpt lat="48.48301" lon="2.64478">
        <ele>79.851</ele>
        <time>2013-02-17T08:25:34Z</time>
      </trkpt>
      <trkpt lat="48.48294" lon="2.64492">
        <ele>80.319</ele>
        <time>2013-02-17T08:25:38Z</time>
      </trkpt>
      <trkpt lat="48.48286" lon="2.64499">
        <ele>80.513</ele>
        <time>2013-02-17T08:25:43Z</time>
      </trkpt>
      <trkpt lat="48.48285" lon="2.6448">
        <ele>79.82</ele>
        <time>2013-02-17T08:25:49Z</time>
      </trkpt>
      <trkpt lat="48.48282" lon="2.64468">
        <ele>79.559</ele>
        <time>2013-02-17T08:26:18Z</time>
      </trkpt>
      <trkpt lat="48.48281" lon="2.64465">
        <ele>79.512</ele>
        <time>2013-02-17T08:26:19Z</time>
      </trkpt>
      <trkpt lat="48.48278" lon="2.6445">
        <ele>79.267</ele>
        <time>2013-02-17T08:26:24Z</time>
      </trkpt>
      <trkpt lat="48.48275" lon="2.64438">
        <ele>79.124</ele>
        <time>2013-02-17T08:26:26Z</time>
      </trkpt>
      <trkpt lat="48.48269" lon="2.64415">
        <ele>78.919</ele>
        <time>2013-02-17T08:26:30Z</time>
      </trkpt>
      <trkpt lat="48.48259" lon="2.64378">
        <ele>78.22</ele>
        <time>2013-02-17T08:26:36Z</time>
      </trkpt>
      <trkpt lat="48.48242" lon="2.64316">
        <ele>77.714</ele>
        <time>2013-02-17T08:26:45Z</time>
      </trkpt>
      <trkpt lat="48.48222" lon="2.64244">
        <ele>76.614</ele>
        <time>2013-02-17T08:26:55Z</time>
      </trkpt>
      <trkpt lat="48.48209" lon="2.64195">
        <ele>76.315</ele>
        <time>2013-02-17T08:27:02Z</time>
      </trkpt>
      <trkpt lat="48.48199" lon="2.64153">
        <ele>76.145</ele>
        <time>2013-02-17T08:27:08Z</time>
      </trkpt>
      <trkpt lat="48.48185" lon="2.64097">
        <ele>75.829</ele>
        <time>2013-02-17T08:27:16Z</time>
      </trkpt>
      <trkpt lat="48.48171" lon="2.64048">
        <ele>75.516</ele>
        <time>2013-02-17T08:27:23Z</time>
      </trkpt>
      <trkpt lat="48.4816" lon="2.64018">
        <ele>75.433</ele>
        <time>2013-02-17T08:27:28Z</time>
      </trkpt>
      <trkpt lat="48.48159" lon="2.63986">
        <ele>75.258</ele>
        <time>2013-02-17T08:27:33Z</time>
      </trkpt>
      <trkpt lat="48.48167" lon="2.63951">
        <ele>75.121</ele>
        <time>2013-02-17T08:27:39Z</time>
      </trkpt>
      <trkpt lat="48.48176" lon="2.63913">
        <ele>75.532</ele>
        <time>2013-02-17T08:27:45Z</time>
      </trkpt>
      <trkpt lat="48.48184" lon="2.63878">
        <ele>75.479</ele>
        <time>2013-02-17T08:27:50Z</time>
      </trkpt>
      <trkpt lat="48.48187" lon="2.63864">
        <ele>75.321</ele>
        <time>2013-02-17T08:27:52Z</time>
      </trkpt>
      <trkpt lat="48.48197" lon="2.63821">
        <ele>75.071</ele>
        <time>2013-02-17T08:27:58Z</time>
      </trkpt>
      <trkpt lat="48.48207" lon="2.63779">
        <ele>74.936</ele>
        <time>2013-02-17T08:28:04Z</time>
      </trkpt>
      <trkpt lat="48.48215" lon="2.63745">
        <ele>74.843</ele>
        <time>2013-02-17T08:28:09Z</time>
      </trkpt>
      <trkpt lat="48.48219" lon="2.63724">
        <ele>74.819</ele>
        <time>2013-02-17T08:28:12Z</time>
      </trkpt>
      <trkpt lat="48.48224" lon="2.63702">
        <ele>74.778</ele>
        <time>2013-02-17T08:28:15Z</time>
      </trkpt>
      <trkpt lat="48.48229" lon="2.6368">
        <ele>74.79</ele>
        <time>2013-02-17T08:28:18Z</time>
      </trkpt>
      <trkpt lat="48.48232" lon="2.63665">
        <ele>74.776</ele>
        <time>2013-02-17T08:28:20Z</time>
      </trkpt>
      <trkpt lat="48.48234" lon="2.63632">
        <ele>74.569</ele>
        <time>2013-02-17T08:28:24Z</time>
      </trkpt>
      <trkpt lat="48.48222" lon="2.63633">
        <ele>74.394</ele>
        <time>2013-02-17T08:28:27Z</time>
      </trkpt>
      <trkpt lat="48.48181" lon="2.63639">
        <ele>74.457</ele>
        <time>2013-02-17T08:28:35Z</time>
      </trkpt>
      <trkpt lat="48.48155" lon="2.63643">
        <ele>74.351</ele>
        <time>2013-02-17T08:28:40Z</time>
      </trkpt>
      <trkpt lat="48.48145" lon="2.63644">
        <ele>74.247</ele>
        <time>2013-02-17T08:28:42Z</time>
      </trkpt>
      <trkpt lat="48.48109" lon="2.63649">
        <ele>74.238</ele>
        <time>2013-02-17T08:28:49Z</time>
      </trkpt>
      <trkpt lat="48.481" lon="2.6365">
        <ele>74.325</ele>
        <time>2013-02-17T08:28:51Z</time>
      </trkpt>
      <trkpt lat="48.4809" lon="2.63652">
        <ele>74.262</ele>
        <time>2013-02-17T08:28:53Z</time>
      </trkpt>
      <trkpt lat="48.48052" lon="2.63657">
        <ele>74.337</ele>
        <time>2013-02-17T08:29:01Z</time>
      </trkpt>
      <trkpt lat="48.48038" lon="2.63659">
        <ele>74.271</ele>
        <time>2013-02-17T08:29:04Z</time>
      </trkpt>
      <trkpt lat="48.47998" lon="2.63665">
        <ele>74.103</ele>
        <time>2013-02-17T08:29:12Z</time>
      </trkpt>
      <trkpt lat="48.47958" lon="2.6367">
        <ele>74.012</ele>
        <time>2013-02-17T08:29:20Z</time>
      </trkpt>
      <trkpt lat="48.47921" lon="2.63676">
        <ele>73.849</ele>
        <time>2013-02-17T08:29:27Z</time>
      </trkpt>
      <trkpt lat="48.47886" lon="2.6368">
        <ele>73.851</ele>
        <time>2013-02-17T08:29:34Z</time>
      </trkpt>
      <trkpt lat="48.47857" lon="2.63684">
        <ele>73.793</ele>
        <time>2013-02-17T08:29:40Z</time>
      </trkpt>
      <trkpt lat="48.47842" lon="2.63686">
        <ele>73.776</ele>
        <time>2013-02-17T08:29:43Z</time>
      </trkpt>
      <trkpt lat="48.478" lon="2.63692">
        <ele>73.926</ele>
        <time>2013-02-17T08:29:51Z</time>
      </trkpt>
      <trkpt lat="48.47776" lon="2.63696">
        <ele>73.839</ele>
        <time>2013-02-17T08:29:56Z</time>
      </trkpt>
      <trkpt lat="48.4774" lon="2.637">
        <ele>73.484</ele>
        <time>2013-02-17T08:30:03Z</time>
      </trkpt>
      <trkpt lat="48.47706" lon="2.63705">
        <ele>73.44</ele>
        <time>2013-02-17T08:30:10Z</time>
      </trkpt>
      <trkpt lat="48.47693" lon="2.63707">
        <ele>73.113</ele>
        <time>2013-02-17T08:30:14Z</time>
      </trkpt>
      <trkpt lat="48.47679" lon="2.63709">
        <ele>73.018</ele>
        <time>2013-02-17T08:30:19Z</time>
      </trkpt>
      <trkpt lat="48.4767" lon="2.6371">
        <ele>73.086</ele>
        <time>2013-02-17T08:30:21Z</time>
      </trkpt>
      <trkpt lat="48.47641" lon="2.63714">
        <ele>72.894</ele>
        <time>2013-02-17T08:30:27Z</time>
      </trkpt>
      <trkpt lat="48.47603" lon="2.63719">
        <ele>73.022</ele>
        <time>2013-02-17T08:30:34Z</time>
      </trkpt>
      <trkpt lat="48.47571" lon="2.63723">
        <ele>72.964</ele>
        <time>2013-02-17T08:30:40Z</time>
      </trkpt>
      <trkpt lat="48.47537" lon="2.63727">
        <ele>72.728</ele>
        <time>2013-02-17T08:30:47Z</time>
      </trkpt>
      <trkpt lat="48.47498" lon="2.63733">
        <ele>72.291</ele>
        <time>2013-02-17T08:30:55Z</time>
      </trkpt>
      <trkpt lat="48.47463" lon="2.63738">
        <ele>72.045</ele>
        <time>2013-02-17T08:31:02Z</time>
      </trkpt>
      <trkpt lat="48.47432" lon="2.63742">
        <ele>72.051</ele>
        <time>2013-02-17T08:31:08Z</time>
      </trkpt>
      <trkpt lat="48.47401" lon="2.63747">
        <ele>71.826</ele>
        <time>2013-02-17T08:31:14Z</time>
      </trkpt>
      <trkpt lat="48.47372" lon="2.63751">
        <ele>71.482</ele>
        <time>2013-02-17T08:31:20Z</time>
      </trkpt>
      <trkpt lat="48.47367" lon="2.63751">
        <ele>71.468</ele>
        <time>2013-02-17T08:31:21Z</time>
      </trkpt>
      <trkpt lat="48.47334" lon="2.63756">
        <ele>71.684</ele>
        <time>2013-02-17T08:31:27Z</time>
      </trkpt>
      <trkpt lat="48.47301" lon="2.63761">
        <ele>71.601</ele>
        <time>2013-02-17T08:31:34Z</time>
      </trkpt>
      <trkpt lat="48.47268" lon="2.63765">
        <ele>71.581</ele>
        <time>2013-02-17T08:31:41Z</time>
      </trkpt>
      <trkpt lat="48.47245" lon="2.63769">
        <ele>71.56</ele>
        <time>2013-02-17T08:31:46Z</time>
      </trkpt>
      <trkpt lat="48.47203" lon="2.63774">
        <ele>71.645</ele>
        <time>2013-02-17T08:31:55Z</time>
      </trkpt>
      <trkpt lat="48.47199" lon="2.63775">
        <ele>71.664</ele>
        <time>2013-02-17T08:31:56Z</time>
      </trkpt>
      <trkpt lat="48.47186" lon="2.63777">
        <ele>71.734</ele>
        <time>2013-02-17T08:31:59Z</time>
      </trkpt>
      <trkpt lat="48.47185" lon="2.63777">
        <ele>71.809</ele>
        <time>2013-02-17T08:32:03Z</time>
      </trkpt>
      <trkpt lat="48.47185" lon="2.63777">
        <ele>71.824</ele>
        <time>2013-02-17T08:32:05Z</time>
      </trkpt>
      <trkpt lat="48.472" lon="2.63729">
        <ele>71.948</ele>
        <time>2013-02-17T08:32:10Z</time>
      </trkpt>
      <trkpt lat="48.47214" lon="2.63678">
        <ele>71.922</ele>
        <time>2013-02-17T08:32:18Z</time>
      </trkpt>
      <trkpt lat="48.47224" lon="2.63629">
        <ele>72.102</ele>
        <time>2013-02-17T08:32:25Z</time>
      </trkpt>
      <trkpt lat="48.47231" lon="2.63594">
        <ele>71.917</ele>
        <time>2013-02-17T08:32:30Z</time>
      </trkpt>
      <trkpt lat="48.47237" lon="2.63559">
        <ele>71.812</ele>
        <time>2013-02-17T08:32:35Z</time>
      </trkpt>
      <trkpt lat="48.47246" lon="2.6351">
        <ele>71.5</ele>
        <time>2013-02-17T08:32:42Z</time>
      </trkpt>
      <trkpt lat="48.47252" lon="2.63461">
        <ele>71.229</ele>
        <time>2013-02-17T08:32:49Z</time>
      </trkpt>
      <trkpt lat="48.47253" lon="2.63448">
        <ele>71.2</ele>
        <time>2013-02-17T08:32:51Z</time>
      </trkpt>
      <trkpt lat="48.47258" lon="2.63427">
        <ele>71.294</ele>
        <time>2013-02-17T08:32:55Z</time>
      </trkpt>
      <trkpt lat="48.47238" lon="2.63433">
        <ele>71.313</ele>
        <time>2013-02-17T08:32:58Z</time>
      </trkpt>
      <trkpt lat="48.47206" lon="2.63455">
        <ele>71.374</ele>
        <time>2013-02-17T08:33:06Z</time>
      </trkpt>
      <trkpt lat="48.47177" lon="2.63471">
        <ele>71.283</ele>
        <time>2013-02-17T08:33:13Z</time>
      </trkpt>
      <trkpt lat="48.47151" lon="2.63485">
        <ele>71.474</ele>
        <time>2013-02-17T08:33:19Z</time>
      </trkpt>
      <trkpt lat="48.47131" lon="2.63499">
        <ele>71.461</ele>
        <time>2013-02-17T08:33:24Z</time>
      </trkpt>
      <trkpt lat="48.47118" lon="2.63506">
        <ele>71.471</ele>
        <time>2013-02-17T08:33:27Z</time>
      </trkpt>
      <trkpt lat="48.47098" lon="2.63514">
        <ele>71.581</ele>
        <time>2013-02-17T08:33:32Z</time>
      </trkpt>
      <trkpt lat="48.47069" lon="2.63517">
        <ele>71.383</ele>
        <time>2013-02-17T08:33:39Z</time>
      </trkpt>
      <trkpt lat="48.47057" lon="2.63517">
        <ele>71.319</ele>
        <time>2013-02-17T08:33:42Z</time>
      </trkpt>
      <trkpt lat="48.47031" lon="2.63517">
        <ele>71.479</ele>
        <time>2013-02-17T08:33:48Z</time>
      </trkpt>
      <trkpt lat="48.47005" lon="2.63517">
        <ele>71.415</ele>
        <time>2013-02-17T08:33:54Z</time>
      </trkpt>
      <trkpt lat="48.46987" lon="2.63515">
        <ele>71.257</ele>
        <time>2013-02-17T08:33:58Z</time>
      </trkpt>
      <trkpt lat="48.46965" lon="2.63513">
        <ele>71.026</ele>
        <time>2013-02-17T08:34:03Z</time>
      </trkpt>
      <trkpt lat="48.46936" lon="2.63507">
        <ele>70.774</ele>
        <time>2013-02-17T08:34:10Z</time>
      </trkpt>
      <trkpt lat="48.46914" lon="2.63497">
        <ele>70.913</ele>
        <time>2013-02-17T08:34:16Z</time>
      </trkpt>
      <trkpt lat="48.46889" lon="2.63485">
        <ele>71.012</ele>
        <time>2013-02-17T08:34:22Z</time>
      </trkpt>
      <trkpt lat="48.4687" lon="2.63477">
        <ele>71.252</ele>
        <time>2013-02-17T08:34:27Z</time>
      </trkpt>
      <trkpt lat="48.46866" lon="2.63475">
        <ele>71.255</ele>
        <time>2013-02-17T08:34:28Z</time>
      </trkpt>
      <trkpt lat="48.46843" lon="2.63464">
        <ele>71.583</ele>
        <time>2013-02-17T08:34:34Z</time>
      </trkpt>
      <trkpt lat="48.46822" lon="2.63452">
        <ele>71.839</ele>
        <time>2013-02-17T08:34:39Z</time>
      </trkpt>
      <trkpt lat="48.46796" lon="2.63436">
        <ele>71.965</ele>
        <time>2013-02-17T08:34:46Z</time>
      </trkpt>
      <trkpt lat="48.46774" lon="2.63424">
        <ele>72.37</ele>
        <time>2013-02-17T08:34:52Z</time>
      </trkpt>
      <trkpt lat="48.46756" lon="2.63415">
        <ele>72.852</ele>
        <time>2013-02-17T08:34:57Z</time>
      </trkpt>
      <trkpt lat="48.46744" lon="2.63411">
        <ele>72.973</ele>
        <time>2013-02-17T08:35:01Z</time>
      </trkpt>
      <trkpt lat="48.46744" lon="2.63411">
        <ele>72.963</ele>
        <time>2013-02-17T08:35:03Z</time>
      </trkpt>
      <trkpt lat="48.46742" lon="2.63412">
        <ele>72.761</ele>
        <time>2013-02-17T08:38:26Z</time>
      </trkpt>
      <trkpt lat="48.46742" lon="2.63412">
        <ele>72.887</ele>
        <time>2013-02-17T08:38:28Z</time>
      </trkpt>
      <trkpt lat="48.46745" lon="2.63427">
        <ele>73.784</ele>
        <time>2013-02-17T08:40:45Z</time>
      </trkpt>
      <trkpt lat="48.46745" lon="2.6345">
        <ele>73.877</ele>
        <time>2013-02-17T08:40:51Z</time>
      </trkpt>
      <trkpt lat="48.46745" lon="2.63475">
        <ele>73.732</ele>
        <time>2013-02-17T08:40:57Z</time>
      </trkpt>
      <trkpt lat="48.46745" lon="2.63487">
        <ele>73.654</ele>
        <time>2013-02-17T08:41:01Z</time>
      </trkpt>
      <trkpt lat="48.46745" lon="2.63491">
        <ele>73.676</ele>
        <time>2013-02-17T08:41:02Z</time>
      </trkpt>
      <trkpt lat="48.46745" lon="2.63507">
        <ele>73.617</ele>
        <time>2013-02-17T08:41:09Z</time>
      </trkpt>
      <trkpt lat="48.46746" lon="2.63533">
        <ele>73.542</ele>
        <time>2013-02-17T08:41:15Z</time>
      </trkpt>
      <trkpt lat="48.46746" lon="2.63554">
        <ele>73.345</ele>
        <time>2013-02-17T08:41:20Z</time>
      </trkpt>
      <trkpt lat="48.46746" lon="2.6358">
        <ele>73.568</ele>
        <time>2013-02-17T08:41:25Z</time>
      </trkpt>
      <trkpt lat="48.46747" lon="2.63607">
        <ele>73.44</ele>
        <time>2013-02-17T08:41:30Z</time>
      </trkpt>
      <trkpt lat="48.46747" lon="2.6363">
        <ele>73.241</ele>
        <time>2013-02-17T08:41:34Z</time>
      </trkpt>
      <trkpt lat="48.46747" lon="2.63656">
        <ele>73.155</ele>
        <time>2013-02-17T08:41:39Z</time>
      </trkpt>
      <trkpt lat="48.46747" lon="2.63683">
        <ele>73.057</ele>
        <time>2013-02-17T08:41:44Z</time>
      </trkpt>
      <trkpt lat="48.46743" lon="2.63704">
        <ele>72.933</ele>
        <time>2013-02-17T08:41:48Z</time>
      </trkpt>
      <trkpt lat="48.46739" lon="2.63733">
        <ele>72.931</ele>
        <time>2013-02-17T08:41:53Z</time>
      </trkpt>
      <trkpt lat="48.46736" lon="2.63755">
        <ele>72.936</ele>
        <time>2013-02-17T08:41:57Z</time>
      </trkpt>
      <trkpt lat="48.46735" lon="2.6376">
        <ele>72.959</ele>
        <time>2013-02-17T08:41:58Z</time>
      </trkpt>
      <trkpt lat="48.46731" lon="2.63792">
        <ele>72.882</ele>
        <time>2013-02-17T08:42:03Z</time>
      </trkpt>
      <trkpt lat="48.46727" lon="2.63822">
        <ele>72.99</ele>
        <time>2013-02-17T08:42:08Z</time>
      </trkpt>
      <trkpt lat="48.46723" lon="2.63844">
        <ele>73.282</ele>
        <time>2013-02-17T08:42:12Z</time>
      </trkpt>
      <trkpt lat="48.46723" lon="2.63846">
        <ele>73.335</ele>
        <time>2013-02-17T08:42:13Z</time>
      </trkpt>
      <trkpt lat="48.46694" lon="2.63846">
        <ele>74.01</ele>
        <time>2013-02-17T08:42:20Z</time>
      </trkpt>
      <trkpt lat="48.46677" lon="2.63849">
        <ele>75.005</ele>
        <time>2013-02-17T08:42:25Z</time>
      </trkpt>
      <trkpt lat="48.4667" lon="2.6385">
        <ele>75.517</ele>
        <time>2013-02-17T08:42:27Z</time>
      </trkpt>
      <trkpt lat="48.46662" lon="2.63851">
        <ele>76.087</ele>
        <time>2013-02-17T08:42:30Z</time>
      </trkpt>
      <trkpt lat="48.4665" lon="2.63853">
        <ele>77.017</ele>
        <time>2013-02-17T08:42:34Z</time>
      </trkpt>
      <trkpt lat="48.46644" lon="2.63854">
        <ele>77.505</ele>
        <time>2013-02-17T08:42:36Z</time>
      </trkpt>
      <trkpt lat="48.46641" lon="2.63854">
        <ele>77.757</ele>
        <time>2013-02-17T08:42:37Z</time>
      </trkpt>
      <trkpt lat="48.46618" lon="2.63857">
        <ele>78.687</ele>
        <time>2013-02-17T08:42:44Z</time>
      </trkpt>
      <trkpt lat="48.46596" lon="2.6386">
        <ele>79.026</ele>
        <time>2013-02-17T08:42:50Z</time>
      </trkpt>
      <trkpt lat="48.46573" lon="2.63864">
        <ele>79.313</ele>
        <time>2013-02-17T08:42:56Z</time>
      </trkpt>
      <trkpt lat="48.46559" lon="2.63866">
        <ele>79.504</ele>
        <time>2013-02-17T08:43:00Z</time>
      </trkpt>
      <trkpt lat="48.46547" lon="2.63867">
        <ele>79.823</ele>
        <time>2013-02-17T08:43:03Z</time>
      </trkpt>
      <trkpt lat="48.46524" lon="2.63871">
        <ele>80.852</ele>
        <time>2013-02-17T08:43:10Z</time>
      </trkpt>
      <trkpt lat="48.46497" lon="2.63875">
        <ele>82.415</ele>
        <time>2013-02-17T08:43:18Z</time>
      </trkpt>
      <trkpt lat="48.46473" lon="2.63879">
        <ele>84.084</ele>
        <time>2013-02-17T08:43:25Z</time>
      </trkpt>
      <trkpt lat="48.46452" lon="2.63882">
        <ele>84.261</ele>
        <time>2013-02-17T08:43:30Z</time>
      </trkpt>
      <trkpt lat="48.46424" lon="2.63886">
        <ele>83.373</ele>
        <time>2013-02-17T08:43:35Z</time>
      </trkpt>
      <trkpt lat="48.46396" lon="2.63891">
        <ele>82.099</ele>
        <time>2013-02-17T08:43:41Z</time>
      </trkpt>
      <trkpt lat="48.46368" lon="2.63896">
        <ele>82.188</ele>
        <time>2013-02-17T08:43:47Z</time>
      </trkpt>
      <trkpt lat="48.46347" lon="2.639">
        <ele>82.674</ele>
        <time>2013-02-17T08:43:52Z</time>
      </trkpt>
      <trkpt lat="48.46343" lon="2.63901">
        <ele>82.742</ele>
        <time>2013-02-17T08:43:53Z</time>
      </trkpt>
      <trkpt lat="48.46315" lon="2.63905">
        <ele>83.201</ele>
        <time>2013-02-17T08:44:00Z</time>
      </trkpt>
      <trkpt lat="48.46289" lon="2.63909">
        <ele>83.856</ele>
        <time>2013-02-17T08:44:07Z</time>
      </trkpt>
      <trkpt lat="48.46263" lon="2.63912">
        <ele>84.412</ele>
        <time>2013-02-17T08:44:14Z</time>
      </trkpt>
      <trkpt lat="48.46245" lon="2.63914">
        <ele>84.867</ele>
        <time>2013-02-17T08:44:19Z</time>
      </trkpt>
      <trkpt lat="48.46228" lon="2.63915">
        <ele>85.334</ele>
        <time>2013-02-17T08:44:24Z</time>
      </trkpt>
      <trkpt lat="48.46201" lon="2.63917">
        <ele>86.031</ele>
        <time>2013-02-17T08:44:31Z</time>
      </trkpt>
      <trkpt lat="48.4619" lon="2.63918">
        <ele>86.196</ele>
        <time>2013-02-17T08:44:34Z</time>
      </trkpt>
      <trkpt lat="48.46187" lon="2.63919">
        <ele>86.304</ele>
        <time>2013-02-17T08:44:35Z</time>
      </trkpt>
      <trkpt lat="48.46163" lon="2.63922">
        <ele>87.184</ele>
        <time>2013-02-17T08:44:42Z</time>
      </trkpt>
      <trkpt lat="48.46138" lon="2.63925">
        <ele>88.193</ele>
        <time>2013-02-17T08:44:49Z</time>
      </trkpt>
      <trkpt lat="48.46124" lon="2.63927">
        <ele>88.549</ele>
        <time>2013-02-17T08:44:53Z</time>
      </trkpt>
      <trkpt lat="48.4611" lon="2.63928">
        <ele>89.19</ele>
        <time>2013-02-17T08:44:57Z</time>
      </trkpt>
      <trkpt lat="48.46097" lon="2.6393">
        <ele>89.868</ele>
        <time>2013-02-17T08:45:02Z</time>
      </trkpt>
      <trkpt lat="48.46082" lon="2.63933">
        <ele>90.985</ele>
        <time>2013-02-17T08:45:07Z</time>
      </trkpt>
      <trkpt lat="48.46076" lon="2.63934">
        <ele>92.179</ele>
        <time>2013-02-17T08:45:11Z</time>
      </trkpt>
      <trkpt lat="48.46062" lon="2.63959">
        <ele>93.068</ele>
        <time>2013-02-17T08:45:16Z</time>
      </trkpt>
      <trkpt lat="48.46044" lon="2.6398">
        <ele>93.884</ele>
        <time>2013-02-17T08:45:24Z</time>
      </trkpt>
      <trkpt lat="48.46028" lon="2.63995">
        <ele>95.194</ele>
        <time>2013-02-17T08:45:30Z</time>
      </trkpt>
      <trkpt lat="48.46023" lon="2.64001">
        <ele>95.727</ele>
        <time>2013-02-17T08:45:32Z</time>
      </trkpt>
      <trkpt lat="48.46019" lon="2.64006">
        <ele>96.359</ele>
        <time>2013-02-17T08:45:34Z</time>
      </trkpt>
      <trkpt lat="48.46017" lon="2.64009">
        <ele>96.657</ele>
        <time>2013-02-17T08:45:35Z</time>
      </trkpt>
      <trkpt lat="48.46006" lon="2.64024">
        <ele>98.312</ele>
        <time>2013-02-17T08:45:40Z</time>
      </trkpt>
      <trkpt lat="48.45993" lon="2.64047">
        <ele>100.531</ele>
        <time>2013-02-17T08:45:47Z</time>
      </trkpt>
      <trkpt lat="48.45988" lon="2.64054">
        <ele>101.116</ele>
        <time>2013-02-17T08:45:50Z</time>
      </trkpt>
      <trkpt lat="48.45984" lon="2.64064">
        <ele>102.238</ele>
        <time>2013-02-17T08:45:53Z</time>
      </trkpt>
      <trkpt lat="48.45977" lon="2.64084">
        <ele>104.355</ele>
        <time>2013-02-17T08:45:59Z</time>
      </trkpt>
      <trkpt lat="48.45977" lon="2.64109">
        <ele>106.115</ele>
        <time>2013-02-17T08:46:06Z</time>
      </trkpt>
      <trkpt lat="48.45972" lon="2.64132">
        <ele>107.431</ele>
        <time>2013-02-17T08:46:12Z</time>
      </trkpt>
      <trkpt lat="48.45964" lon="2.6415">
        <ele>108.819</ele>
        <time>2013-02-17T08:46:18Z</time>
      </trkpt>
      <trkpt lat="48.45954" lon="2.64163">
        <ele>110.943</ele>
        <time>2013-02-17T08:46:25Z</time>
      </trkpt>
      <trkpt lat="48.45946" lon="2.64169">
        <ele>112.946</ele>
        <time>2013-02-17T08:46:31Z</time>
      </trkpt>
      <trkpt lat="48.45945" lon="2.6417">
        <ele>113.207</ele>
        <time>2013-02-17T08:46:32Z</time>
      </trkpt>
      <trkpt lat="48.45945" lon="2.6417">
        <ele>114.072</ele>
        <time>2013-02-17T08:46:36Z</time>
      </trkpt>
      <trkpt lat="48.45945" lon="2.6417">
        <ele>114.254</ele>
        <time>2013-02-17T08:46:37Z</time>
      </trkpt>
      <trkpt lat="48.45946" lon="2.64165">
        <ele>114.744</ele>
        <time>2013-02-17T08:46:57Z</time>
      </trkpt>
      <trkpt lat="48.45946" lon="2.64165">
        <ele>114.797</ele>
        <time>2013-02-17T08:46:58Z</time>
      </trkpt>
      <trkpt lat="48.45947" lon="2.64158">
        <ele>114.81</ele>
        <time>2013-02-17T08:48:27Z</time>
      </trkpt>
      <trkpt lat="48.45947" lon="2.64156">
        <ele>114.856</ele>
        <time>2013-02-17T08:48:28Z</time>
      </trkpt>
      <trkpt lat="48.45946" lon="2.64137">
        <ele>115.016</ele>
        <time>2013-02-17T08:48:34Z</time>
      </trkpt>
      <trkpt lat="48.4593" lon="2.64117">
        <ele>115.572</ele>
        <time>2013-02-17T08:48:40Z</time>
      </trkpt>
      <trkpt lat="48.45914" lon="2.64115">
        <ele>116.725</ele>
        <time>2013-02-17T08:48:46Z</time>
      </trkpt>
      <trkpt lat="48.459" lon="2.64114">
        <ele>118.387</ele>
        <time>2013-02-17T08:48:51Z</time>
      </trkpt>
      <trkpt lat="48.4588" lon="2.64113">
        <ele>120.397</ele>
        <time>2013-02-17T08:48:58Z</time>
      </trkpt>
      <trkpt lat="48.45856" lon="2.64112">
        <ele>121.945</ele>
        <time>2013-02-17T08:49:07Z</time>
      </trkpt>
      <trkpt lat="48.45838" lon="2.64113">
        <ele>122.099</ele>
        <time>2013-02-17T08:49:13Z</time>
      </trkpt>
      <trkpt lat="48.45815" lon="2.64114">
        <ele>122.436</ele>
        <time>2013-02-17T08:49:20Z</time>
      </trkpt>
      <trkpt lat="48.458" lon="2.64103">
        <ele>122.953</ele>
        <time>2013-02-17T08:49:26Z</time>
      </trkpt>
      <trkpt lat="48.4579" lon="2.64085">
        <ele>123.312</ele>
        <time>2013-02-17T08:49:31Z</time>
      </trkpt>
      <trkpt lat="48.45787" lon="2.64077">
        <ele>123.431</ele>
        <time>2013-02-17T08:49:33Z</time>
      </trkpt>
      <trkpt lat="48.45772" lon="2.64046">
        <ele>124.227</ele>
        <time>2013-02-17T08:49:41Z</time>
      </trkpt>
      <trkpt lat="48.45764" lon="2.64022">
        <ele>124.878</ele>
        <time>2013-02-17T08:49:47Z</time>
      </trkpt>
      <trkpt lat="48.45757" lon="2.63991">
        <ele>124.745</ele>
        <time>2013-02-17T08:49:53Z</time>
      </trkpt>
      <trkpt lat="48.45754" lon="2.63957">
        <ele>124.632</ele>
        <time>2013-02-17T08:49:59Z</time>
      </trkpt>
      <trkpt lat="48.45758" lon="2.63914">
        <ele>124.479</ele>
        <time>2013-02-17T08:50:07Z</time>
      </trkpt>
      <trkpt lat="48.4576" lon="2.63899">
        <ele>124.289</ele>
        <time>2013-02-17T08:50:10Z</time>
      </trkpt>
      <trkpt lat="48.45763" lon="2.6388">
        <ele>123.987</ele>
        <time>2013-02-17T08:50:13Z</time>
      </trkpt>
      <trkpt lat="48.45763" lon="2.63856">
        <ele>123.606</ele>
        <time>2013-02-17T08:50:17Z</time>
      </trkpt>
      <trkpt lat="48.45756" lon="2.63829">
        <ele>123.551</ele>
        <time>2013-02-17T08:50:22Z</time>
      </trkpt>
      <trkpt lat="48.45751" lon="2.63827">
        <ele>123.53</ele>
        <time>2013-02-17T08:50:23Z</time>
      </trkpt>
      <trkpt lat="48.45737" lon="2.63837">
        <ele>123.385</ele>
        <time>2013-02-17T08:50:27Z</time>
      </trkpt>
      <trkpt lat="48.45725" lon="2.63866">
        <ele>123.212</ele>
        <time>2013-02-17T08:50:33Z</time>
      </trkpt>
      <trkpt lat="48.45715" lon="2.63895">
        <ele>123.763</ele>
        <time>2013-02-17T08:50:39Z</time>
      </trkpt>
      <trkpt lat="48.4571" lon="2.63905">
        <ele>123.993</ele>
        <time>2013-02-17T08:50:41Z</time>
      </trkpt>
      <trkpt lat="48.45707" lon="2.63909">
        <ele>124.101</ele>
        <time>2013-02-17T08:50:42Z</time>
      </trkpt>
      <trkpt lat="48.45685" lon="2.63924">
        <ele>124.743</ele>
        <time>2013-02-17T08:50:48Z</time>
      </trkpt>
      <trkpt lat="48.45681" lon="2.63925">
        <ele>124.815</ele>
        <time>2013-02-17T08:50:49Z</time>
      </trkpt>
      <trkpt lat="48.45664" lon="2.63927">
        <ele>124.948</ele>
        <time>2013-02-17T08:50:53Z</time>
      </trkpt>
      <trkpt lat="48.45639" lon="2.63924">
        <ele>124.992</ele>
        <time>2013-02-17T08:50:59Z</time>
      </trkpt>
      <trkpt lat="48.45627" lon="2.6391">
        <ele>125.043</ele>
        <time>2013-02-17T08:51:03Z</time>
      </trkpt>
      <trkpt lat="48.45622" lon="2.63898">
        <ele>125.061</ele>
        <time>2013-02-17T08:51:05Z</time>
      </trkpt>
      <trkpt lat="48.45606" lon="2.63874">
        <ele>124.538</ele>
        <time>2013-02-17T08:51:10Z</time>
      </trkpt>
      <trkpt lat="48.45593" lon="2.63874">
        <ele>124.066</ele>
        <time>2013-02-17T08:51:13Z</time>
      </trkpt>
      <trkpt lat="48.45569" lon="2.63873">
        <ele>123.872</ele>
        <time>2013-02-17T08:51:19Z</time>
      </trkpt>
      <trkpt lat="48.45557" lon="2.63863">
        <ele>124.256</ele>
        <time>2013-02-17T08:51:23Z</time>
      </trkpt>
      <trkpt lat="48.45548" lon="2.63856">
        <ele>124.35</ele>
        <time>2013-02-17T08:51:25Z</time>
      </trkpt>
      <trkpt lat="48.45528" lon="2.63854">
        <ele>124.671</ele>
        <time>2013-02-17T08:51:30Z</time>
      </trkpt>
      <trkpt lat="48.455" lon="2.6385">
        <ele>124.765</ele>
        <time>2013-02-17T08:51:37Z</time>
      </trkpt>
      <trkpt lat="48.45486" lon="2.6384">
        <ele>124.909</ele>
        <time>2013-02-17T08:51:41Z</time>
      </trkpt>
      <trkpt lat="48.4548" lon="2.63833">
        <ele>124.863</ele>
        <time>2013-02-17T08:51:43Z</time>
      </trkpt>
      <trkpt lat="48.45462" lon="2.63807">
        <ele>124.716</ele>
        <time>2013-02-17T08:51:49Z</time>
      </trkpt>
      <trkpt lat="48.45446" lon="2.63777">
        <ele>124.589</ele>
        <time>2013-02-17T08:51:55Z</time>
      </trkpt>
      <trkpt lat="48.45436" lon="2.63752">
        <ele>124.424</ele>
        <time>2013-02-17T08:52:00Z</time>
      </trkpt>
      <trkpt lat="48.45427" lon="2.63698">
        <ele>123.964</ele>
        <time>2013-02-17T08:52:08Z</time>
      </trkpt>
      <trkpt lat="48.45426" lon="2.63692">
        <ele>123.938</ele>
        <time>2013-02-17T08:52:09Z</time>
      </trkpt>
      <trkpt lat="48.45415" lon="2.63656">
        <ele>124.177</ele>
        <time>2013-02-17T08:52:15Z</time>
      </trkpt>
      <trkpt lat="48.45402" lon="2.63639">
        <ele>124.472</ele>
        <time>2013-02-17T08:52:19Z</time>
      </trkpt>
      <trkpt lat="48.45381" lon="2.6363">
        <ele>124.712</ele>
        <time>2013-02-17T08:52:24Z</time>
      </trkpt>
      <trkpt lat="48.45377" lon="2.63631">
        <ele>124.78</ele>
        <time>2013-02-17T08:52:25Z</time>
      </trkpt>
      <trkpt lat="48.4534" lon="2.6365">
        <ele>124.458</ele>
        <time>2013-02-17T08:52:34Z</time>
      </trkpt>
      <trkpt lat="48.45319" lon="2.63661">
        <ele>124.896</ele>
        <time>2013-02-17T08:52:39Z</time>
      </trkpt>
      <trkpt lat="48.45305" lon="2.63669">
        <ele>125.204</ele>
        <time>2013-02-17T08:52:44Z</time>
      </trkpt>
      <trkpt lat="48.45293" lon="2.6366">
        <ele>125.4</ele>
        <time>2013-02-17T08:52:48Z</time>
      </trkpt>
      <trkpt lat="48.45274" lon="2.63628">
        <ele>125.449</ele>
        <time>2013-02-17T08:52:55Z</time>
      </trkpt>
      <trkpt lat="48.45268" lon="2.63618">
        <ele>125.379</ele>
        <time>2013-02-17T08:52:57Z</time>
      </trkpt>
      <trkpt lat="48.45252" lon="2.63605">
        <ele>125.469</ele>
        <time>2013-02-17T08:53:01Z</time>
      </trkpt>
      <trkpt lat="48.45249" lon="2.63603">
        <ele>125.541</ele>
        <time>2013-02-17T08:53:02Z</time>
      </trkpt>
      <trkpt lat="48.45226" lon="2.636">
        <ele>125.871</ele>
        <time>2013-02-17T08:53:07Z</time>
      </trkpt>
      <trkpt lat="48.45207" lon="2.63601">
        <ele>125.645</ele>
        <time>2013-02-17T08:53:12Z</time>
      </trkpt>
      <trkpt lat="48.45201" lon="2.63591">
        <ele>125.599</ele>
        <time>2013-02-17T08:53:14Z</time>
      </trkpt>
      <trkpt lat="48.45185" lon="2.63564">
        <ele>125.683</ele>
        <time>2013-02-17T08:53:19Z</time>
      </trkpt>
      <trkpt lat="48.45173" lon="2.63565">
        <ele>125.653</ele>
        <time>2013-02-17T08:53:22Z</time>
      </trkpt>
      <trkpt lat="48.45195" lon="2.6357">
        <ele>125.577</ele>
        <time>2013-02-17T08:53:23Z</time>
      </trkpt>
      <trkpt lat="48.45196" lon="2.63575">
        <ele>125.608</ele>
        <time>2013-02-17T08:53:24Z</time>
      </trkpt>
      <trkpt lat="48.45178" lon="2.63623">
        <ele>125.75</ele>
        <time>2013-02-17T08:53:29Z</time>
      </trkpt>
      <trkpt lat="48.45174" lon="2.63626">
        <ele>125.74</ele>
        <time>2013-02-17T08:53:30Z</time>
      </trkpt>
      <trkpt lat="48.45162" lon="2.63636">
        <ele>125.997</ele>
        <time>2013-02-17T08:53:33Z</time>
      </trkpt>
      <trkpt lat="48.45136" lon="2.63655">
        <ele>126.391</ele>
        <time>2013-02-17T08:53:40Z</time>
      </trkpt>
      <trkpt lat="48.45129" lon="2.6366">
        <ele>126.427</ele>
        <time>2013-02-17T08:53:42Z</time>
      </trkpt>
      <trkpt lat="48.45121" lon="2.63682">
        <ele>126.555</ele>
        <time>2013-02-17T08:53:46Z</time>
      </trkpt>
      <trkpt lat="48.45102" lon="2.63717">
        <ele>126.517</ele>
        <time>2013-02-17T08:53:53Z</time>
      </trkpt>
      <trkpt lat="48.451" lon="2.63722">
        <ele>126.572</ele>
        <time>2013-02-17T08:53:54Z</time>
      </trkpt>
      <trkpt lat="48.45092" lon="2.63759">
        <ele>126.69</ele>
        <time>2013-02-17T08:54:00Z</time>
      </trkpt>
      <trkpt lat="48.45087" lon="2.6379">
        <ele>126.45</ele>
        <time>2013-02-17T08:54:05Z</time>
      </trkpt>
      <trkpt lat="48.45087" lon="2.63803">
        <ele>126.401</ele>
        <time>2013-02-17T08:54:07Z</time>
      </trkpt>
      <trkpt lat="48.45085" lon="2.63859">
        <ele>126.486</ele>
        <time>2013-02-17T08:54:16Z</time>
      </trkpt>
      <trkpt lat="48.4509" lon="2.63915">
        <ele>126.523</ele>
        <time>2013-02-17T08:54:25Z</time>
      </trkpt>
      <trkpt lat="48.45092" lon="2.63935">
        <ele>126.216</ele>
        <time>2013-02-17T08:54:28Z</time>
      </trkpt>
      <trkpt lat="48.45098" lon="2.63964">
        <ele>126.331</ele>
        <time>2013-02-17T08:54:33Z</time>
      </trkpt>
      <trkpt lat="48.451" lon="2.6397">
        <ele>126.462</ele>
        <time>2013-02-17T08:54:34Z</time>
      </trkpt>
      <trkpt lat="48.45104" lon="2.63982">
        <ele>126.557</ele>
        <time>2013-02-17T08:54:36Z</time>
      </trkpt>
      <trkpt lat="48.45106" lon="2.6401">
        <ele>126.313</ele>
        <time>2013-02-17T08:54:40Z</time>
      </trkpt>
      <trkpt lat="48.45104" lon="2.64018">
        <ele>125.951</ele>
        <time>2013-02-17T08:54:41Z</time>
      </trkpt>
      <trkpt lat="48.45092" lon="2.64056">
        <ele>124.482</ele>
        <time>2013-02-17T08:54:45Z</time>
      </trkpt>
      <trkpt lat="48.45077" lon="2.64096">
        <ele>124.404</ele>
        <time>2013-02-17T08:54:50Z</time>
      </trkpt>
      <trkpt lat="48.45063" lon="2.6412">
        <ele>125.882</ele>
        <time>2013-02-17T08:54:54Z</time>
      </trkpt>
      <trkpt lat="48.45049" lon="2.64133">
        <ele>126.444</ele>
        <time>2013-02-17T08:54:57Z</time>
      </trkpt>
      <trkpt lat="48.45026" lon="2.64163">
        <ele>125.79</ele>
        <time>2013-02-17T08:55:03Z</time>
      </trkpt>
      <trkpt lat="48.4502" lon="2.64173">
        <ele>125.616</ele>
        <time>2013-02-17T08:55:05Z</time>
      </trkpt>
      <trkpt lat="48.45009" lon="2.6419">
        <ele>126.288</ele>
        <time>2013-02-17T08:55:09Z</time>
      </trkpt>
      <trkpt lat="48.44989" lon="2.6422">
        <ele>127.653</ele>
        <time>2013-02-17T08:55:15Z</time>
      </trkpt>
      <trkpt lat="48.44968" lon="2.64252">
        <ele>128.242</ele>
        <time>2013-02-17T08:55:21Z</time>
      </trkpt>
      <trkpt lat="48.44959" lon="2.64265">
        <ele>128.489</ele>
        <time>2013-02-17T08:55:24Z</time>
      </trkpt>
      <trkpt lat="48.4495" lon="2.64279">
        <ele>128.499</ele>
        <time>2013-02-17T08:55:27Z</time>
      </trkpt>
      <trkpt lat="48.44938" lon="2.64303">
        <ele>128.311</ele>
        <time>2013-02-17T08:55:32Z</time>
      </trkpt>
      <trkpt lat="48.4493" lon="2.64323">
        <ele>128.226</ele>
        <time>2013-02-17T08:55:37Z</time>
      </trkpt>
      <trkpt lat="48.44931" lon="2.64328">
        <ele>128.222</ele>
        <time>2013-02-17T08:55:38Z</time>
      </trkpt>
      <trkpt lat="48.44938" lon="2.64352">
        <ele>128.355</ele>
        <time>2013-02-17T08:55:43Z</time>
      </trkpt>
      <trkpt lat="48.4494" lon="2.64358">
        <ele>128.45</ele>
        <time>2013-02-17T08:55:44Z</time>
      </trkpt>
      <trkpt lat="48.44951" lon="2.6438">
        <ele>128.657</ele>
        <time>2013-02-17T08:55:48Z</time>
      </trkpt>
      <trkpt lat="48.4496" lon="2.6441">
        <ele>128.747</ele>
        <time>2013-02-17T08:55:52Z</time>
      </trkpt>
      <trkpt lat="48.44956" lon="2.64452">
        <ele>128.914</ele>
        <time>2013-02-17T08:55:58Z</time>
      </trkpt>
      <trkpt lat="48.44956" lon="2.6446">
        <ele>128.995</ele>
        <time>2013-02-17T08:55:59Z</time>
      </trkpt>
      <trkpt lat="48.44957" lon="2.64497">
        <ele>128.836</ele>
        <time>2013-02-17T08:56:04Z</time>
      </trkpt>
      <trkpt lat="48.44958" lon="2.64511">
        <ele>128.712</ele>
        <time>2013-02-17T08:56:06Z</time>
      </trkpt>
      <trkpt lat="48.4496" lon="2.64561">
        <ele>128.2</ele>
        <time>2013-02-17T08:56:13Z</time>
      </trkpt>
      <trkpt lat="48.44959" lon="2.64605">
        <ele>128.278</ele>
        <time>2013-02-17T08:56:19Z</time>
      </trkpt>
      <trkpt lat="48.44958" lon="2.64656">
        <ele>127.98</ele>
        <time>2013-02-17T08:56:26Z</time>
      </trkpt>
      <trkpt lat="48.44958" lon="2.64662">
        <ele>127.906</ele>
        <time>2013-02-17T08:56:27Z</time>
      </trkpt>
      <trkpt lat="48.44958" lon="2.64655">
        <ele>127.473</ele>
        <time>2013-02-17T08:56:32Z</time>
      </trkpt>
      <trkpt lat="48.44958" lon="2.64655">
        <ele>127.062</ele>
        <time>2013-02-17T08:56:35Z</time>
      </trkpt>
      <trkpt lat="48.44958" lon="2.64655">
        <ele>126.651</ele>
        <time>2013-02-17T08:56:37Z</time>
      </trkpt>
      <trkpt lat="48.44958" lon="2.64655">
        <ele>125.682</ele>
        <time>2013-02-17T08:56:41Z</time>
      </trkpt>
      <trkpt lat="48.4491" lon="2.64611">
        <ele>124.617</ele>
        <time>2013-02-17T08:56:45Z</time>
      </trkpt>
      <trkpt lat="48.44904" lon="2.6459">
        <ele>123.671</ele>
        <time>2013-02-17T08:56:47Z</time>
      </trkpt>
      <trkpt lat="48.44896" lon="2.64549">
        <ele>121.522</ele>
        <time>2013-02-17T08:56:51Z</time>
      </trkpt>
      <trkpt lat="48.44881" lon="2.64513">
        <ele>118.646</ele>
        <time>2013-02-17T08:56:55Z</time>
      </trkpt>
      <trkpt lat="48.4487" lon="2.64517">
        <ele>117.095</ele>
        <time>2013-02-17T08:56:57Z</time>
      </trkpt>
      <trkpt lat="48.44858" lon="2.64537">
        <ele>114.768</ele>
        <time>2013-02-17T08:57:00Z</time>
      </trkpt>
      <trkpt lat="48.44829" lon="2.64571">
        <ele>111.372</ele>
        <time>2013-02-17T08:57:04Z</time>
      </trkpt>
      <trkpt lat="48.44827" lon="2.64572">
        <ele>110.377</ele>
        <time>2013-02-17T08:57:05Z</time>
      </trkpt>
      <trkpt lat="48.44815" lon="2.6456">
        <ele>107.449</ele>
        <time>2013-02-17T08:57:09Z</time>
      </trkpt>
      <trkpt lat="48.44813" lon="2.64554">
        <ele>106.61</ele>
        <time>2013-02-17T08:57:10Z</time>
      </trkpt>
      <trkpt lat="48.4481" lon="2.64538">
        <ele>105.356</ele>
        <time>2013-02-17T08:57:12Z</time>
      </trkpt>
      <trkpt lat="48.44795" lon="2.64523">
        <ele>102.631</ele>
        <time>2013-02-17T08:57:16Z</time>
      </trkpt>
      <trkpt lat="48.44791" lon="2.64527">
        <ele>101.925</ele>
        <time>2013-02-17T08:57:17Z</time>
      </trkpt>
      <trkpt lat="48.4476" lon="2.64517">
        <ele>98.408</ele>
        <time>2013-02-17T08:57:22Z</time>
      </trkpt>
      <trkpt lat="48.44748" lon="2.64505">
        <ele>97.49</ele>
        <time>2013-02-17T08:57:24Z</time>
      </trkpt>
      <trkpt lat="48.44741" lon="2.64499">
        <ele>96.975</ele>
        <time>2013-02-17T08:57:25Z</time>
      </trkpt>
      <trkpt lat="48.4471" lon="2.64473">
        <ele>94.681</ele>
        <time>2013-02-17T08:57:30Z</time>
      </trkpt>
      <trkpt lat="48.44703" lon="2.64468">
        <ele>94.114</ele>
        <time>2013-02-17T08:57:31Z</time>
      </trkpt>
      <trkpt lat="48.44673" lon="2.64464">
        <ele>92.312</ele>
        <time>2013-02-17T08:57:35Z</time>
      </trkpt>
      <trkpt lat="48.44652" lon="2.64458">
        <ele>90.54</ele>
        <time>2013-02-17T08:57:38Z</time>
      </trkpt>
      <trkpt lat="48.44643" lon="2.64438">
        <ele>88.914</ele>
        <time>2013-02-17T08:57:41Z</time>
      </trkpt>
      <trkpt lat="48.44643" lon="2.64427">
        <ele>87.995</ele>
        <time>2013-02-17T08:57:43Z</time>
      </trkpt>
      <trkpt lat="48.44643" lon="2.64427">
        <ele>87.149</ele>
        <time>2013-02-17T08:57:44Z</time>
      </trkpt>
      <trkpt lat="48.44643" lon="2.64425">
        <ele>86.399</ele>
        <time>2013-02-17T08:59:06Z</time>
      </trkpt>
      <trkpt lat="48.44643" lon="2.64425">
        <ele>86.46</ele>
        <time>2013-02-17T08:59:07Z</time>
      </trkpt>
      <trkpt lat="48.44649" lon="2.64414">
        <ele>86.573</ele>
        <time>2013-02-17T08:59:11Z</time>
      </trkpt>
      <trkpt lat="48.44645" lon="2.64388">
        <ele>86.392</ele>
        <time>2013-02-17T08:59:16Z</time>
      </trkpt>
      <trkpt lat="48.44637" lon="2.64379">
        <ele>85.985</ele>
        <time>2013-02-17T08:59:20Z</time>
      </trkpt>
      <trkpt lat="48.44627" lon="2.64369">
        <ele>85.32</ele>
        <time>2013-02-17T08:59:27Z</time>
      </trkpt>
      <trkpt lat="48.44616" lon="2.64365">
        <ele>84.958</ele>
        <time>2013-02-17T08:59:32Z</time>
      </trkpt>
      <trkpt lat="48.44607" lon="2.64364">
        <ele>84.44</ele>
        <time>2013-02-17T08:59:37Z</time>
      </trkpt>
      <trkpt lat="48.44607" lon="2.64364">
        <ele>84.322</ele>
        <time>2013-02-17T08:59:38Z</time>
      </trkpt>
      <trkpt lat="48.44595" lon="2.64365">
        <ele>83.708</ele>
        <time>2013-02-17T09:03:03Z</time>
      </trkpt>
      <trkpt lat="48.44595" lon="2.64365">
        <ele>83.507</ele>
        <time>2013-02-17T09:03:05Z</time>
      </trkpt>
      <trkpt lat="48.44595" lon="2.64365">
        <ele>83.072</ele>
        <time>2013-02-17T09:03:20Z</time>
      </trkpt>
      <trkpt lat="48.44595" lon="2.64365">
        <ele>82.933</ele>
        <time>2013-02-17T09:03:23Z</time>
      </trkpt>
      <trkpt lat="48.44564" lon="2.64367">
        <ele>82.633</ele>
        <time>2013-02-17T09:03:27Z</time>
      </trkpt>
      <trkpt lat="48.4455" lon="2.64358">
        <ele>82.154</ele>
        <time>2013-02-17T09:03:32Z</time>
      </trkpt>
      <trkpt lat="48.44539" lon="2.64351">
        <ele>81.464</ele>
        <time>2013-02-17T09:03:37Z</time>
      </trkpt>
      <trkpt lat="48.44536" lon="2.64348">
        <ele>81.366</ele>
        <time>2013-02-17T09:03:39Z</time>
      </trkpt>
      <trkpt lat="48.44541" lon="2.64311">
        <ele>81.222</ele>
        <time>2013-02-17T09:03:43Z</time>
      </trkpt>
      <trkpt lat="48.4454" lon="2.64291">
        <ele>80.99</ele>
        <time>2013-02-17T09:03:46Z</time>
      </trkpt>
      <trkpt lat="48.44544" lon="2.64264">
        <ele>80.857</ele>
        <time>2013-02-17T09:03:50Z</time>
      </trkpt>
      <trkpt lat="48.44546" lon="2.6425">
        <ele>80.879</ele>
        <time>2013-02-17T09:03:52Z</time>
      </trkpt>
      <trkpt lat="48.44549" lon="2.64218">
        <ele>80.824</ele>
        <time>2013-02-17T09:03:57Z</time>
      </trkpt>
      <trkpt lat="48.44546" lon="2.64198">
        <ele>80.717</ele>
        <time>2013-02-17T09:04:00Z</time>
      </trkpt>
      <trkpt lat="48.4455" lon="2.64147">
        <ele>80.382</ele>
        <time>2013-02-17T09:04:07Z</time>
      </trkpt>
      <trkpt lat="48.44552" lon="2.6414">
        <ele>80.392</ele>
        <time>2013-02-17T09:04:08Z</time>
      </trkpt>
      <trkpt lat="48.4456" lon="2.64097">
        <ele>80.303</ele>
        <time>2013-02-17T09:04:15Z</time>
      </trkpt>
      <trkpt lat="48.44569" lon="2.64062">
        <ele>80.099</ele>
        <time>2013-02-17T09:04:21Z</time>
      </trkpt>
      <trkpt lat="48.44574" lon="2.6404">
        <ele>79.775</ele>
        <time>2013-02-17T09:04:25Z</time>
      </trkpt>
      <trkpt lat="48.44584" lon="2.63985">
        <ele>79.11</ele>
        <time>2013-02-17T09:04:33Z</time>
      </trkpt>
      <trkpt lat="48.44589" lon="2.63955">
        <ele>78.475</ele>
        <time>2013-02-17T09:04:37Z</time>
      </trkpt>
      <trkpt lat="48.44601" lon="2.63895">
        <ele>77.718</ele>
        <time>2013-02-17T09:04:45Z</time>
      </trkpt>
      <trkpt lat="48.44612" lon="2.63833">
        <ele>76.556</ele>
        <time>2013-02-17T09:04:53Z</time>
      </trkpt>
      <trkpt lat="48.44612" lon="2.63819">
        <ele>76.313</ele>
        <time>2013-02-17T09:04:55Z</time>
      </trkpt>
      <trkpt lat="48.44612" lon="2.63812">
        <ele>76.243</ele>
        <time>2013-02-17T09:04:56Z</time>
      </trkpt>
      <trkpt lat="48.44612" lon="2.63788">
        <ele>76.048</ele>
        <time>2013-02-17T09:05:00Z</time>
      </trkpt>
      <trkpt lat="48.44612" lon="2.63768">
        <ele>75.969</ele>
        <time>2013-02-17T09:05:05Z</time>
      </trkpt>
      <trkpt lat="48.44585" lon="2.6374">
        <ele>75.651</ele>
        <time>2013-02-17T09:05:10Z</time>
      </trkpt>
      <trkpt lat="48.44574" lon="2.63742">
        <ele>74.714</ele>
        <time>2013-02-17T09:05:13Z</time>
      </trkpt>
      <trkpt lat="48.44555" lon="2.63732">
        <ele>73.053</ele>
        <time>2013-02-17T09:05:19Z</time>
      </trkpt>
      <trkpt lat="48.44533" lon="2.63735">
        <ele>73.165</ele>
        <time>2013-02-17T09:05:22Z</time>
      </trkpt>
      <trkpt lat="48.44532" lon="2.63737">
        <ele>73.72</ele>
        <time>2013-02-17T09:05:25Z</time>
      </trkpt>
      <trkpt lat="48.44529" lon="2.63745">
        <ele>74.794</ele>
        <time>2013-02-17T09:05:29Z</time>
      </trkpt>
      <trkpt lat="48.44519" lon="2.63738">
        <ele>75.388</ele>
        <time>2013-02-17T09:05:32Z</time>
      </trkpt>
      <trkpt lat="48.4452" lon="2.63732">
        <ele>75.486</ele>
        <time>2013-02-17T09:05:34Z</time>
      </trkpt>
      <trkpt lat="48.44522" lon="2.63721">
        <ele>75.565</ele>
        <time>2013-02-17T09:05:37Z</time>
      </trkpt>
      <trkpt lat="48.44529" lon="2.63695">
        <ele>75.558</ele>
        <time>2013-02-17T09:05:42Z</time>
      </trkpt>
      <trkpt lat="48.44558" lon="2.63673">
        <ele>75.375</ele>
        <time>2013-02-17T09:05:49Z</time>
      </trkpt>
      <trkpt lat="48.44562" lon="2.63664">
        <ele>75.279</ele>
        <time>2013-02-17T09:05:51Z</time>
      </trkpt>
      <trkpt lat="48.44552" lon="2.63613">
        <ele>75.017</ele>
        <time>2013-02-17T09:05:57Z</time>
      </trkpt>
      <trkpt lat="48.44554" lon="2.63586">
        <ele>74.86</ele>
        <time>2013-02-17T09:06:02Z</time>
      </trkpt>
      <trkpt lat="48.44556" lon="2.63565">
        <ele>74.631</ele>
        <time>2013-02-17T09:06:09Z</time>
      </trkpt>
      <trkpt lat="48.44558" lon="2.6355">
        <ele>74.768</ele>
        <time>2013-02-17T09:06:12Z</time>
      </trkpt>
      <trkpt lat="48.44561" lon="2.63501">
        <ele>75.151</ele>
        <time>2013-02-17T09:06:20Z</time>
      </trkpt>
      <trkpt lat="48.44561" lon="2.63494">
        <ele>75.163</ele>
        <time>2013-02-17T09:06:21Z</time>
      </trkpt>
      <trkpt lat="48.44559" lon="2.63468">
        <ele>75.238</ele>
        <time>2013-02-17T09:06:25Z</time>
      </trkpt>
      <trkpt lat="48.44557" lon="2.63456">
        <ele>75.199</ele>
        <time>2013-02-17T09:06:27Z</time>
      </trkpt>
      <trkpt lat="48.44552" lon="2.63429">
        <ele>75.194</ele>
        <time>2013-02-17T09:06:32Z</time>
      </trkpt>
      <trkpt lat="48.44573" lon="2.63409">
        <ele>75.157</ele>
        <time>2013-02-17T09:06:34Z</time>
      </trkpt>
      <trkpt lat="48.44577" lon="2.63355">
        <ele>74.444</ele>
        <time>2013-02-17T09:06:42Z</time>
      </trkpt>
      <trkpt lat="48.44581" lon="2.63316">
        <ele>74.266</ele>
        <time>2013-02-17T09:06:48Z</time>
      </trkpt>
      <trkpt lat="48.44584" lon="2.63291">
        <ele>74.179</ele>
        <time>2013-02-17T09:06:52Z</time>
      </trkpt>
      <trkpt lat="48.44587" lon="2.63266">
        <ele>73.986</ele>
        <time>2013-02-17T09:06:56Z</time>
      </trkpt>
      <trkpt lat="48.44591" lon="2.63229">
        <ele>73.479</ele>
        <time>2013-02-17T09:07:02Z</time>
      </trkpt>
      <trkpt lat="48.44593" lon="2.63212">
        <ele>73.209</ele>
        <time>2013-02-17T09:07:05Z</time>
      </trkpt>
      <trkpt lat="48.44593" lon="2.63205">
        <ele>73.159</ele>
        <time>2013-02-17T09:07:06Z</time>
      </trkpt>
      <trkpt lat="48.44592" lon="2.63188">
        <ele>72.983</ele>
        <time>2013-02-17T09:07:09Z</time>
      </trkpt>
      <trkpt lat="48.44594" lon="2.63141">
        <ele>72.911</ele>
        <time>2013-02-17T09:07:17Z</time>
      </trkpt>
      <trkpt lat="48.44599" lon="2.63114">
        <ele>72.862</ele>
        <time>2013-02-17T09:07:24Z</time>
      </trkpt>
      <trkpt lat="48.44607" lon="2.63087">
        <ele>72.76</ele>
        <time>2013-02-17T09:07:30Z</time>
      </trkpt>
      <trkpt lat="48.44621" lon="2.63054">
        <ele>72.839</ele>
        <time>2013-02-17T09:07:37Z</time>
      </trkpt>
      <trkpt lat="48.44633" lon="2.63041">
        <ele>72.806</ele>
        <time>2013-02-17T09:07:41Z</time>
      </trkpt>
      <trkpt lat="48.44657" lon="2.63027">
        <ele>72.666</ele>
        <time>2013-02-17T09:07:48Z</time>
      </trkpt>
      <trkpt lat="48.4468" lon="2.6301">
        <ele>72.665</ele>
        <time>2013-02-17T09:07:55Z</time>
      </trkpt>
      <trkpt lat="48.44691" lon="2.6299">
        <ele>72.397</ele>
        <time>2013-02-17T09:08:01Z</time>
      </trkpt>
      <trkpt lat="48.44692" lon="2.62973">
        <ele>72.347</ele>
        <time>2013-02-17T09:08:05Z</time>
      </trkpt>
      <trkpt lat="48.44687" lon="2.62941">
        <ele>72.545</ele>
        <time>2013-02-17T09:08:11Z</time>
      </trkpt>
      <trkpt lat="48.44683" lon="2.62901">
        <ele>72.314</ele>
        <time>2013-02-17T09:08:18Z</time>
      </trkpt>
      <trkpt lat="48.44691" lon="2.62862">
        <ele>72.242</ele>
        <time>2013-02-17T09:08:24Z</time>
      </trkpt>
      <trkpt lat="48.44701" lon="2.62827">
        <ele>72.284</ele>
        <time>2013-02-17T09:08:30Z</time>
      </trkpt>
      <trkpt lat="48.44712" lon="2.62788">
        <ele>72.065</ele>
        <time>2013-02-17T09:08:37Z</time>
      </trkpt>
      <trkpt lat="48.44717" lon="2.62775">
        <ele>71.788</ele>
        <time>2013-02-17T09:08:40Z</time>
      </trkpt>
      <trkpt lat="48.44723" lon="2.62746">
        <ele>71.648</ele>
        <time>2013-02-17T09:08:44Z</time>
      </trkpt>
      <trkpt lat="48.44721" lon="2.6271">
        <ele>71.43</ele>
        <time>2013-02-17T09:08:49Z</time>
      </trkpt>
      <trkpt lat="48.44718" lon="2.6269">
        <ele>71.25</ele>
        <time>2013-02-17T09:08:53Z</time>
      </trkpt>
      <trkpt lat="48.44709" lon="2.62682">
        <ele>71.064</ele>
        <time>2013-02-17T09:08:57Z</time>
      </trkpt>
      <trkpt lat="48.44708" lon="2.62682">
        <ele>70.996</ele>
        <time>2013-02-17T09:09:16Z</time>
      </trkpt>
      <trkpt lat="48.44698" lon="2.62674">
        <ele>71.108</ele>
        <time>2013-02-17T09:09:20Z</time>
      </trkpt>
      <trkpt lat="48.44684" lon="2.62668">
        <ele>71.169</ele>
        <time>2013-02-17T09:09:26Z</time>
      </trkpt>
      <trkpt lat="48.44665" lon="2.62659">
        <ele>71.474</ele>
        <time>2013-02-17T09:09:32Z</time>
      </trkpt>
      <trkpt lat="48.44648" lon="2.62651">
        <ele>71.743</ele>
        <time>2013-02-17T09:09:37Z</time>
      </trkpt>
      <trkpt lat="48.44625" lon="2.6264">
        <ele>72.28</ele>
        <time>2013-02-17T09:09:44Z</time>
      </trkpt>
      <trkpt lat="48.44608" lon="2.62629">
        <ele>72.532</ele>
        <time>2013-02-17T09:09:50Z</time>
      </trkpt>
      <trkpt lat="48.44588" lon="2.62619">
        <ele>73.886</ele>
        <time>2013-02-17T09:09:56Z</time>
      </trkpt>
      <trkpt lat="48.44568" lon="2.62609">
        <ele>74.874</ele>
        <time>2013-02-17T09:10:02Z</time>
      </trkpt>
      <trkpt lat="48.4455" lon="2.62598">
        <ele>74.912</ele>
        <time>2013-02-17T09:10:07Z</time>
      </trkpt>
      <trkpt lat="48.44529" lon="2.62585">
        <ele>74.694</ele>
        <time>2013-02-17T09:10:12Z</time>
      </trkpt>
      <trkpt lat="48.44525" lon="2.62583">
        <ele>74.691</ele>
        <time>2013-02-17T09:10:13Z</time>
      </trkpt>
      <trkpt lat="48.44503" lon="2.62573">
        <ele>74.286</ele>
        <time>2013-02-17T09:10:18Z</time>
      </trkpt>
      <trkpt lat="48.4447" lon="2.62554">
        <ele>73.624</ele>
        <time>2013-02-17T09:10:25Z</time>
      </trkpt>
      <trkpt lat="48.4446" lon="2.62549">
        <ele>73.468</ele>
        <time>2013-02-17T09:10:27Z</time>
      </trkpt>
      <trkpt lat="48.44455" lon="2.62547">
        <ele>73.385</ele>
        <time>2013-02-17T09:10:28Z</time>
      </trkpt>
      <trkpt lat="48.4444" lon="2.62542">
        <ele>73.109</ele>
        <time>2013-02-17T09:10:31Z</time>
      </trkpt>
      <trkpt lat="48.44435" lon="2.62541">
        <ele>73.114</ele>
        <time>2013-02-17T09:10:32Z</time>
      </trkpt>
      <trkpt lat="48.44402" lon="2.62518">
        <ele>72.926</ele>
        <time>2013-02-17T09:10:39Z</time>
      </trkpt>
      <trkpt lat="48.44369" lon="2.62498">
        <ele>73.069</ele>
        <time>2013-02-17T09:10:46Z</time>
      </trkpt>
      <trkpt lat="48.44359" lon="2.62494">
        <ele>73.12</ele>
        <time>2013-02-17T09:10:48Z</time>
      </trkpt>
      <trkpt lat="48.44321" lon="2.62477">
        <ele>73.528</ele>
        <time>2013-02-17T09:10:56Z</time>
      </trkpt>
      <trkpt lat="48.44285" lon="2.62453">
        <ele>73.613</ele>
        <time>2013-02-17T09:11:04Z</time>
      </trkpt>
      <trkpt lat="48.44268" lon="2.62441">
        <ele>73.711</ele>
        <time>2013-02-17T09:11:08Z</time>
      </trkpt>
      <trkpt lat="48.44262" lon="2.62438">
        <ele>73.802</ele>
        <time>2013-02-17T09:11:09Z</time>
      </trkpt>
      <trkpt lat="48.44248" lon="2.62432">
        <ele>73.945</ele>
        <time>2013-02-17T09:11:12Z</time>
      </trkpt>
      <trkpt lat="48.44244" lon="2.6243">
        <ele>73.89</ele>
        <time>2013-02-17T09:11:13Z</time>
      </trkpt>
      <trkpt lat="48.44229" lon="2.62424">
        <ele>74.114</ele>
        <time>2013-02-17T09:11:16Z</time>
      </trkpt>
      <trkpt lat="48.44218" lon="2.62423">
        <ele>73.979</ele>
        <time>2013-02-17T09:11:18Z</time>
      </trkpt>
      <trkpt lat="48.44182" lon="2.62428">
        <ele>73.28</ele>
        <time>2013-02-17T09:11:25Z</time>
      </trkpt>
      <trkpt lat="48.44152" lon="2.62432">
        <ele>72.81</ele>
        <time>2013-02-17T09:11:31Z</time>
      </trkpt>
      <trkpt lat="48.44135" lon="2.62432">
        <ele>72.502</ele>
        <time>2013-02-17T09:11:36Z</time>
      </trkpt>
      <trkpt lat="48.44124" lon="2.62431">
        <ele>72.367</ele>
        <time>2013-02-17T09:11:43Z</time>
      </trkpt>
      <trkpt lat="48.44124" lon="2.62431">
        <ele>72.339</ele>
        <time>2013-02-17T09:11:44Z</time>
      </trkpt>
      <trkpt lat="48.44119" lon="2.6243">
        <ele>72.238</ele>
        <time>2013-02-17T09:11:49Z</time>
      </trkpt>
      <trkpt lat="48.44118" lon="2.6243">
        <ele>72.261</ele>
        <time>2013-02-17T09:11:50Z</time>
      </trkpt>
      <trkpt lat="48.44103" lon="2.62423">
        <ele>72.112</ele>
        <time>2013-02-17T09:11:53Z</time>
      </trkpt>
      <trkpt lat="48.44103" lon="2.62423">
        <ele>72.666</ele>
        <time>2013-02-17T09:19:00Z</time>
      </trkpt>
      <trkpt lat="48.44103" lon="2.62423">
        <ele>72.669</ele>
        <time>2013-02-17T09:19:01Z</time>
      </trkpt>
      <trkpt lat="48.44103" lon="2.62423">
        <ele>73.642</ele>
        <time>2013-02-17T09:20:37Z</time>
      </trkpt>
      <trkpt lat="48.44102" lon="2.62424">
        <ele>73.859</ele>
        <time>2013-02-17T09:24:19Z</time>
      </trkpt>
      <trkpt lat="48.44102" lon="2.62432">
        <ele>73.725</ele>
        <time>2013-02-17T09:24:24Z</time>
      </trkpt>
      <trkpt lat="48.44096" lon="2.62432">
        <ele>73.85</ele>
        <time>2013-02-17T09:24:27Z</time>
      </trkpt>
      <trkpt lat="48.44094" lon="2.62432">
        <ele>73.878</ele>
        <time>2013-02-17T09:24:28Z</time>
      </trkpt>
      <trkpt lat="48.4408" lon="2.62435">
        <ele>74.164</ele>
        <time>2013-02-17T09:24:35Z</time>
      </trkpt>
      <trkpt lat="48.44072" lon="2.62435">
        <ele>74.065</ele>
        <time>2013-02-17T09:24:38Z</time>
      </trkpt>
      <trkpt lat="48.44066" lon="2.62436">
        <ele>74.013</ele>
        <time>2013-02-17T09:24:40Z</time>
      </trkpt>
      <trkpt lat="48.44058" lon="2.62437">
        <ele>73.961</ele>
        <time>2013-02-17T09:24:42Z</time>
      </trkpt>
      <trkpt lat="48.44053" lon="2.62438">
        <ele>74.036</ele>
        <time>2013-02-17T09:24:43Z</time>
      </trkpt>
      <trkpt lat="48.44049" lon="2.62438">
        <ele>74.138</ele>
        <time>2013-02-17T09:24:44Z</time>
      </trkpt>
      <trkpt lat="48.44019" lon="2.62437">
        <ele>74.589</ele>
        <time>2013-02-17T09:24:51Z</time>
      </trkpt>
      <trkpt lat="48.44005" lon="2.62436">
        <ele>74.435</ele>
        <time>2013-02-17T09:24:54Z</time>
      </trkpt>
      <trkpt lat="48.43969" lon="2.62432">
        <ele>74.828</ele>
        <time>2013-02-17T09:25:01Z</time>
      </trkpt>
      <trkpt lat="48.43942" lon="2.62429">
        <ele>74.846</ele>
        <time>2013-02-17T09:25:06Z</time>
      </trkpt>
      <trkpt lat="48.43906" lon="2.62422">
        <ele>74.974</ele>
        <time>2013-02-17T09:25:13Z</time>
      </trkpt>
      <trkpt lat="48.43879" lon="2.62416">
        <ele>75.016</ele>
        <time>2013-02-17T09:25:18Z</time>
      </trkpt>
      <trkpt lat="48.43846" lon="2.62411">
        <ele>75.323</ele>
        <time>2013-02-17T09:25:24Z</time>
      </trkpt>
      <trkpt lat="48.4383" lon="2.62408">
        <ele>75.636</ele>
        <time>2013-02-17T09:25:27Z</time>
      </trkpt>
      <trkpt lat="48.4379" lon="2.62404">
        <ele>76.574</ele>
        <time>2013-02-17T09:25:35Z</time>
      </trkpt>
      <trkpt lat="48.43755" lon="2.62405">
        <ele>77.04</ele>
        <time>2013-02-17T09:25:42Z</time>
      </trkpt>
      <trkpt lat="48.43713" lon="2.62412">
        <ele>77.029</ele>
        <time>2013-02-17T09:25:50Z</time>
      </trkpt>
      <trkpt lat="48.43669" lon="2.62411">
        <ele>77.336</ele>
        <time>2013-02-17T09:25:58Z</time>
      </trkpt>
      <trkpt lat="48.43644" lon="2.6241">
        <ele>77.331</ele>
        <time>2013-02-17T09:26:03Z</time>
      </trkpt>
      <trkpt lat="48.43606" lon="2.62413">
        <ele>77.527</ele>
        <time>2013-02-17T09:26:11Z</time>
      </trkpt>
      <trkpt lat="48.43581" lon="2.62417">
        <ele>78.166</ele>
        <time>2013-02-17T09:26:17Z</time>
      </trkpt>
      <trkpt lat="48.43568" lon="2.62421">
        <ele>78.514</ele>
        <time>2013-02-17T09:26:20Z</time>
      </trkpt>
      <trkpt lat="48.43564" lon="2.62421">
        <ele>78.686</ele>
        <time>2013-02-17T09:26:21Z</time>
      </trkpt>
      <trkpt lat="48.43555" lon="2.62422">
        <ele>78.911</ele>
        <time>2013-02-17T09:26:23Z</time>
      </trkpt>
      <trkpt lat="48.43542" lon="2.62424">
        <ele>79.316</ele>
        <time>2013-02-17T09:26:26Z</time>
      </trkpt>
      <trkpt lat="48.4353" lon="2.62426">
        <ele>79.682</ele>
        <time>2013-02-17T09:26:29Z</time>
      </trkpt>
      <trkpt lat="48.43502" lon="2.62427">
        <ele>80.507</ele>
        <time>2013-02-17T09:26:36Z</time>
      </trkpt>
      <trkpt lat="48.43479" lon="2.62424">
        <ele>81.415</ele>
        <time>2013-02-17T09:26:42Z</time>
      </trkpt>
      <trkpt lat="48.43462" lon="2.6242">
        <ele>82.157</ele>
        <time>2013-02-17T09:26:47Z</time>
      </trkpt>
      <trkpt lat="48.43449" lon="2.62415">
        <ele>82.831</ele>
        <time>2013-02-17T09:26:51Z</time>
      </trkpt>
      <trkpt lat="48.43432" lon="2.62408">
        <ele>83.765</ele>
        <time>2013-02-17T09:26:56Z</time>
      </trkpt>
      <trkpt lat="48.43414" lon="2.62403">
        <ele>84.608</ele>
        <time>2013-02-17T09:27:02Z</time>
      </trkpt>
      <trkpt lat="48.43391" lon="2.624">
        <ele>86.172</ele>
        <time>2013-02-17T09:27:10Z</time>
      </trkpt>
      <trkpt lat="48.4338" lon="2.62399">
        <ele>87.144</ele>
        <time>2013-02-17T09:27:14Z</time>
      </trkpt>
      <trkpt lat="48.43366" lon="2.62397">
        <ele>89.082</ele>
        <time>2013-02-17T09:27:20Z</time>
      </trkpt>
      <trkpt lat="48.43355" lon="2.62398">
        <ele>90.339</ele>
        <time>2013-02-17T09:27:25Z</time>
      </trkpt>
      <trkpt lat="48.43341" lon="2.624">
        <ele>92.663</ele>
        <time>2013-02-17T09:27:32Z</time>
      </trkpt>
      <trkpt lat="48.4333" lon="2.62409">
        <ele>94.606</ele>
        <time>2013-02-17T09:27:38Z</time>
      </trkpt>
      <trkpt lat="48.43322" lon="2.62413">
        <ele>96.105</ele>
        <time>2013-02-17T09:27:42Z</time>
      </trkpt>
      <trkpt lat="48.43319" lon="2.62415">
        <ele>96.881</ele>
        <time>2013-02-17T09:27:44Z</time>
      </trkpt>
      <trkpt lat="48.43306" lon="2.62416">
        <ele>98.508</ele>
        <time>2013-02-17T09:27:50Z</time>
      </trkpt>
      <trkpt lat="48.43299" lon="2.62417">
        <ele>99.495</ele>
        <time>2013-02-17T09:27:53Z</time>
      </trkpt>
      <trkpt lat="48.43289" lon="2.62414">
        <ele>101.372</ele>
        <time>2013-02-17T09:27:59Z</time>
      </trkpt>
      <trkpt lat="48.43283" lon="2.6241">
        <ele>102.605</ele>
        <time>2013-02-17T09:28:03Z</time>
      </trkpt>
      <trkpt lat="48.43278" lon="2.62405">
        <ele>103.514</ele>
        <time>2013-02-17T09:28:06Z</time>
      </trkpt>
      <trkpt lat="48.43276" lon="2.62404">
        <ele>103.783</ele>
        <time>2013-02-17T09:28:07Z</time>
      </trkpt>
      <trkpt lat="48.43269" lon="2.62396">
        <ele>104.899</ele>
        <time>2013-02-17T09:28:12Z</time>
      </trkpt>
      <trkpt lat="48.4326" lon="2.62385">
        <ele>105.825</ele>
        <time>2013-02-17T09:28:18Z</time>
      </trkpt>
      <trkpt lat="48.43252" lon="2.62375">
        <ele>106.79</ele>
        <time>2013-02-17T09:28:24Z</time>
      </trkpt>
      <trkpt lat="48.43244" lon="2.62366">
        <ele>107.142</ele>
        <time>2013-02-17T09:28:29Z</time>
      </trkpt>
      <trkpt lat="48.4324" lon="2.62359">
        <ele>107.505</ele>
        <time>2013-02-17T09:28:34Z</time>
      </trkpt>
      <trkpt lat="48.43238" lon="2.62341">
        <ele>108.794</ele>
        <time>2013-02-17T09:28:43Z</time>
      </trkpt>
      <trkpt lat="48.43239" lon="2.62328">
        <ele>109.78</ele>
        <time>2013-02-17T09:28:49Z</time>
      </trkpt>
      <trkpt lat="48.43214" lon="2.62305">
        <ele>111.175</ele>
        <time>2013-02-17T09:28:56Z</time>
      </trkpt>
      <trkpt lat="48.43201" lon="2.62291">
        <ele>113.224</ele>
        <time>2013-02-17T09:29:03Z</time>
      </trkpt>
      <trkpt lat="48.43189" lon="2.62277">
        <ele>115.518</ele>
        <time>2013-02-17T09:29:10Z</time>
      </trkpt>
      <trkpt lat="48.43176" lon="2.62273">
        <ele>117.644</ele>
        <time>2013-02-17T09:29:15Z</time>
      </trkpt>
      <trkpt lat="48.43166" lon="2.62273">
        <ele>119.84</ele>
        <time>2013-02-17T09:29:20Z</time>
      </trkpt>
      <trkpt lat="48.43155" lon="2.6227">
        <ele>122.004</ele>
        <time>2013-02-17T09:29:26Z</time>
      </trkpt>
      <trkpt lat="48.43152" lon="2.62267">
        <ele>122.488</ele>
        <time>2013-02-17T09:29:28Z</time>
      </trkpt>
      <trkpt lat="48.43149" lon="2.62265">
        <ele>122.872</ele>
        <time>2013-02-17T09:29:30Z</time>
      </trkpt>
      <trkpt lat="48.43141" lon="2.62257">
        <ele>123.735</ele>
        <time>2013-02-17T09:29:38Z</time>
      </trkpt>
      <trkpt lat="48.43141" lon="2.62256">
        <ele>123.812</ele>
        <time>2013-02-17T09:29:39Z</time>
      </trkpt>
      <trkpt lat="48.4313" lon="2.62246">
        <ele>124.414</ele>
        <time>2013-02-17T09:29:49Z</time>
      </trkpt>
      <trkpt lat="48.43128" lon="2.62244">
        <ele>124.59</ele>
        <time>2013-02-17T09:29:51Z</time>
      </trkpt>
      <trkpt lat="48.43125" lon="2.6224">
        <ele>124.85</ele>
        <time>2013-02-17T09:29:54Z</time>
      </trkpt>
      <trkpt lat="48.43116" lon="2.62233">
        <ele>125.112</ele>
        <time>2013-02-17T09:30:00Z</time>
      </trkpt>
      <trkpt lat="48.43106" lon="2.62223">
        <ele>125.311</ele>
        <time>2013-02-17T09:30:07Z</time>
      </trkpt>
      <trkpt lat="48.43097" lon="2.62215">
        <ele>125.505</ele>
        <time>2013-02-17T09:30:12Z</time>
      </trkpt>
      <trkpt lat="48.43093" lon="2.6221">
        <ele>125.563</ele>
        <time>2013-02-17T09:30:16Z</time>
      </trkpt>
      <trkpt lat="48.43085" lon="2.62202">
        <ele>125.566</ele>
        <time>2013-02-17T09:30:23Z</time>
      </trkpt>
      <trkpt lat="48.43075" lon="2.6219">
        <ele>125.63</ele>
        <time>2013-02-17T09:30:29Z</time>
      </trkpt>
      <trkpt lat="48.43057" lon="2.62174">
        <ele>125.713</ele>
        <time>2013-02-17T09:30:36Z</time>
      </trkpt>
      <trkpt lat="48.43037" lon="2.62155">
        <ele>125.749</ele>
        <time>2013-02-17T09:30:43Z</time>
      </trkpt>
      <trkpt lat="48.43014" lon="2.62133">
        <ele>125.682</ele>
        <time>2013-02-17T09:30:50Z</time>
      </trkpt>
      <trkpt lat="48.42997" lon="2.62117">
        <ele>125.564</ele>
        <time>2013-02-17T09:30:55Z</time>
      </trkpt>
      <trkpt lat="48.42977" lon="2.62098">
        <ele>125.831</ele>
        <time>2013-02-17T09:31:01Z</time>
      </trkpt>
      <trkpt lat="48.42954" lon="2.62075">
        <ele>125.976</ele>
        <time>2013-02-17T09:31:08Z</time>
      </trkpt>
      <trkpt lat="48.42935" lon="2.62056">
        <ele>125.982</ele>
        <time>2013-02-17T09:31:14Z</time>
      </trkpt>
      <trkpt lat="48.42915" lon="2.62037">
        <ele>125.788</ele>
        <time>2013-02-17T09:31:21Z</time>
      </trkpt>
      <trkpt lat="48.42909" lon="2.6203">
        <ele>125.825</ele>
        <time>2013-02-17T09:31:26Z</time>
      </trkpt>
      <trkpt lat="48.42906" lon="2.62028">
        <ele>125.931</ele>
        <time>2013-02-17T09:31:28Z</time>
      </trkpt>
      <trkpt lat="48.42915" lon="2.61979">
        <ele>126.285</ele>
        <time>2013-02-17T09:31:34Z</time>
      </trkpt>
      <trkpt lat="48.42922" lon="2.61927">
        <ele>126.332</ele>
        <time>2013-02-17T09:31:40Z</time>
      </trkpt>
      <trkpt lat="48.42928" lon="2.6188">
        <ele>126.293</ele>
        <time>2013-02-17T09:31:46Z</time>
      </trkpt>
      <trkpt lat="48.42934" lon="2.6183">
        <ele>125.764</ele>
        <time>2013-02-17T09:31:54Z</time>
      </trkpt>
      <trkpt lat="48.42936" lon="2.61815">
        <ele>125.333</ele>
        <time>2013-02-17T09:31:59Z</time>
      </trkpt>
      <trkpt lat="48.42938" lon="2.61801">
        <ele>125.113</ele>
        <time>2013-02-17T09:32:04Z</time>
      </trkpt>
      <trkpt lat="48.4294" lon="2.61786">
        <ele>125.044</ele>
        <time>2013-02-17T09:32:07Z</time>
      </trkpt>
      <trkpt lat="48.42942" lon="2.61767">
        <ele>125.037</ele>
        <time>2013-02-17T09:32:10Z</time>
      </trkpt>
      <trkpt lat="48.42943" lon="2.6176">
        <ele>124.99</ele>
        <time>2013-02-17T09:32:11Z</time>
      </trkpt>
      <trkpt lat="48.42945" lon="2.61747">
        <ele>124.969</ele>
        <time>2013-02-17T09:32:13Z</time>
      </trkpt>
      <trkpt lat="48.42949" lon="2.61714">
        <ele>124.874</ele>
        <time>2013-02-17T09:32:18Z</time>
      </trkpt>
      <trkpt lat="48.42955" lon="2.61666">
        <ele>124.862</ele>
        <time>2013-02-17T09:32:24Z</time>
      </trkpt>
      <trkpt lat="48.42956" lon="2.61658">
        <ele>124.816</ele>
        <time>2013-02-17T09:32:25Z</time>
      </trkpt>
      <trkpt lat="48.4296" lon="2.61626">
        <ele>124.791</ele>
        <time>2013-02-17T09:32:29Z</time>
      </trkpt>
      <trkpt lat="48.42965" lon="2.61584">
        <ele>124.685</ele>
        <time>2013-02-17T09:32:36Z</time>
      </trkpt>
      <trkpt lat="48.42974" lon="2.61512">
        <ele>124.015</ele>
        <time>2013-02-17T09:32:43Z</time>
      </trkpt>
      <trkpt lat="48.42976" lon="2.61496">
        <ele>123.797</ele>
        <time>2013-02-17T09:32:45Z</time>
      </trkpt>
      <trkpt lat="48.42978" lon="2.61481">
        <ele>123.555</ele>
        <time>2013-02-17T09:32:47Z</time>
      </trkpt>
      <trkpt lat="48.42979" lon="2.61475">
        <ele>123.392</ele>
        <time>2013-02-17T09:32:48Z</time>
      </trkpt>
      <trkpt lat="48.42984" lon="2.61436">
        <ele>123.054</ele>
        <time>2013-02-17T09:32:54Z</time>
      </trkpt>
      <trkpt lat="48.4299" lon="2.6139">
        <ele>122.889</ele>
        <time>2013-02-17T09:33:01Z</time>
      </trkpt>
      <trkpt lat="48.42992" lon="2.61376">
        <ele>122.843</ele>
        <time>2013-02-17T09:33:03Z</time>
      </trkpt>
      <trkpt lat="48.43" lon="2.61313">
        <ele>122.726</ele>
        <time>2013-02-17T09:33:12Z</time>
      </trkpt>
      <trkpt lat="48.43008" lon="2.61251">
        <ele>122.179</ele>
        <time>2013-02-17T09:33:21Z</time>
      </trkpt>
      <trkpt lat="48.43012" lon="2.61217">
        <ele>121.852</ele>
        <time>2013-02-17T09:33:26Z</time>
      </trkpt>
      <trkpt lat="48.43019" lon="2.61183">
        <ele>121.678</ele>
        <time>2013-02-17T09:33:31Z</time>
      </trkpt>
      <trkpt lat="48.43021" lon="2.61168">
        <ele>121.559</ele>
        <time>2013-02-17T09:33:33Z</time>
      </trkpt>
      <trkpt lat="48.43024" lon="2.61145">
        <ele>121.393</ele>
        <time>2013-02-17T09:33:37Z</time>
      </trkpt>
      <trkpt lat="48.43025" lon="2.6114">
        <ele>121.12</ele>
        <time>2013-02-17T09:33:41Z</time>
      </trkpt>
      <trkpt lat="48.43061" lon="2.61106">
        <ele>120.626</ele>
        <time>2013-02-17T09:33:48Z</time>
      </trkpt>
      <trkpt lat="48.43084" lon="2.61084">
        <ele>120.329</ele>
        <time>2013-02-17T09:33:54Z</time>
      </trkpt>
      <trkpt lat="48.4311" lon="2.61061">
        <ele>120.01</ele>
        <time>2013-02-17T09:34:01Z</time>
      </trkpt>
      <trkpt lat="48.43134" lon="2.61039">
        <ele>119.569</ele>
        <time>2013-02-17T09:34:07Z</time>
      </trkpt>
      <trkpt lat="48.43169" lon="2.61003">
        <ele>118.525</ele>
        <time>2013-02-17T09:34:15Z</time>
      </trkpt>
      <trkpt lat="48.43192" lon="2.60981">
        <ele>117.476</ele>
        <time>2013-02-17T09:34:20Z</time>
      </trkpt>
      <trkpt lat="48.43215" lon="2.60943">
        <ele>115.998</ele>
        <time>2013-02-17T09:34:26Z</time>
      </trkpt>
      <trkpt lat="48.43242" lon="2.60887">
        <ele>114.025</ele>
        <time>2013-02-17T09:34:33Z</time>
      </trkpt>
      <trkpt lat="48.43261" lon="2.6085">
        <ele>112.078</ele>
        <time>2013-02-17T09:34:37Z</time>
      </trkpt>
      <trkpt lat="48.43273" lon="2.6081">
        <ele>109.103</ele>
        <time>2013-02-17T09:34:41Z</time>
      </trkpt>
      <trkpt lat="48.43274" lon="2.60773">
        <ele>106.981</ele>
        <time>2013-02-17T09:34:44Z</time>
      </trkpt>
      <trkpt lat="48.4328" lon="2.60699">
        <ele>103.429</ele>
        <time>2013-02-17T09:34:50Z</time>
      </trkpt>
      <trkpt lat="48.43278" lon="2.60653">
        <ele>101.441</ele>
        <time>2013-02-17T09:34:54Z</time>
      </trkpt>
      <trkpt lat="48.43256" lon="2.60556">
        <ele>97.987</ele>
        <time>2013-02-17T09:35:03Z</time>
      </trkpt>
      <trkpt lat="48.43243" lon="2.60514">
        <ele>96.449</ele>
        <time>2013-02-17T09:35:07Z</time>
      </trkpt>
      <trkpt lat="48.43239" lon="2.60491">
        <ele>95.78</ele>
        <time>2013-02-17T09:35:09Z</time>
      </trkpt>
      <trkpt lat="48.43239" lon="2.60459">
        <ele>94.791</ele>
        <time>2013-02-17T09:35:12Z</time>
      </trkpt>
      <trkpt lat="48.43243" lon="2.60417">
        <ele>93.729</ele>
        <time>2013-02-17T09:35:16Z</time>
      </trkpt>
      <trkpt lat="48.43243" lon="2.60417">
        <ele>93.639</ele>
        <time>2013-02-17T09:35:18Z</time>
      </trkpt>
      <trkpt lat="48.4319" lon="2.60424">
        <ele>94.425</ele>
        <time>2013-02-17T09:35:25Z</time>
      </trkpt>
      <trkpt lat="48.43165" lon="2.60418">
        <ele>95.213</ele>
        <time>2013-02-17T09:35:32Z</time>
      </trkpt>
      <trkpt lat="48.43147" lon="2.60414">
        <ele>97.684</ele>
        <time>2013-02-17T09:35:39Z</time>
      </trkpt>
      <trkpt lat="48.43131" lon="2.60412">
        <ele>100.946</ele>
        <time>2013-02-17T09:35:46Z</time>
      </trkpt>
      <trkpt lat="48.43125" lon="2.60411">
        <ele>102.466</ele>
        <time>2013-02-17T09:35:50Z</time>
      </trkpt>
      <trkpt lat="48.4312" lon="2.6041">
        <ele>103.918</ele>
        <time>2013-02-17T09:35:53Z</time>
      </trkpt>
      <trkpt lat="48.4311" lon="2.60409">
        <ele>106.123</ele>
        <time>2013-02-17T09:35:59Z</time>
      </trkpt>
      <trkpt lat="48.43094" lon="2.60407">
        <ele>108.264</ele>
        <time>2013-02-17T09:36:07Z</time>
      </trkpt>
      <trkpt lat="48.4308" lon="2.60405">
        <ele>109.477</ele>
        <time>2013-02-17T09:36:14Z</time>
      </trkpt>
      <trkpt lat="48.43066" lon="2.60405">
        <ele>111.03</ele>
        <time>2013-02-17T09:36:21Z</time>
      </trkpt>
      <trkpt lat="48.43061" lon="2.60406">
        <ele>111.509</ele>
        <time>2013-02-17T09:36:23Z</time>
      </trkpt>
      <trkpt lat="48.43059" lon="2.60407">
        <ele>111.715</ele>
        <time>2013-02-17T09:36:24Z</time>
      </trkpt>
      <trkpt lat="48.43038" lon="2.60414">
        <ele>113.198</ele>
        <time>2013-02-17T09:36:33Z</time>
      </trkpt>
      <trkpt lat="48.43024" lon="2.60421">
        <ele>113.763</ele>
        <time>2013-02-17T09:36:39Z</time>
      </trkpt>
      <trkpt lat="48.43019" lon="2.60424">
        <ele>113.99</ele>
        <time>2013-02-17T09:36:41Z</time>
      </trkpt>
      <trkpt lat="48.42998" lon="2.60434">
        <ele>114.099</ele>
        <time>2013-02-17T09:36:48Z</time>
      </trkpt>
      <trkpt lat="48.42972" lon="2.60446">
        <ele>114.354</ele>
        <time>2013-02-17T09:36:56Z</time>
      </trkpt>
      <trkpt lat="48.42938" lon="2.60464">
        <ele>114.139</ele>
        <time>2013-02-17T09:37:05Z</time>
      </trkpt>
      <trkpt lat="48.42903" lon="2.60484">
        <ele>114.899</ele>
        <time>2013-02-17T09:37:14Z</time>
      </trkpt>
      <trkpt lat="48.42877" lon="2.60499">
        <ele>115.526</ele>
        <time>2013-02-17T09:37:21Z</time>
      </trkpt>
      <trkpt lat="48.42849" lon="2.6051">
        <ele>116.803</ele>
        <time>2013-02-17T09:37:29Z</time>
      </trkpt>
      <trkpt lat="48.4284" lon="2.60513">
        <ele>117.656</ele>
        <time>2013-02-17T09:37:34Z</time>
      </trkpt>
      <trkpt lat="48.4282" lon="2.60526">
        <ele>118.469</ele>
        <time>2013-02-17T09:37:39Z</time>
      </trkpt>
      <trkpt lat="48.42809" lon="2.60532">
        <ele>118.799</ele>
        <time>2013-02-17T09:37:42Z</time>
      </trkpt>
      <trkpt lat="48.42778" lon="2.60552">
        <ele>119.162</ele>
        <time>2013-02-17T09:37:51Z</time>
      </trkpt>
      <trkpt lat="48.42775" lon="2.60553">
        <ele>119.173</ele>
        <time>2013-02-17T09:37:52Z</time>
      </trkpt>
      <trkpt lat="48.42777" lon="2.60587">
        <ele>119.366</ele>
        <time>2013-02-17T09:37:59Z</time>
      </trkpt>
      <trkpt lat="48.42783" lon="2.60634">
        <ele>119.745</ele>
        <time>2013-02-17T09:38:07Z</time>
      </trkpt>
      <trkpt lat="48.4279" lon="2.60683">
        <ele>120.557</ele>
        <time>2013-02-17T09:38:15Z</time>
      </trkpt>
      <trkpt lat="48.42797" lon="2.60728">
        <ele>120.715</ele>
        <time>2013-02-17T09:38:22Z</time>
      </trkpt>
      <trkpt lat="48.42802" lon="2.60762">
        <ele>120.795</ele>
        <time>2013-02-17T09:38:27Z</time>
      </trkpt>
      <trkpt lat="48.42805" lon="2.6079">
        <ele>120.848</ele>
        <time>2013-02-17T09:38:31Z</time>
      </trkpt>
      <trkpt lat="48.42808" lon="2.60819">
        <ele>121.062</ele>
        <time>2013-02-17T09:38:35Z</time>
      </trkpt>
      <trkpt lat="48.42808" lon="2.60827">
        <ele>121.091</ele>
        <time>2013-02-17T09:38:36Z</time>
      </trkpt>
      <trkpt lat="48.42806" lon="2.60866">
        <ele>120.996</ele>
        <time>2013-02-17T09:38:41Z</time>
      </trkpt>
      <trkpt lat="48.42795" lon="2.60913">
        <ele>120.535</ele>
        <time>2013-02-17T09:38:47Z</time>
      </trkpt>
      <trkpt lat="48.42791" lon="2.60927">
        <ele>120.394</ele>
        <time>2013-02-17T09:38:49Z</time>
      </trkpt>
      <trkpt lat="48.42779" lon="2.60952">
        <ele>120.15</ele>
        <time>2013-02-17T09:38:53Z</time>
      </trkpt>
      <trkpt lat="48.42762" lon="2.60995">
        <ele>118.9</ele>
        <time>2013-02-17T09:38:59Z</time>
      </trkpt>
      <trkpt lat="48.4276" lon="2.61016">
        <ele>117.894</ele>
        <time>2013-02-17T09:39:01Z</time>
      </trkpt>
      <trkpt lat="48.42759" lon="2.61061">
        <ele>115.689</ele>
        <time>2013-02-17T09:39:05Z</time>
      </trkpt>
      <trkpt lat="48.42756" lon="2.61114">
        <ele>114.297</ele>
        <time>2013-02-17T09:39:10Z</time>
      </trkpt>
      <trkpt lat="48.42747" lon="2.61179">
        <ele>112.607</ele>
        <time>2013-02-17T09:39:17Z</time>
      </trkpt>
      <trkpt lat="48.4274" lon="2.61208">
        <ele>111.887</ele>
        <time>2013-02-17T09:39:20Z</time>
      </trkpt>
      <trkpt lat="48.42714" lon="2.61303">
        <ele>107.329</ele>
        <time>2013-02-17T09:39:28Z</time>
      </trkpt>
      <trkpt lat="48.42706" lon="2.61323">
        <ele>106.201</ele>
        <time>2013-02-17T09:39:30Z</time>
      </trkpt>
      <trkpt lat="48.42694" lon="2.61349">
        <ele>103.043</ele>
        <time>2013-02-17T09:39:34Z</time>
      </trkpt>
      <trkpt lat="48.42675" lon="2.61336">
        <ele>102.337</ele>
        <time>2013-02-17T09:39:36Z</time>
      </trkpt>
      <trkpt lat="48.42641" lon="2.61338">
        <ele>98.577</ele>
        <time>2013-02-17T09:39:40Z</time>
      </trkpt>
      <trkpt lat="48.42597" lon="2.61339">
        <ele>94.063</ele>
        <time>2013-02-17T09:39:45Z</time>
      </trkpt>
      <trkpt lat="48.42548" lon="2.61337">
        <ele>90.71</ele>
        <time>2013-02-17T09:39:51Z</time>
      </trkpt>
      <trkpt lat="48.42512" lon="2.61322">
        <ele>88.695</ele>
        <time>2013-02-17T09:39:56Z</time>
      </trkpt>
      <trkpt lat="48.42487" lon="2.61301">
        <ele>86.547</ele>
        <time>2013-02-17T09:40:00Z</time>
      </trkpt>
      <trkpt lat="48.42451" lon="2.61232">
        <ele>83.993</ele>
        <time>2013-02-17T09:40:08Z</time>
      </trkpt>
      <trkpt lat="48.42442" lon="2.61216">
        <ele>83.559</ele>
        <time>2013-02-17T09:40:10Z</time>
      </trkpt>
      <trkpt lat="48.42429" lon="2.61189">
        <ele>82.425</ele>
        <time>2013-02-17T09:40:14Z</time>
      </trkpt>
      <trkpt lat="48.42422" lon="2.61174">
        <ele>81.796</ele>
        <time>2013-02-17T09:40:17Z</time>
      </trkpt>
      <trkpt lat="48.42412" lon="2.61255">
        <ele>81.473</ele>
        <time>2013-02-17T09:40:25Z</time>
      </trkpt>
      <trkpt lat="48.42407" lon="2.61293">
        <ele>81.601</ele>
        <time>2013-02-17T09:40:31Z</time>
      </trkpt>
      <trkpt lat="48.42402" lon="2.61341">
        <ele>82.078</ele>
        <time>2013-02-17T09:40:39Z</time>
      </trkpt>
      <trkpt lat="48.42398" lon="2.61388">
        <ele>82.499</ele>
        <time>2013-02-17T09:40:46Z</time>
      </trkpt>
      <trkpt lat="48.42394" lon="2.6143">
        <ele>82.855</ele>
        <time>2013-02-17T09:40:53Z</time>
      </trkpt>
      <trkpt lat="48.4239" lon="2.61479">
        <ele>83.19</ele>
        <time>2013-02-17T09:41:01Z</time>
      </trkpt>
      <trkpt lat="48.42387" lon="2.61496">
        <ele>83.309</ele>
        <time>2013-02-17T09:41:04Z</time>
      </trkpt>
      <trkpt lat="48.42378" lon="2.61507">
        <ele>83.219</ele>
        <time>2013-02-17T09:41:08Z</time>
      </trkpt>
      <trkpt lat="48.42375" lon="2.61503">
        <ele>83.108</ele>
        <time>2013-02-17T09:41:09Z</time>
      </trkpt>
      <trkpt lat="48.42345" lon="2.61475">
        <ele>82.64</ele>
        <time>2013-02-17T09:41:16Z</time>
      </trkpt>
      <trkpt lat="48.42313" lon="2.61444">
        <ele>81.886</ele>
        <time>2013-02-17T09:41:23Z</time>
      </trkpt>
      <trkpt lat="48.42281" lon="2.6141">
        <ele>80.981</ele>
        <time>2013-02-17T09:41:30Z</time>
      </trkpt>
      <trkpt lat="48.42257" lon="2.61386">
        <ele>80.135</ele>
        <time>2013-02-17T09:41:35Z</time>
      </trkpt>
      <trkpt lat="48.42221" lon="2.61351">
        <ele>79.465</ele>
        <time>2013-02-17T09:41:42Z</time>
      </trkpt>
      <trkpt lat="48.42205" lon="2.61335">
        <ele>79.014</ele>
        <time>2013-02-17T09:41:45Z</time>
      </trkpt>
      <trkpt lat="48.42173" lon="2.61303">
        <ele>77.815</ele>
        <time>2013-02-17T09:41:51Z</time>
      </trkpt>
      <trkpt lat="48.42129" lon="2.61261">
        <ele>77.002</ele>
        <time>2013-02-17T09:41:59Z</time>
      </trkpt>
      <trkpt lat="48.42108" lon="2.6124">
        <ele>76.733</ele>
        <time>2013-02-17T09:42:03Z</time>
      </trkpt>
      <trkpt lat="48.42088" lon="2.61223">
        <ele>76.306</ele>
        <time>2013-02-17T09:42:08Z</time>
      </trkpt>
      <trkpt lat="48.4207" lon="2.61204">
        <ele>75.75</ele>
        <time>2013-02-17T09:42:11Z</time>
      </trkpt>
      <trkpt lat="48.4207" lon="2.61204">
        <ele>75.486</ele>
        <time>2013-02-17T09:42:13Z</time>
      </trkpt>
      <trkpt lat="48.42045" lon="2.6118">
        <ele>75.215</ele>
        <time>2013-02-17T09:42:20Z</time>
      </trkpt>
      <trkpt lat="48.42" lon="2.61135">
        <ele>74.751</ele>
        <time>2013-02-17T09:42:30Z</time>
      </trkpt>
      <trkpt lat="48.41955" lon="2.61089">
        <ele>74.789</ele>
        <time>2013-02-17T09:42:40Z</time>
      </trkpt>
      <trkpt lat="48.41918" lon="2.61054">
        <ele>74.87</ele>
        <time>2013-02-17T09:42:49Z</time>
      </trkpt>
      <trkpt lat="48.4189" lon="2.61026">
        <ele>74.88</ele>
        <time>2013-02-17T09:42:56Z</time>
      </trkpt>
      <trkpt lat="48.4186" lon="2.60997">
        <ele>74.648</ele>
        <time>2013-02-17T09:43:03Z</time>
      </trkpt>
      <trkpt lat="48.41806" lon="2.60943">
        <ele>74.45</ele>
        <time>2013-02-17T09:43:15Z</time>
      </trkpt>
      <trkpt lat="48.41751" lon="2.60887">
        <ele>74.177</ele>
        <time>2013-02-17T09:43:27Z</time>
      </trkpt>
      <trkpt lat="48.41729" lon="2.60865">
        <ele>73.835</ele>
        <time>2013-02-17T09:43:32Z</time>
      </trkpt>
      <trkpt lat="48.41704" lon="2.60841">
        <ele>73.562</ele>
        <time>2013-02-17T09:43:38Z</time>
      </trkpt>
      <trkpt lat="48.41701" lon="2.60839">
        <ele>73.489</ele>
        <time>2013-02-17T09:43:41Z</time>
      </trkpt>
      <trkpt lat="48.41698" lon="2.60836">
        <ele>73.296</ele>
        <time>2013-02-17T09:43:46Z</time>
      </trkpt>
      <trkpt lat="48.41696" lon="2.60834">
        <ele>73.361</ele>
        <time>2013-02-17T09:43:47Z</time>
      </trkpt>
      <trkpt lat="48.4169" lon="2.60825">
        <ele>73.415</ele>
        <time>2013-02-17T09:43:51Z</time>
      </trkpt>
      <trkpt lat="48.41683" lon="2.60818">
        <ele>73.42</ele>
        <time>2013-02-17T09:43:53Z</time>
      </trkpt>
      <trkpt lat="48.41649" lon="2.60789">
        <ele>72.973</ele>
        <time>2013-02-17T09:44:01Z</time>
      </trkpt>
      <trkpt lat="48.41635" lon="2.6078">
        <ele>72.825</ele>
        <time>2013-02-17T09:44:04Z</time>
      </trkpt>
      <trkpt lat="48.41615" lon="2.60762">
        <ele>72.845</ele>
        <time>2013-02-17T09:44:09Z</time>
      </trkpt>
      <trkpt lat="48.41572" lon="2.60778">
        <ele>72.969</ele>
        <time>2013-02-17T09:44:17Z</time>
      </trkpt>
      <trkpt lat="48.41548" lon="2.60787">
        <ele>73.417</ele>
        <time>2013-02-17T09:44:22Z</time>
      </trkpt>
      <trkpt lat="48.41508" lon="2.60802">
        <ele>74.067</ele>
        <time>2013-02-17T09:44:30Z</time>
      </trkpt>
      <trkpt lat="48.41465" lon="2.60817">
        <ele>74.283</ele>
        <time>2013-02-17T09:44:38Z</time>
      </trkpt>
      <trkpt lat="48.41433" lon="2.60829">
        <ele>74.12</ele>
        <time>2013-02-17T09:44:44Z</time>
      </trkpt>
      <trkpt lat="48.41401" lon="2.60841">
        <ele>74.119</ele>
        <time>2013-02-17T09:44:50Z</time>
      </trkpt>
      <trkpt lat="48.4137" lon="2.60853">
        <ele>74.027</ele>
        <time>2013-02-17T09:44:56Z</time>
      </trkpt>
      <trkpt lat="48.41337" lon="2.60865">
        <ele>73.946</ele>
        <time>2013-02-17T09:45:02Z</time>
      </trkpt>
      <trkpt lat="48.41306" lon="2.60877">
        <ele>73.743</ele>
        <time>2013-02-17T09:45:08Z</time>
      </trkpt>
      <trkpt lat="48.413" lon="2.60879">
        <ele>73.638</ele>
        <time>2013-02-17T09:45:09Z</time>
      </trkpt>
      <trkpt lat="48.41282" lon="2.60886">
        <ele>73.343</ele>
        <time>2013-02-17T09:45:13Z</time>
      </trkpt>
      <trkpt lat="48.41275" lon="2.6085">
        <ele>73.022</ele>
        <time>2013-02-17T09:45:16Z</time>
      </trkpt>
      <trkpt lat="48.41265" lon="2.60778">
        <ele>72.014</ele>
        <time>2013-02-17T09:45:25Z</time>
      </trkpt>
      <trkpt lat="48.41255" lon="2.6071">
        <ele>71.788</ele>
        <time>2013-02-17T09:45:34Z</time>
      </trkpt>
      <trkpt lat="48.41248" lon="2.60659">
        <ele>72.476</ele>
        <time>2013-02-17T09:45:41Z</time>
      </trkpt>
      <trkpt lat="48.41245" lon="2.60638">
        <ele>72.617</ele>
        <time>2013-02-17T09:45:44Z</time>
      </trkpt>
      <trkpt lat="48.41237" lon="2.60587">
        <ele>72.27</ele>
        <time>2013-02-17T09:45:51Z</time>
      </trkpt>
      <trkpt lat="48.41229" lon="2.60541">
        <ele>72.055</ele>
        <time>2013-02-17T09:45:57Z</time>
      </trkpt>
      <trkpt lat="48.41222" lon="2.60502">
        <ele>71.698</ele>
        <time>2013-02-17T09:46:02Z</time>
      </trkpt>
      <trkpt lat="48.41216" lon="2.60464">
        <ele>71.376</ele>
        <time>2013-02-17T09:46:07Z</time>
      </trkpt>
      <trkpt lat="48.4121" lon="2.60431">
        <ele>70.921</ele>
        <time>2013-02-17T09:46:11Z</time>
      </trkpt>
      <trkpt lat="48.41201" lon="2.60375">
        <ele>69.917</ele>
        <time>2013-02-17T09:46:18Z</time>
      </trkpt>
      <trkpt lat="48.41193" lon="2.60326">
        <ele>69.85</ele>
        <time>2013-02-17T09:46:24Z</time>
      </trkpt>
      <trkpt lat="48.41184" lon="2.60269">
        <ele>69.881</ele>
        <time>2013-02-17T09:46:31Z</time>
      </trkpt>
      <trkpt lat="48.41175" lon="2.60214">
        <ele>69.883</ele>
        <time>2013-02-17T09:46:38Z</time>
      </trkpt>
      <trkpt lat="48.41164" lon="2.60144">
        <ele>69.029</ele>
        <time>2013-02-17T09:46:47Z</time>
      </trkpt>
      <trkpt lat="48.41155" lon="2.60091">
        <ele>68.992</ele>
        <time>2013-02-17T09:46:54Z</time>
      </trkpt>
      <trkpt lat="48.41145" lon="2.60022">
        <ele>68.999</ele>
        <time>2013-02-17T09:47:03Z</time>
      </trkpt>
      <trkpt lat="48.41141" lon="2.59993">
        <ele>68.566</ele>
        <time>2013-02-17T09:47:07Z</time>
      </trkpt>
      <trkpt lat="48.41133" lon="2.59939">
        <ele>68.078</ele>
        <time>2013-02-17T09:47:14Z</time>
      </trkpt>
      <trkpt lat="48.41132" lon="2.5993">
        <ele>68.071</ele>
        <time>2013-02-17T09:47:15Z</time>
      </trkpt>
      <trkpt lat="48.41129" lon="2.59917">
        <ele>67.994</ele>
        <time>2013-02-17T09:47:17Z</time>
      </trkpt>
      <trkpt lat="48.41118" lon="2.59876">
        <ele>67.92</ele>
        <time>2013-02-17T09:47:24Z</time>
      </trkpt>
      <trkpt lat="48.41117" lon="2.5987">
        <ele>67.911</ele>
        <time>2013-02-17T09:47:25Z</time>
      </trkpt>
      <trkpt lat="48.41117" lon="2.59861">
        <ele>67.997</ele>
        <time>2013-02-17T09:47:29Z</time>
      </trkpt>
      <trkpt lat="48.41095" lon="2.5981">
        <ele>67.852</ele>
        <time>2013-02-17T09:47:35Z</time>
      </trkpt>
      <trkpt lat="48.41078" lon="2.59779">
        <ele>67.066</ele>
        <time>2013-02-17T09:47:41Z</time>
      </trkpt>
      <trkpt lat="48.41066" lon="2.59757">
        <ele>67.139</ele>
        <time>2013-02-17T09:47:45Z</time>
      </trkpt>
      <trkpt lat="48.41044" lon="2.59718">
        <ele>67.269</ele>
        <time>2013-02-17T09:47:52Z</time>
      </trkpt>
      <trkpt lat="48.41024" lon="2.59683">
        <ele>67.123</ele>
        <time>2013-02-17T09:47:58Z</time>
      </trkpt>
      <trkpt lat="48.41021" lon="2.59677">
        <ele>67.213</ele>
        <time>2013-02-17T09:47:59Z</time>
      </trkpt>
      <trkpt lat="48.41003" lon="2.59645">
        <ele>67.681</ele>
        <time>2013-02-17T09:48:05Z</time>
      </trkpt>
      <trkpt lat="48.40986" lon="2.59616">
        <ele>67.678</ele>
        <time>2013-02-17T09:48:10Z</time>
      </trkpt>
      <trkpt lat="48.40965" lon="2.59582">
        <ele>67.906</ele>
        <time>2013-02-17T09:48:16Z</time>
      </trkpt>
      <trkpt lat="48.40958" lon="2.59567">
        <ele>67.93</ele>
        <time>2013-02-17T09:48:21Z</time>
      </trkpt>
      <trkpt lat="48.40964" lon="2.59482">
        <ele>67.991</ele>
        <time>2013-02-17T09:48:29Z</time>
      </trkpt>
      <trkpt lat="48.40967" lon="2.5945">
        <ele>67.918</ele>
        <time>2013-02-17T09:48:33Z</time>
      </trkpt>
      <trkpt lat="48.40973" lon="2.5939">
        <ele>68.456</ele>
        <time>2013-02-17T09:48:41Z</time>
      </trkpt>
      <trkpt lat="48.40978" lon="2.59333">
        <ele>69.026</ele>
        <time>2013-02-17T09:48:49Z</time>
      </trkpt>
      <trkpt lat="48.40982" lon="2.5928">
        <ele>68.859</ele>
        <time>2013-02-17T09:48:56Z</time>
      </trkpt>
      <trkpt lat="48.40985" lon="2.59233">
        <ele>68.266</ele>
        <time>2013-02-17T09:49:02Z</time>
      </trkpt>
      <trkpt lat="48.40988" lon="2.59187">
        <ele>68.092</ele>
        <time>2013-02-17T09:49:07Z</time>
      </trkpt>
      <trkpt lat="48.40981" lon="2.59173">
        <ele>68.24</ele>
        <time>2013-02-17T09:49:11Z</time>
      </trkpt>
      <trkpt lat="48.40978" lon="2.59172">
        <ele>68.328</ele>
        <time>2013-02-17T09:49:12Z</time>
      </trkpt>
      <trkpt lat="48.40954" lon="2.59193">
        <ele>69.145</ele>
        <time>2013-02-17T09:49:19Z</time>
      </trkpt>
      <trkpt lat="48.4093" lon="2.59202">
        <ele>70.261</ele>
        <time>2013-02-17T09:49:26Z</time>
      </trkpt>
      <trkpt lat="48.40912" lon="2.59202">
        <ele>71.452</ele>
        <time>2013-02-17T09:49:32Z</time>
      </trkpt>
      <trkpt lat="48.409" lon="2.59219">
        <ele>72.647</ele>
        <time>2013-02-17T09:49:37Z</time>
      </trkpt>
      <trkpt lat="48.40886" lon="2.59227">
        <ele>73.639</ele>
        <time>2013-02-17T09:49:42Z</time>
      </trkpt>
      <trkpt lat="48.40862" lon="2.5924">
        <ele>76.144</ele>
        <time>2013-02-17T09:49:51Z</time>
      </trkpt>
      <trkpt lat="48.40846" lon="2.59251">
        <ele>77.61</ele>
        <time>2013-02-17T09:49:57Z</time>
      </trkpt>
      <trkpt lat="48.40833" lon="2.59258">
        <ele>78.861</ele>
        <time>2013-02-17T09:50:02Z</time>
      </trkpt>
      <trkpt lat="48.40817" lon="2.59266">
        <ele>80.645</ele>
        <time>2013-02-17T09:50:09Z</time>
      </trkpt>
      <trkpt lat="48.40802" lon="2.59276">
        <ele>82.77</ele>
        <time>2013-02-17T09:50:16Z</time>
      </trkpt>
      <trkpt lat="48.40785" lon="2.5928">
        <ele>85.066</ele>
        <time>2013-02-17T09:50:24Z</time>
      </trkpt>
      <trkpt lat="48.40767" lon="2.5928">
        <ele>87.091</ele>
        <time>2013-02-17T09:50:32Z</time>
      </trkpt>
      <trkpt lat="48.40753" lon="2.59277">
        <ele>88.832</ele>
        <time>2013-02-17T09:50:38Z</time>
      </trkpt>
      <trkpt lat="48.4074" lon="2.59269">
        <ele>90.389</ele>
        <time>2013-02-17T09:50:44Z</time>
      </trkpt>
      <trkpt lat="48.40729" lon="2.59255">
        <ele>92.3</ele>
        <time>2013-02-17T09:50:51Z</time>
      </trkpt>
      <trkpt lat="48.40725" lon="2.59237">
        <ele>93.768</ele>
        <time>2013-02-17T09:50:57Z</time>
      </trkpt>
      <trkpt lat="48.40724" lon="2.59218">
        <ele>95.997</ele>
        <time>2013-02-17T09:51:04Z</time>
      </trkpt>
      <trkpt lat="48.40726" lon="2.59198">
        <ele>97.717</ele>
        <time>2013-02-17T09:51:11Z</time>
      </trkpt>
      <trkpt lat="48.40715" lon="2.59187">
        <ele>99.644</ele>
        <time>2013-02-17T09:51:18Z</time>
      </trkpt>
      <trkpt lat="48.40705" lon="2.59196">
        <ele>101.292</ele>
        <time>2013-02-17T09:51:25Z</time>
      </trkpt>
      <trkpt lat="48.40697" lon="2.59205">
        <ele>103.012</ele>
        <time>2013-02-17T09:51:31Z</time>
      </trkpt>
      <trkpt lat="48.40687" lon="2.59216">
        <ele>104.512</ele>
        <time>2013-02-17T09:51:38Z</time>
      </trkpt>
      <trkpt lat="48.40677" lon="2.59224">
        <ele>106.041</ele>
        <time>2013-02-17T09:51:45Z</time>
      </trkpt>
      <trkpt lat="48.40669" lon="2.5922">
        <ele>106.957</ele>
        <time>2013-02-17T09:51:50Z</time>
      </trkpt>
      <trkpt lat="48.40668" lon="2.59219">
        <ele>107.219</ele>
        <time>2013-02-17T09:51:51Z</time>
      </trkpt>
      <trkpt lat="48.40656" lon="2.59202">
        <ele>108.326</ele>
        <time>2013-02-17T09:51:57Z</time>
      </trkpt>
      <trkpt lat="48.40655" lon="2.59201">
        <ele>108.293</ele>
        <time>2013-02-17T09:52:02Z</time>
      </trkpt>
      <trkpt lat="48.40641" lon="2.59198">
        <ele>107.791</ele>
        <time>2013-02-17T09:52:06Z</time>
      </trkpt>
      <trkpt lat="48.40629" lon="2.59187">
        <ele>106.905</ele>
        <time>2013-02-17T09:52:09Z</time>
      </trkpt>
      <trkpt lat="48.40618" lon="2.59164">
        <ele>105.95</ele>
        <time>2013-02-17T09:52:12Z</time>
      </trkpt>
      <trkpt lat="48.40617" lon="2.59143">
        <ele>104.806</ele>
        <time>2013-02-17T09:52:14Z</time>
      </trkpt>
      <trkpt lat="48.40625" lon="2.59102">
        <ele>102.537</ele>
        <time>2013-02-17T09:52:17Z</time>
      </trkpt>
      <trkpt lat="48.4063" lon="2.59046">
        <ele>99.094</ele>
        <time>2013-02-17T09:52:21Z</time>
      </trkpt>
      <trkpt lat="48.40623" lon="2.59023">
        <ele>96.97</ele>
        <time>2013-02-17T09:52:23Z</time>
      </trkpt>
      <trkpt lat="48.40618" lon="2.59015">
        <ele>95.874</ele>
        <time>2013-02-17T09:52:24Z</time>
      </trkpt>
      <trkpt lat="48.40596" lon="2.59003">
        <ele>92.554</ele>
        <time>2013-02-17T09:52:27Z</time>
      </trkpt>
      <trkpt lat="48.40586" lon="2.59005">
        <ele>91.374</ele>
        <time>2013-02-17T09:52:28Z</time>
      </trkpt>
      <trkpt lat="48.40548" lon="2.58997">
        <ele>85.714</ele>
        <time>2013-02-17T09:52:33Z</time>
      </trkpt>
      <trkpt lat="48.40543" lon="2.58988">
        <ele>84.758</ele>
        <time>2013-02-17T09:52:34Z</time>
      </trkpt>
      <trkpt lat="48.40527" lon="2.58956">
        <ele>83.017</ele>
        <time>2013-02-17T09:52:37Z</time>
      </trkpt>
      <trkpt lat="48.40505" lon="2.58941">
        <ele>80.792</ele>
        <time>2013-02-17T09:52:40Z</time>
      </trkpt>
      <trkpt lat="48.40481" lon="2.58937">
        <ele>78.646</ele>
        <time>2013-02-17T09:52:43Z</time>
      </trkpt>
      <trkpt lat="48.40488" lon="2.58932">
        <ele>77.281</ele>
        <time>2013-02-17T09:52:45Z</time>
      </trkpt>
      <trkpt lat="48.40488" lon="2.58932">
        <ele>76.345</ele>
        <time>2013-02-17T09:52:47Z</time>
      </trkpt>
      <trkpt lat="48.40479" lon="2.59011">
        <ele>75.886</ele>
        <time>2013-02-17T09:52:55Z</time>
      </trkpt>
      <trkpt lat="48.40479" lon="2.59025">
        <ele>75.985</ele>
        <time>2013-02-17T09:52:57Z</time>
      </trkpt>
      <trkpt lat="48.40478" lon="2.59078">
        <ele>76.896</ele>
        <time>2013-02-17T09:53:05Z</time>
      </trkpt>
      <trkpt lat="48.40476" lon="2.59092">
        <ele>77.082</ele>
        <time>2013-02-17T09:53:07Z</time>
      </trkpt>
      <trkpt lat="48.40473" lon="2.5913">
        <ele>78.015</ele>
        <time>2013-02-17T09:53:13Z</time>
      </trkpt>
      <trkpt lat="48.40477" lon="2.59169">
        <ele>79.323</ele>
        <time>2013-02-17T09:53:20Z</time>
      </trkpt>
      <trkpt lat="48.40481" lon="2.59201">
        <ele>80.537</ele>
        <time>2013-02-17T09:53:26Z</time>
      </trkpt>
      <trkpt lat="48.40485" lon="2.59232">
        <ele>81.481</ele>
        <time>2013-02-17T09:53:32Z</time>
      </trkpt>
      <trkpt lat="48.40487" lon="2.59267">
        <ele>82.235</ele>
        <time>2013-02-17T09:53:39Z</time>
      </trkpt>
      <trkpt lat="48.40492" lon="2.59316">
        <ele>83.259</ele>
        <time>2013-02-17T09:53:48Z</time>
      </trkpt>
      <trkpt lat="48.40496" lon="2.59353">
        <ele>84.222</ele>
        <time>2013-02-17T09:53:55Z</time>
      </trkpt>
      <trkpt lat="48.40498" lon="2.59375">
        <ele>85.261</ele>
        <time>2013-02-17T09:54:00Z</time>
      </trkpt>
      <trkpt lat="48.40501" lon="2.59391">
        <ele>86.059</ele>
        <time>2013-02-17T09:54:04Z</time>
      </trkpt>
      <trkpt lat="48.40507" lon="2.59411">
        <ele>87.065</ele>
        <time>2013-02-17T09:54:09Z</time>
      </trkpt>
      <trkpt lat="48.4051" lon="2.59441">
        <ele>88.049</ele>
        <time>2013-02-17T09:54:16Z</time>
      </trkpt>
      <trkpt lat="48.40507" lon="2.59469">
        <ele>89.284</ele>
        <time>2013-02-17T09:54:23Z</time>
      </trkpt>
      <trkpt lat="48.40501" lon="2.59507">
        <ele>90.896</ele>
        <time>2013-02-17T09:54:32Z</time>
      </trkpt>
      <trkpt lat="48.40497" lon="2.59526">
        <ele>92.117</ele>
        <time>2013-02-17T09:54:37Z</time>
      </trkpt>
      <trkpt lat="48.40493" lon="2.59554">
        <ele>93.707</ele>
        <time>2013-02-17T09:54:44Z</time>
      </trkpt>
      <trkpt lat="48.40485" lon="2.59574">
        <ele>95.084</ele>
        <time>2013-02-17T09:54:50Z</time>
      </trkpt>
      <trkpt lat="48.40477" lon="2.59592">
        <ele>95.896</ele>
        <time>2013-02-17T09:54:55Z</time>
      </trkpt>
      <trkpt lat="48.40462" lon="2.59615">
        <ele>96.906</ele>
        <time>2013-02-17T09:55:02Z</time>
      </trkpt>
      <trkpt lat="48.40451" lon="2.59633">
        <ele>98.224</ele>
        <time>2013-02-17T09:55:08Z</time>
      </trkpt>
      <trkpt lat="48.40449" lon="2.5964">
        <ele>98.329</ele>
        <time>2013-02-17T09:55:10Z</time>
      </trkpt>
      <trkpt lat="48.40447" lon="2.59667">
        <ele>99.27</ele>
        <time>2013-02-17T09:55:17Z</time>
      </trkpt>
      <trkpt lat="48.40444" lon="2.59683">
        <ele>100.151</ele>
        <time>2013-02-17T09:55:21Z</time>
      </trkpt>
      <trkpt lat="48.40439" lon="2.5971">
        <ele>101.291</ele>
        <time>2013-02-17T09:55:27Z</time>
      </trkpt>
      <trkpt lat="48.40425" lon="2.59741">
        <ele>102.567</ele>
        <time>2013-02-17T09:55:35Z</time>
      </trkpt>
      <trkpt lat="48.40414" lon="2.59764">
        <ele>103.751</ele>
        <time>2013-02-17T09:55:42Z</time>
      </trkpt>
      <trkpt lat="48.40403" lon="2.59783">
        <ele>104.829</ele>
        <time>2013-02-17T09:55:48Z</time>
      </trkpt>
      <trkpt lat="48.40394" lon="2.59808">
        <ele>105.978</ele>
        <time>2013-02-17T09:55:55Z</time>
      </trkpt>
      <trkpt lat="48.40388" lon="2.59834">
        <ele>107.703</ele>
        <time>2013-02-17T09:56:02Z</time>
      </trkpt>
      <trkpt lat="48.40383" lon="2.59857">
        <ele>108.689</ele>
        <time>2013-02-17T09:56:08Z</time>
      </trkpt>
      <trkpt lat="48.40379" lon="2.59882">
        <ele>109.23</ele>
        <time>2013-02-17T09:56:14Z</time>
      </trkpt>
      <trkpt lat="48.40376" lon="2.59912">
        <ele>110.075</ele>
        <time>2013-02-17T09:56:21Z</time>
      </trkpt>
      <trkpt lat="48.40374" lon="2.59942">
        <ele>110.753</ele>
        <time>2013-02-17T09:56:28Z</time>
      </trkpt>
      <trkpt lat="48.40372" lon="2.59973">
        <ele>111.755</ele>
        <time>2013-02-17T09:56:35Z</time>
      </trkpt>
      <trkpt lat="48.4037" lon="2.6">
        <ele>113.108</ele>
        <time>2013-02-17T09:56:41Z</time>
      </trkpt>
      <trkpt lat="48.40367" lon="2.60035">
        <ele>113.741</ele>
        <time>2013-02-17T09:56:49Z</time>
      </trkpt>
      <trkpt lat="48.40365" lon="2.60056">
        <ele>114.694</ele>
        <time>2013-02-17T09:56:54Z</time>
      </trkpt>
      <trkpt lat="48.40365" lon="2.6008">
        <ele>115.867</ele>
        <time>2013-02-17T09:57:00Z</time>
      </trkpt>
      <trkpt lat="48.4037" lon="2.60109">
        <ele>117.523</ele>
        <time>2013-02-17T09:57:07Z</time>
      </trkpt>
      <trkpt lat="48.40378" lon="2.6014">
        <ele>118.086</ele>
        <time>2013-02-17T09:57:14Z</time>
      </trkpt>
      <trkpt lat="48.40379" lon="2.60155">
        <ele>117.907</ele>
        <time>2013-02-17T09:57:17Z</time>
      </trkpt>
      <trkpt lat="48.40379" lon="2.60187">
        <ele>117.44</ele>
        <time>2013-02-17T09:57:22Z</time>
      </trkpt>
      <trkpt lat="48.40376" lon="2.60225">
        <ele>116.798</ele>
        <time>2013-02-17T09:57:27Z</time>
      </trkpt>
      <trkpt lat="48.40373" lon="2.6026">
        <ele>116.119</ele>
        <time>2013-02-17T09:57:31Z</time>
      </trkpt>
      <trkpt lat="48.40366" lon="2.60317">
        <ele>114.957</ele>
        <time>2013-02-17T09:57:38Z</time>
      </trkpt>
      <trkpt lat="48.40357" lon="2.60353">
        <ele>114.372</ele>
        <time>2013-02-17T09:57:43Z</time>
      </trkpt>
      <trkpt lat="48.40349" lon="2.6039">
        <ele>113.62</ele>
        <time>2013-02-17T09:57:48Z</time>
      </trkpt>
      <trkpt lat="48.40344" lon="2.60419">
        <ele>113.391</ele>
        <time>2013-02-17T09:57:52Z</time>
      </trkpt>
      <trkpt lat="48.40336" lon="2.60456">
        <ele>113.626</ele>
        <time>2013-02-17T09:57:58Z</time>
      </trkpt>
      <trkpt lat="48.40327" lon="2.60492">
        <ele>114.654</ele>
        <time>2013-02-17T09:58:04Z</time>
      </trkpt>
      <trkpt lat="48.40319" lon="2.60529">
        <ele>115.268</ele>
        <time>2013-02-17T09:58:10Z</time>
      </trkpt>
      <trkpt lat="48.40305" lon="2.60578">
        <ele>115.678</ele>
        <time>2013-02-17T09:58:19Z</time>
      </trkpt>
      <trkpt lat="48.40302" lon="2.60588">
        <ele>116.276</ele>
        <time>2013-02-17T09:58:24Z</time>
      </trkpt>
      <trkpt lat="48.40322" lon="2.60633">
        <ele>116.601</ele>
        <time>2013-02-17T09:58:31Z</time>
      </trkpt>
      <trkpt lat="48.40332" lon="2.60655">
        <ele>117.08</ele>
        <time>2013-02-17T09:58:36Z</time>
      </trkpt>
      <trkpt lat="48.40342" lon="2.60669">
        <ele>117.963</ele>
        <time>2013-02-17T09:58:41Z</time>
      </trkpt>
      <trkpt lat="48.40354" lon="2.60681">
        <ele>118.501</ele>
        <time>2013-02-17T09:58:46Z</time>
      </trkpt>
      <trkpt lat="48.40366" lon="2.60692">
        <ele>118.603</ele>
        <time>2013-02-17T09:58:50Z</time>
      </trkpt>
      <trkpt lat="48.40379" lon="2.60693">
        <ele>118.132</ele>
        <time>2013-02-17T09:58:54Z</time>
      </trkpt>
      <trkpt lat="48.40379" lon="2.60689">
        <ele>118.06</ele>
        <time>2013-02-17T09:58:55Z</time>
      </trkpt>
      <trkpt lat="48.40391" lon="2.60642">
        <ele>117.846</ele>
        <time>2013-02-17T09:59:04Z</time>
      </trkpt>
      <trkpt lat="48.4041" lon="2.6059">
        <ele>118.313</ele>
        <time>2013-02-17T09:59:14Z</time>
      </trkpt>
      <trkpt lat="48.40414" lon="2.60579">
        <ele>118.374</ele>
        <time>2013-02-17T09:59:16Z</time>
      </trkpt>
      <trkpt lat="48.40436" lon="2.6052">
        <ele>118.242</ele>
        <time>2013-02-17T09:59:26Z</time>
      </trkpt>
      <trkpt lat="48.40438" lon="2.60508">
        <ele>118.168</ele>
        <time>2013-02-17T09:59:28Z</time>
      </trkpt>
      <trkpt lat="48.40452" lon="2.60475">
        <ele>118.183</ele>
        <time>2013-02-17T09:59:34Z</time>
      </trkpt>
      <trkpt lat="48.40458" lon="2.60458">
        <ele>118.238</ele>
        <time>2013-02-17T09:59:38Z</time>
      </trkpt>
      <trkpt lat="48.40467" lon="2.60431">
        <ele>118.136</ele>
        <time>2013-02-17T09:59:43Z</time>
      </trkpt>
      <trkpt lat="48.40472" lon="2.60405">
        <ele>118.499</ele>
        <time>2013-02-17T09:59:48Z</time>
      </trkpt>
      <trkpt lat="48.40471" lon="2.60366">
        <ele>119.096</ele>
        <time>2013-02-17T09:59:54Z</time>
      </trkpt>
      <trkpt lat="48.40473" lon="2.60338">
        <ele>118.795</ele>
        <time>2013-02-17T09:59:58Z</time>
      </trkpt>
      <trkpt lat="48.40473" lon="2.60318">
        <ele>118.747</ele>
        <time>2013-02-17T10:00:01Z</time>
      </trkpt>
      <trkpt lat="48.40472" lon="2.60304">
        <ele>118.58</ele>
        <time>2013-02-17T10:00:03Z</time>
      </trkpt>
      <trkpt lat="48.40473" lon="2.60269">
        <ele>118.36</ele>
        <time>2013-02-17T10:00:08Z</time>
      </trkpt>
      <trkpt lat="48.40474" lon="2.60243">
        <ele>118.432</ele>
        <time>2013-02-17T10:00:12Z</time>
      </trkpt>
      <trkpt lat="48.40482" lon="2.60229">
        <ele>118.671</ele>
        <time>2013-02-17T10:00:16Z</time>
      </trkpt>
      <trkpt lat="48.40489" lon="2.60234">
        <ele>118.95</ele>
        <time>2013-02-17T10:00:19Z</time>
      </trkpt>
      <trkpt lat="48.40509" lon="2.60249">
        <ele>119.651</ele>
        <time>2013-02-17T10:00:25Z</time>
      </trkpt>
      <trkpt lat="48.40528" lon="2.60262">
        <ele>120.091</ele>
        <time>2013-02-17T10:00:30Z</time>
      </trkpt>
      <trkpt lat="48.40557" lon="2.60282">
        <ele>120.429</ele>
        <time>2013-02-17T10:00:37Z</time>
      </trkpt>
      <trkpt lat="48.40588" lon="2.60305">
        <ele>119.838</ele>
        <time>2013-02-17T10:00:44Z</time>
      </trkpt>
      <trkpt lat="48.40597" lon="2.60312">
        <ele>119.497</ele>
        <time>2013-02-17T10:00:46Z</time>
      </trkpt>
      <trkpt lat="48.40616" lon="2.60334">
        <ele>118.844</ele>
        <time>2013-02-17T10:00:51Z</time>
      </trkpt>
      <trkpt lat="48.40639" lon="2.60361">
        <ele>118.677</ele>
        <time>2013-02-17T10:00:57Z</time>
      </trkpt>
      <trkpt lat="48.40651" lon="2.60372">
        <ele>118.758</ele>
        <time>2013-02-17T10:01:00Z</time>
      </trkpt>
      <trkpt lat="48.40678" lon="2.60399">
        <ele>118.631</ele>
        <time>2013-02-17T10:01:07Z</time>
      </trkpt>
      <trkpt lat="48.40689" lon="2.60413">
        <ele>118.645</ele>
        <time>2013-02-17T10:01:11Z</time>
      </trkpt>
      <trkpt lat="48.4069" lon="2.60439">
        <ele>118.977</ele>
        <time>2013-02-17T10:01:16Z</time>
      </trkpt>
      <trkpt lat="48.40689" lon="2.60462">
        <ele>119.234</ele>
        <time>2013-02-17T10:01:20Z</time>
      </trkpt>
      <trkpt lat="48.40688" lon="2.60487">
        <ele>119.149</ele>
        <time>2013-02-17T10:01:24Z</time>
      </trkpt>
      <trkpt lat="48.40688" lon="2.60522">
        <ele>119.301</ele>
        <time>2013-02-17T10:01:29Z</time>
      </trkpt>
      <trkpt lat="48.40685" lon="2.60564">
        <ele>119.05</ele>
        <time>2013-02-17T10:01:35Z</time>
      </trkpt>
      <trkpt lat="48.40672" lon="2.60593">
        <ele>118.718</ele>
        <time>2013-02-17T10:01:40Z</time>
      </trkpt>
      <trkpt lat="48.40666" lon="2.60608">
        <ele>118.843</ele>
        <time>2013-02-17T10:01:43Z</time>
      </trkpt>
      <trkpt lat="48.40668" lon="2.60639">
        <ele>119.032</ele>
        <time>2013-02-17T10:01:48Z</time>
      </trkpt>
      <trkpt lat="48.40671" lon="2.60655">
        <ele>118.866</ele>
        <time>2013-02-17T10:01:50Z</time>
      </trkpt>
      <trkpt lat="48.40674" lon="2.60695">
        <ele>118.16</ele>
        <time>2013-02-17T10:01:55Z</time>
      </trkpt>
      <trkpt lat="48.40674" lon="2.60702">
        <ele>117.976</ele>
        <time>2013-02-17T10:01:56Z</time>
      </trkpt>
      <trkpt lat="48.40671" lon="2.60728">
        <ele>117.759</ele>
        <time>2013-02-17T10:02:02Z</time>
      </trkpt>
      <trkpt lat="48.40677" lon="2.6079">
        <ele>117.884</ele>
        <time>2013-02-17T10:02:08Z</time>
      </trkpt>
      <trkpt lat="48.40674" lon="2.60843">
        <ele>117.769</ele>
        <time>2013-02-17T10:02:15Z</time>
      </trkpt>
      <trkpt lat="48.40674" lon="2.60858">
        <ele>117.718</ele>
        <time>2013-02-17T10:02:17Z</time>
      </trkpt>
      <trkpt lat="48.40675" lon="2.60918">
        <ele>117.258</ele>
        <time>2013-02-17T10:02:25Z</time>
      </trkpt>
      <trkpt lat="48.40676" lon="2.60942">
        <ele>117.095</ele>
        <time>2013-02-17T10:02:28Z</time>
      </trkpt>
      <trkpt lat="48.40677" lon="2.60962">
        <ele>117.017</ele>
        <time>2013-02-17T10:02:31Z</time>
      </trkpt>
      <trkpt lat="48.40677" lon="2.60976">
        <ele>116.908</ele>
        <time>2013-02-17T10:02:33Z</time>
      </trkpt>
      <trkpt lat="48.40667" lon="2.6101">
        <ele>116.701</ele>
        <time>2013-02-17T10:02:39Z</time>
      </trkpt>
      <trkpt lat="48.4066" lon="2.61028">
        <ele>116.491</ele>
        <time>2013-02-17T10:02:42Z</time>
      </trkpt>
      <trkpt lat="48.40654" lon="2.61069">
        <ele>116.558</ele>
        <time>2013-02-17T10:02:48Z</time>
      </trkpt>
      <trkpt lat="48.40655" lon="2.61083">
        <ele>116.745</ele>
        <time>2013-02-17T10:02:50Z</time>
      </trkpt>
      <trkpt lat="48.4066" lon="2.61124">
        <ele>117.318</ele>
        <time>2013-02-17T10:02:57Z</time>
      </trkpt>
      <trkpt lat="48.4066" lon="2.61143">
        <ele>117.633</ele>
        <time>2013-02-17T10:03:00Z</time>
      </trkpt>
      <trkpt lat="48.40666" lon="2.61198">
        <ele>117.518</ele>
        <time>2013-02-17T10:03:08Z</time>
      </trkpt>
      <trkpt lat="48.40668" lon="2.61212">
        <ele>117.492</ele>
        <time>2013-02-17T10:03:10Z</time>
      </trkpt>
      <trkpt lat="48.40668" lon="2.61257">
        <ele>117.349</ele>
        <time>2013-02-17T10:03:16Z</time>
      </trkpt>
      <trkpt lat="48.40664" lon="2.61289">
        <ele>117.111</ele>
        <time>2013-02-17T10:03:21Z</time>
      </trkpt>
      <trkpt lat="48.40646" lon="2.61334">
        <ele>117.511</ele>
        <time>2013-02-17T10:03:29Z</time>
      </trkpt>
      <trkpt lat="48.40641" lon="2.61344">
        <ele>117.655</ele>
        <time>2013-02-17T10:03:31Z</time>
      </trkpt>
      <trkpt lat="48.40626" lon="2.61372">
        <ele>118.435</ele>
        <time>2013-02-17T10:03:37Z</time>
      </trkpt>
      <trkpt lat="48.40614" lon="2.61398">
        <ele>118.704</ele>
        <time>2013-02-17T10:03:42Z</time>
      </trkpt>
      <trkpt lat="48.40596" lon="2.61441">
        <ele>118.591</ele>
        <time>2013-02-17T10:03:49Z</time>
      </trkpt>
      <trkpt lat="48.40589" lon="2.61461">
        <ele>118.422</ele>
        <time>2013-02-17T10:03:52Z</time>
      </trkpt>
      <trkpt lat="48.40584" lon="2.61473">
        <ele>118.314</ele>
        <time>2013-02-17T10:03:54Z</time>
      </trkpt>
      <trkpt lat="48.40577" lon="2.61496">
        <ele>117.875</ele>
        <time>2013-02-17T10:03:58Z</time>
      </trkpt>
      <trkpt lat="48.40595" lon="2.61491">
        <ele>117.783</ele>
        <time>2013-02-17T10:03:59Z</time>
      </trkpt>
      <trkpt lat="48.40612" lon="2.61491">
        <ele>116.583</ele>
        <time>2013-02-17T10:04:03Z</time>
      </trkpt>
      <trkpt lat="48.40637" lon="2.6149">
        <ele>113.553</ele>
        <time>2013-02-17T10:04:09Z</time>
      </trkpt>
      <trkpt lat="48.4066" lon="2.61487">
        <ele>110.94</ele>
        <time>2013-02-17T10:04:13Z</time>
      </trkpt>
      <trkpt lat="48.40674" lon="2.6148">
        <ele>109.736</ele>
        <time>2013-02-17T10:04:15Z</time>
      </trkpt>
      <trkpt lat="48.40697" lon="2.61461">
        <ele>108.427</ele>
        <time>2013-02-17T10:04:18Z</time>
      </trkpt>
      <trkpt lat="48.40706" lon="2.61428">
        <ele>107.086</ele>
        <time>2013-02-17T10:04:20Z</time>
      </trkpt>
      <trkpt lat="48.40727" lon="2.61332">
        <ele>103.303</ele>
        <time>2013-02-17T10:04:28Z</time>
      </trkpt>
      <trkpt lat="48.40742" lon="2.61264">
        <ele>101.138</ele>
        <time>2013-02-17T10:04:34Z</time>
      </trkpt>
      <trkpt lat="48.40749" lon="2.61193">
        <ele>98.776</ele>
        <time>2013-02-17T10:04:40Z</time>
      </trkpt>
      <trkpt lat="48.4075" lon="2.61136">
        <ele>97.512</ele>
        <time>2013-02-17T10:04:45Z</time>
      </trkpt>
      <trkpt lat="48.40751" lon="2.611">
        <ele>96.575</ele>
        <time>2013-02-17T10:04:48Z</time>
      </trkpt>
      <trkpt lat="48.40756" lon="2.61016">
        <ele>94.561</ele>
        <time>2013-02-17T10:04:55Z</time>
      </trkpt>
      <trkpt lat="48.4076" lon="2.60954">
        <ele>92.491</ele>
        <time>2013-02-17T10:05:00Z</time>
      </trkpt>
      <trkpt lat="48.40763" lon="2.60908">
        <ele>90.951</ele>
        <time>2013-02-17T10:05:04Z</time>
      </trkpt>
      <trkpt lat="48.40765" lon="2.60866">
        <ele>89.861</ele>
        <time>2013-02-17T10:05:08Z</time>
      </trkpt>
      <trkpt lat="48.40799" lon="2.60818">
        <ele>88.51</ele>
        <time>2013-02-17T10:05:14Z</time>
      </trkpt>
      <trkpt lat="48.40813" lon="2.60812">
        <ele>87.839</ele>
        <time>2013-02-17T10:05:16Z</time>
      </trkpt>
      <trkpt lat="48.40842" lon="2.60798">
        <ele>86.314</ele>
        <time>2013-02-17T10:05:20Z</time>
      </trkpt>
      <trkpt lat="48.40869" lon="2.60793">
        <ele>84.967</ele>
        <time>2013-02-17T10:05:23Z</time>
      </trkpt>
      <trkpt lat="48.40905" lon="2.60785">
        <ele>82.89</ele>
        <time>2013-02-17T10:05:27Z</time>
      </trkpt>
      <trkpt lat="48.40936" lon="2.6078">
        <ele>80</ele>
        <time>2013-02-17T10:05:31Z</time>
      </trkpt>
      <trkpt lat="48.40949" lon="2.6078">
        <ele>79.254</ele>
        <time>2013-02-17T10:05:33Z</time>
      </trkpt>
      <trkpt lat="48.40955" lon="2.6078">
        <ele>78.623</ele>
        <time>2013-02-17T10:05:34Z</time>
      </trkpt>
      <trkpt lat="48.40975" lon="2.60785">
        <ele>77.272</ele>
        <time>2013-02-17T10:05:37Z</time>
      </trkpt>
      <trkpt lat="48.41007" lon="2.60792">
        <ele>76.782</ele>
        <time>2013-02-17T10:05:42Z</time>
      </trkpt>
      <trkpt lat="48.41037" lon="2.60806">
        <ele>76.634</ele>
        <time>2013-02-17T10:05:47Z</time>
      </trkpt>
      <trkpt lat="48.41056" lon="2.60807">
        <ele>76.543</ele>
        <time>2013-02-17T10:05:50Z</time>
      </trkpt>
      <trkpt lat="48.41062" lon="2.6081">
        <ele>76.417</ele>
        <time>2013-02-17T10:05:51Z</time>
      </trkpt>
      <trkpt lat="48.41077" lon="2.60829">
        <ele>76.011</ele>
        <time>2013-02-17T10:05:54Z</time>
      </trkpt>
      <trkpt lat="48.4109" lon="2.60841">
        <ele>75.787</ele>
        <time>2013-02-17T10:05:56Z</time>
      </trkpt>
      <trkpt lat="48.41096" lon="2.60858">
        <ele>75.617</ele>
        <time>2013-02-17T10:05:58Z</time>
      </trkpt>
      <trkpt lat="48.41106" lon="2.60893">
        <ele>75.336</ele>
        <time>2013-02-17T10:06:02Z</time>
      </trkpt>
      <trkpt lat="48.41109" lon="2.60911">
        <ele>75.067</ele>
        <time>2013-02-17T10:06:04Z</time>
      </trkpt>
      <trkpt lat="48.41117" lon="2.60951">
        <ele>74.772</ele>
        <time>2013-02-17T10:06:10Z</time>
      </trkpt>
      <trkpt lat="48.41121" lon="2.61028">
        <ele>74.804</ele>
        <time>2013-02-17T10:06:18Z</time>
      </trkpt>
      <trkpt lat="48.41125" lon="2.61079">
        <ele>74.874</ele>
        <time>2013-02-17T10:06:25Z</time>
      </trkpt>
      <trkpt lat="48.41126" lon="2.61094">
        <ele>75.004</ele>
        <time>2013-02-17T10:06:27Z</time>
      </trkpt>
      <trkpt lat="48.41129" lon="2.61135">
        <ele>75.707</ele>
        <time>2013-02-17T10:06:33Z</time>
      </trkpt>
      <trkpt lat="48.41133" lon="2.61173">
        <ele>76.381</ele>
        <time>2013-02-17T10:06:39Z</time>
      </trkpt>
      <trkpt lat="48.41136" lon="2.61217">
        <ele>76.986</ele>
        <time>2013-02-17T10:06:46Z</time>
      </trkpt>
      <trkpt lat="48.4114" lon="2.61261">
        <ele>77.715</ele>
        <time>2013-02-17T10:06:53Z</time>
      </trkpt>
      <trkpt lat="48.41144" lon="2.61298">
        <ele>78.245</ele>
        <time>2013-02-17T10:06:59Z</time>
      </trkpt>
      <trkpt lat="48.41146" lon="2.61321">
        <ele>78.225</ele>
        <time>2013-02-17T10:07:02Z</time>
      </trkpt>
      <trkpt lat="48.41151" lon="2.61381">
        <ele>78.447</ele>
        <time>2013-02-17T10:07:10Z</time>
      </trkpt>
      <trkpt lat="48.41156" lon="2.61437">
        <ele>78.63</ele>
        <time>2013-02-17T10:07:18Z</time>
      </trkpt>
      <trkpt lat="48.41163" lon="2.61489">
        <ele>78.899</ele>
        <time>2013-02-17T10:07:26Z</time>
      </trkpt>
      <trkpt lat="48.41157" lon="2.61528">
        <ele>79.555</ele>
        <time>2013-02-17T10:07:32Z</time>
      </trkpt>
      <trkpt lat="48.4115" lon="2.61562">
        <ele>80.102</ele>
        <time>2013-02-17T10:07:38Z</time>
      </trkpt>
      <trkpt lat="48.41143" lon="2.61596">
        <ele>80.582</ele>
        <time>2013-02-17T10:07:44Z</time>
      </trkpt>
      <trkpt lat="48.41139" lon="2.61621">
        <ele>81.363</ele>
        <time>2013-02-17T10:07:49Z</time>
      </trkpt>
      <trkpt lat="48.41133" lon="2.61649">
        <ele>81.663</ele>
        <time>2013-02-17T10:07:53Z</time>
      </trkpt>
      <trkpt lat="48.41126" lon="2.61683">
        <ele>82.117</ele>
        <time>2013-02-17T10:07:58Z</time>
      </trkpt>
      <trkpt lat="48.41118" lon="2.61727">
        <ele>82.987</ele>
        <time>2013-02-17T10:08:05Z</time>
      </trkpt>
      <trkpt lat="48.41111" lon="2.61759">
        <ele>83.947</ele>
        <time>2013-02-17T10:08:11Z</time>
      </trkpt>
      <trkpt lat="48.41106" lon="2.61785">
        <ele>84.665</ele>
        <time>2013-02-17T10:08:16Z</time>
      </trkpt>
      <trkpt lat="48.411" lon="2.61817">
        <ele>85.755</ele>
        <time>2013-02-17T10:08:22Z</time>
      </trkpt>
      <trkpt lat="48.41095" lon="2.61847">
        <ele>87.01</ele>
        <time>2013-02-17T10:08:28Z</time>
      </trkpt>
      <trkpt lat="48.41089" lon="2.61881">
        <ele>87.769</ele>
        <time>2013-02-17T10:08:35Z</time>
      </trkpt>
      <trkpt lat="48.41082" lon="2.61921">
        <ele>88.622</ele>
        <time>2013-02-17T10:08:43Z</time>
      </trkpt>
      <trkpt lat="48.41076" lon="2.61962">
        <ele>90.678</ele>
        <time>2013-02-17T10:08:51Z</time>
      </trkpt>
      <trkpt lat="48.41072" lon="2.61999">
        <ele>91.628</ele>
        <time>2013-02-17T10:08:58Z</time>
      </trkpt>
      <trkpt lat="48.41069" lon="2.62034">
        <ele>93.136</ele>
        <time>2013-02-17T10:09:05Z</time>
      </trkpt>
      <trkpt lat="48.41066" lon="2.62069">
        <ele>94.659</ele>
        <time>2013-02-17T10:09:12Z</time>
      </trkpt>
      <trkpt lat="48.41064" lon="2.62096">
        <ele>95.806</ele>
        <time>2013-02-17T10:09:19Z</time>
      </trkpt>
      <trkpt lat="48.41062" lon="2.62117">
        <ele>96.61</ele>
        <time>2013-02-17T10:09:24Z</time>
      </trkpt>
      <trkpt lat="48.41061" lon="2.62139">
        <ele>97.747</ele>
        <time>2013-02-17T10:09:30Z</time>
      </trkpt>
      <trkpt lat="48.41061" lon="2.62148">
        <ele>98.11</ele>
        <time>2013-02-17T10:09:32Z</time>
      </trkpt>
      <trkpt lat="48.41061" lon="2.62162">
        <ele>99.597</ele>
        <time>2013-02-17T10:09:37Z</time>
      </trkpt>
      <trkpt lat="48.41061" lon="2.62186">
        <ele>101.441</ele>
        <time>2013-02-17T10:09:44Z</time>
      </trkpt>
      <trkpt lat="48.41061" lon="2.62204">
        <ele>101.92</ele>
        <time>2013-02-17T10:09:48Z</time>
      </trkpt>
      <trkpt lat="48.41061" lon="2.62229">
        <ele>103.309</ele>
        <time>2013-02-17T10:09:54Z</time>
      </trkpt>
      <trkpt lat="48.41061" lon="2.62246">
        <ele>104.212</ele>
        <time>2013-02-17T10:09:59Z</time>
      </trkpt>
      <trkpt lat="48.41061" lon="2.62264">
        <ele>105.006</ele>
        <time>2013-02-17T10:10:05Z</time>
      </trkpt>
      <trkpt lat="48.4106" lon="2.6228">
        <ele>105.729</ele>
        <time>2013-02-17T10:10:09Z</time>
      </trkpt>
      <trkpt lat="48.41059" lon="2.62299">
        <ele>106.43</ele>
        <time>2013-02-17T10:10:14Z</time>
      </trkpt>
      <trkpt lat="48.41057" lon="2.62322">
        <ele>107.266</ele>
        <time>2013-02-17T10:10:20Z</time>
      </trkpt>
      <trkpt lat="48.41056" lon="2.62337">
        <ele>107.945</ele>
        <time>2013-02-17T10:10:25Z</time>
      </trkpt>
      <trkpt lat="48.41052" lon="2.62359">
        <ele>108.414</ele>
        <time>2013-02-17T10:10:30Z</time>
      </trkpt>
      <trkpt lat="48.4105" lon="2.62363">
        <ele>108.476</ele>
        <time>2013-02-17T10:10:31Z</time>
      </trkpt>
      <trkpt lat="48.41039" lon="2.62388">
        <ele>109.235</ele>
        <time>2013-02-17T10:10:39Z</time>
      </trkpt>
      <trkpt lat="48.41031" lon="2.62406">
        <ele>110.012</ele>
        <time>2013-02-17T10:10:44Z</time>
      </trkpt>
      <trkpt lat="48.41024" lon="2.62421">
        <ele>110.64</ele>
        <time>2013-02-17T10:10:48Z</time>
      </trkpt>
      <trkpt lat="48.41014" lon="2.62445">
        <ele>111.383</ele>
        <time>2013-02-17T10:10:54Z</time>
      </trkpt>
      <trkpt lat="48.41004" lon="2.62469">
        <ele>112.205</ele>
        <time>2013-02-17T10:11:00Z</time>
      </trkpt>
      <trkpt lat="48.40995" lon="2.62488">
        <ele>112.733</ele>
        <time>2013-02-17T10:11:05Z</time>
      </trkpt>
      <trkpt lat="48.40983" lon="2.62516">
        <ele>113.982</ele>
        <time>2013-02-17T10:11:12Z</time>
      </trkpt>
      <trkpt lat="48.40973" lon="2.62546">
        <ele>115.228</ele>
        <time>2013-02-17T10:11:19Z</time>
      </trkpt>
      <trkpt lat="48.40968" lon="2.62579">
        <ele>116.018</ele>
        <time>2013-02-17T10:11:26Z</time>
      </trkpt>
      <trkpt lat="48.40963" lon="2.62615">
        <ele>116.549</ele>
        <time>2013-02-17T10:11:33Z</time>
      </trkpt>
      <trkpt lat="48.40956" lon="2.62664">
        <ele>117.211</ele>
        <time>2013-02-17T10:11:42Z</time>
      </trkpt>
      <trkpt lat="48.40957" lon="2.6271">
        <ele>117.59</ele>
        <time>2013-02-17T10:11:50Z</time>
      </trkpt>
      <trkpt lat="48.40964" lon="2.62751">
        <ele>118.039</ele>
        <time>2013-02-17T10:11:57Z</time>
      </trkpt>
      <trkpt lat="48.40973" lon="2.62801">
        <ele>118.567</ele>
        <time>2013-02-17T10:12:06Z</time>
      </trkpt>
      <trkpt lat="48.4098" lon="2.62845">
        <ele>119.487</ele>
        <time>2013-02-17T10:12:14Z</time>
      </trkpt>
      <trkpt lat="48.40986" lon="2.62876">
        <ele>120.412</ele>
        <time>2013-02-17T10:12:21Z</time>
      </trkpt>
      <trkpt lat="48.40992" lon="2.62914">
        <ele>121.164</ele>
        <time>2013-02-17T10:12:29Z</time>
      </trkpt>
      <trkpt lat="48.41" lon="2.62948">
        <ele>121.811</ele>
        <time>2013-02-17T10:12:36Z</time>
      </trkpt>
      <trkpt lat="48.41017" lon="2.6298">
        <ele>122.644</ele>
        <time>2013-02-17T10:12:44Z</time>
      </trkpt>
      <trkpt lat="48.4102" lon="2.62999">
        <ele>123.282</ele>
        <time>2013-02-17T10:12:49Z</time>
      </trkpt>
      <trkpt lat="48.4102" lon="2.6301">
        <ele>123.99</ele>
        <time>2013-02-17T10:12:54Z</time>
      </trkpt>
      <trkpt lat="48.41039" lon="2.63019">
        <ele>124.195</ele>
        <time>2013-02-17T10:12:56Z</time>
      </trkpt>
      <trkpt lat="48.41052" lon="2.63015">
        <ele>124.182</ele>
        <time>2013-02-17T10:13:00Z</time>
      </trkpt>
      <trkpt lat="48.41075" lon="2.62983">
        <ele>124.002</ele>
        <time>2013-02-17T10:13:08Z</time>
      </trkpt>
      <trkpt lat="48.411" lon="2.62949">
        <ele>124.066</ele>
        <time>2013-02-17T10:13:15Z</time>
      </trkpt>
      <trkpt lat="48.41125" lon="2.62914">
        <ele>123.924</ele>
        <time>2013-02-17T10:13:22Z</time>
      </trkpt>
      <trkpt lat="48.4114" lon="2.62894">
        <ele>123.683</ele>
        <time>2013-02-17T10:13:26Z</time>
      </trkpt>
      <trkpt lat="48.41166" lon="2.62858">
        <ele>123.311</ele>
        <time>2013-02-17T10:13:33Z</time>
      </trkpt>
      <trkpt lat="48.412" lon="2.62812">
        <ele>122.555</ele>
        <time>2013-02-17T10:13:41Z</time>
      </trkpt>
      <trkpt lat="48.41218" lon="2.62789">
        <ele>122.27</ele>
        <time>2013-02-17T10:13:45Z</time>
      </trkpt>
      <trkpt lat="48.41235" lon="2.62767">
        <ele>121.835</ele>
        <time>2013-02-17T10:13:49Z</time>
      </trkpt>
      <trkpt lat="48.41259" lon="2.62734">
        <ele>120.925</ele>
        <time>2013-02-17T10:13:55Z</time>
      </trkpt>
      <trkpt lat="48.41271" lon="2.62717">
        <ele>120.599</ele>
        <time>2013-02-17T10:13:58Z</time>
      </trkpt>
      <trkpt lat="48.41282" lon="2.62701">
        <ele>119.939</ele>
        <time>2013-02-17T10:14:02Z</time>
      </trkpt>
      <trkpt lat="48.41282" lon="2.627">
        <ele>119.365</ele>
        <time>2013-02-17T10:14:07Z</time>
      </trkpt>
      <trkpt lat="48.41309" lon="2.6274">
        <ele>119.123</ele>
        <time>2013-02-17T10:14:12Z</time>
      </trkpt>
      <trkpt lat="48.41331" lon="2.62772">
        <ele>119.221</ele>
        <time>2013-02-17T10:14:19Z</time>
      </trkpt>
      <trkpt lat="48.41347" lon="2.62795">
        <ele>119.263</ele>
        <time>2013-02-17T10:14:24Z</time>
      </trkpt>
      <trkpt lat="48.41353" lon="2.62804">
        <ele>119.095</ele>
        <time>2013-02-17T10:14:26Z</time>
      </trkpt>
      <trkpt lat="48.41378" lon="2.62841">
        <ele>118.863</ele>
        <time>2013-02-17T10:14:34Z</time>
      </trkpt>
      <trkpt lat="48.41408" lon="2.62882">
        <ele>117.756</ele>
        <time>2013-02-17T10:14:42Z</time>
      </trkpt>
      <trkpt lat="48.41426" lon="2.62907">
        <ele>116.166</ele>
        <time>2013-02-17T10:14:47Z</time>
      </trkpt>
      <trkpt lat="48.4144" lon="2.62927">
        <ele>114.91</ele>
        <time>2013-02-17T10:14:51Z</time>
      </trkpt>
      <trkpt lat="48.41453" lon="2.62944">
        <ele>112.997</ele>
        <time>2013-02-17T10:14:55Z</time>
      </trkpt>
      <trkpt lat="48.41529" lon="2.62963">
        <ele>111.665</ele>
        <time>2013-02-17T10:14:59Z</time>
      </trkpt>
      <trkpt lat="48.41471" lon="2.62968">
        <ele>111.607</ele>
        <time>2013-02-17T10:15:04Z</time>
      </trkpt>
      <trkpt lat="48.41472" lon="2.6297">
        <ele>111.584</ele>
        <time>2013-02-17T10:15:05Z</time>
      </trkpt>
      <trkpt lat="48.41482" lon="2.62984">
        <ele>110.551</ele>
        <time>2013-02-17T10:15:11Z</time>
      </trkpt>
      <trkpt lat="48.41488" lon="2.62992">
        <ele>110.076</ele>
        <time>2013-02-17T10:15:13Z</time>
      </trkpt>
      <trkpt lat="48.41509" lon="2.63021">
        <ele>108.408</ele>
        <time>2013-02-17T10:15:19Z</time>
      </trkpt>
      <trkpt lat="48.41523" lon="2.63042">
        <ele>106.062</ele>
        <time>2013-02-17T10:15:24Z</time>
      </trkpt>
      <trkpt lat="48.41534" lon="2.63055">
        <ele>105.308</ele>
        <time>2013-02-17T10:15:29Z</time>
      </trkpt>
      <trkpt lat="48.41542" lon="2.63066">
        <ele>106.962</ele>
        <time>2013-02-17T10:15:34Z</time>
      </trkpt>
      <trkpt lat="48.41543" lon="2.63068">
        <ele>107.399</ele>
        <time>2013-02-17T10:15:35Z</time>
      </trkpt>
      <trkpt lat="48.41547" lon="2.63074">
        <ele>108.774</ele>
        <time>2013-02-17T10:15:39Z</time>
      </trkpt>
      <trkpt lat="48.4155" lon="2.6308">
        <ele>110.244</ele>
        <time>2013-02-17T10:15:42Z</time>
      </trkpt>
      <trkpt lat="48.41553" lon="2.63084">
        <ele>111.543</ele>
        <time>2013-02-17T10:15:45Z</time>
      </trkpt>
      <trkpt lat="48.41554" lon="2.63086">
        <ele>111.921</ele>
        <time>2013-02-17T10:15:46Z</time>
      </trkpt>
      <trkpt lat="48.41558" lon="2.63092">
        <ele>113.072</ele>
        <time>2013-02-17T10:15:50Z</time>
      </trkpt>
      <trkpt lat="48.41566" lon="2.63103">
        <ele>114.732</ele>
        <time>2013-02-17T10:15:56Z</time>
      </trkpt>
      <trkpt lat="48.41568" lon="2.63106">
        <ele>115.253</ele>
        <time>2013-02-17T10:15:58Z</time>
      </trkpt>
      <trkpt lat="48.41574" lon="2.63114">
        <ele>116.381</ele>
        <time>2013-02-17T10:16:03Z</time>
      </trkpt>
      <trkpt lat="48.41582" lon="2.63126">
        <ele>117.012</ele>
        <time>2013-02-17T10:16:09Z</time>
      </trkpt>
      <trkpt lat="48.41592" lon="2.63141">
        <ele>118.278</ele>
        <time>2013-02-17T10:16:16Z</time>
      </trkpt>
      <trkpt lat="48.41602" lon="2.63156">
        <ele>119.303</ele>
        <time>2013-02-17T10:16:22Z</time>
      </trkpt>
      <trkpt lat="48.41612" lon="2.6317">
        <ele>120.211</ele>
        <time>2013-02-17T10:16:28Z</time>
      </trkpt>
      <trkpt lat="48.41618" lon="2.6318">
        <ele>120.625</ele>
        <time>2013-02-17T10:16:34Z</time>
      </trkpt>
      <trkpt lat="48.41619" lon="2.63181">
        <ele>120.628</ele>
        <time>2013-02-17T10:16:35Z</time>
      </trkpt>
      <trkpt lat="48.41619" lon="2.63181">
        <ele>120.813</ele>
        <time>2013-02-17T10:16:39Z</time>
      </trkpt>
      <trkpt lat="48.41619" lon="2.63181">
        <ele>120.812</ele>
        <time>2013-02-17T10:16:43Z</time>
      </trkpt>
      <trkpt lat="48.41619" lon="2.63181">
        <ele>120.739</ele>
        <time>2013-02-17T10:16:44Z</time>
      </trkpt>
      <trkpt lat="48.41619" lon="2.63181">
        <ele>120.896</ele>
        <time>2013-02-17T10:18:13Z</time>
      </trkpt>
      <trkpt lat="48.41619" lon="2.63181">
        <ele>120.901</ele>
        <time>2013-02-17T10:18:14Z</time>
      </trkpt>
      <trkpt lat="48.41635" lon="2.63152">
        <ele>121.21</ele>
        <time>2013-02-17T10:18:18Z</time>
      </trkpt>
      <trkpt lat="48.41646" lon="2.63131">
        <ele>121.73</ele>
        <time>2013-02-17T10:18:24Z</time>
      </trkpt>
      <trkpt lat="48.41659" lon="2.63106">
        <ele>122.415</ele>
        <time>2013-02-17T10:18:30Z</time>
      </trkpt>
      <trkpt lat="48.41672" lon="2.63084">
        <ele>123.083</ele>
        <time>2013-02-17T10:18:35Z</time>
      </trkpt>
      <trkpt lat="48.41688" lon="2.63052">
        <ele>123.623</ele>
        <time>2013-02-17T10:18:42Z</time>
      </trkpt>
      <trkpt lat="48.41697" lon="2.63032">
        <ele>123.631</ele>
        <time>2013-02-17T10:18:46Z</time>
      </trkpt>
      <trkpt lat="48.4171" lon="2.63006">
        <ele>123.639</ele>
        <time>2013-02-17T10:18:51Z</time>
      </trkpt>
      <trkpt lat="48.41726" lon="2.62977">
        <ele>123.844</ele>
        <time>2013-02-17T10:18:57Z</time>
      </trkpt>
      <trkpt lat="48.41743" lon="2.62946">
        <ele>124.17</ele>
        <time>2013-02-17T10:19:03Z</time>
      </trkpt>
      <trkpt lat="48.41762" lon="2.62911">
        <ele>124.229</ele>
        <time>2013-02-17T10:19:09Z</time>
      </trkpt>
      <trkpt lat="48.41784" lon="2.62869">
        <ele>123.934</ele>
        <time>2013-02-17T10:19:16Z</time>
      </trkpt>
      <trkpt lat="48.41788" lon="2.62864">
        <ele>123.873</ele>
        <time>2013-02-17T10:19:17Z</time>
      </trkpt>
      <trkpt lat="48.41801" lon="2.62845">
        <ele>123.899</ele>
        <time>2013-02-17T10:19:21Z</time>
      </trkpt>
      <trkpt lat="48.41814" lon="2.62848">
        <ele>123.877</ele>
        <time>2013-02-17T10:19:24Z</time>
      </trkpt>
      <trkpt lat="48.41823" lon="2.62853">
        <ele>123.878</ele>
        <time>2013-02-17T10:19:26Z</time>
      </trkpt>
      <trkpt lat="48.41854" lon="2.62867">
        <ele>122.992</ele>
        <time>2013-02-17T10:19:32Z</time>
      </trkpt>
      <trkpt lat="48.4186" lon="2.6287">
        <ele>122.698</ele>
        <time>2013-02-17T10:19:33Z</time>
      </trkpt>
      <trkpt lat="48.41884" lon="2.62885">
        <ele>121.487</ele>
        <time>2013-02-17T10:19:37Z</time>
      </trkpt>
      <trkpt lat="48.41895" lon="2.62899">
        <ele>120.816</ele>
        <time>2013-02-17T10:19:39Z</time>
      </trkpt>
      <trkpt lat="48.41913" lon="2.62911">
        <ele>119.092</ele>
        <time>2013-02-17T10:19:42Z</time>
      </trkpt>
      <trkpt lat="48.41936" lon="2.62909">
        <ele>116.548</ele>
        <time>2013-02-17T10:19:45Z</time>
      </trkpt>
      <trkpt lat="48.41943" lon="2.62893">
        <ele>114.38</ele>
        <time>2013-02-17T10:19:47Z</time>
      </trkpt>
      <trkpt lat="48.41955" lon="2.62872">
        <ele>111.072</ele>
        <time>2013-02-17T10:19:50Z</time>
      </trkpt>
      <trkpt lat="48.41969" lon="2.62849">
        <ele>107.703</ele>
        <time>2013-02-17T10:19:54Z</time>
      </trkpt>
      <trkpt lat="48.41979" lon="2.62852">
        <ele>106.54</ele>
        <time>2013-02-17T10:19:55Z</time>
      </trkpt>
      <trkpt lat="48.42015" lon="2.62882">
        <ele>102.093</ele>
        <time>2013-02-17T10:20:00Z</time>
      </trkpt>
      <trkpt lat="48.42041" lon="2.62911">
        <ele>99.112</ele>
        <time>2013-02-17T10:20:04Z</time>
      </trkpt>
      <trkpt lat="48.42058" lon="2.62923">
        <ele>96.461</ele>
        <time>2013-02-17T10:20:08Z</time>
      </trkpt>
      <trkpt lat="48.42047" lon="2.62975">
        <ele>95.892</ele>
        <time>2013-02-17T10:20:15Z</time>
      </trkpt>
      <trkpt lat="48.42045" lon="2.62999">
        <ele>96.253</ele>
        <time>2013-02-17T10:20:19Z</time>
      </trkpt>
      <trkpt lat="48.42043" lon="2.63028">
        <ele>96.673</ele>
        <time>2013-02-17T10:20:24Z</time>
      </trkpt>
      <trkpt lat="48.42042" lon="2.63059">
        <ele>97.315</ele>
        <time>2013-02-17T10:20:29Z</time>
      </trkpt>
      <trkpt lat="48.4204" lon="2.63091">
        <ele>97.956</ele>
        <time>2013-02-17T10:20:34Z</time>
      </trkpt>
      <trkpt lat="48.42039" lon="2.63123">
        <ele>98.927</ele>
        <time>2013-02-17T10:20:40Z</time>
      </trkpt>
      <trkpt lat="48.42038" lon="2.63158">
        <ele>99.911</ele>
        <time>2013-02-17T10:20:46Z</time>
      </trkpt>
      <trkpt lat="48.42037" lon="2.63191">
        <ele>100.977</ele>
        <time>2013-02-17T10:20:52Z</time>
      </trkpt>
      <trkpt lat="48.42036" lon="2.63224">
        <ele>102.204</ele>
        <time>2013-02-17T10:20:58Z</time>
      </trkpt>
      <trkpt lat="48.4204" lon="2.63251">
        <ele>103.056</ele>
        <time>2013-02-17T10:21:03Z</time>
      </trkpt>
      <trkpt lat="48.42045" lon="2.63279">
        <ele>104.348</ele>
        <time>2013-02-17T10:21:09Z</time>
      </trkpt>
      <trkpt lat="48.42049" lon="2.63303">
        <ele>105.675</ele>
        <time>2013-02-17T10:21:15Z</time>
      </trkpt>
      <trkpt lat="48.42052" lon="2.63324">
        <ele>107.467</ele>
        <time>2013-02-17T10:21:21Z</time>
      </trkpt>
      <trkpt lat="48.42053" lon="2.63341">
        <ele>109.137</ele>
        <time>2013-02-17T10:21:26Z</time>
      </trkpt>
      <trkpt lat="48.42052" lon="2.63362">
        <ele>111.28</ele>
        <time>2013-02-17T10:21:33Z</time>
      </trkpt>
      <trkpt lat="48.42051" lon="2.63377">
        <ele>113.067</ele>
        <time>2013-02-17T10:21:38Z</time>
      </trkpt>
      <trkpt lat="48.4205" lon="2.63393">
        <ele>114.856</ele>
        <time>2013-02-17T10:21:43Z</time>
      </trkpt>
      <trkpt lat="48.42049" lon="2.63412">
        <ele>116.41</ele>
        <time>2013-02-17T10:21:48Z</time>
      </trkpt>
      <trkpt lat="48.42048" lon="2.63429">
        <ele>117.91</ele>
        <time>2013-02-17T10:21:53Z</time>
      </trkpt>
      <trkpt lat="48.42045" lon="2.63447">
        <ele>118.914</ele>
        <time>2013-02-17T10:21:58Z</time>
      </trkpt>
      <trkpt lat="48.42042" lon="2.63467">
        <ele>120.262</ele>
        <time>2013-02-17T10:22:05Z</time>
      </trkpt>
      <trkpt lat="48.42039" lon="2.63482">
        <ele>121.318</ele>
        <time>2013-02-17T10:22:10Z</time>
      </trkpt>
      <trkpt lat="48.42037" lon="2.63496">
        <ele>121.776</ele>
        <time>2013-02-17T10:22:14Z</time>
      </trkpt>
      <trkpt lat="48.42035" lon="2.63516">
        <ele>122.351</ele>
        <time>2013-02-17T10:22:20Z</time>
      </trkpt>
      <trkpt lat="48.42032" lon="2.63545">
        <ele>122.944</ele>
        <time>2013-02-17T10:22:27Z</time>
      </trkpt>
      <trkpt lat="48.4203" lon="2.63566">
        <ele>123.303</ele>
        <time>2013-02-17T10:22:32Z</time>
      </trkpt>
      <trkpt lat="48.42026" lon="2.63593">
        <ele>123.509</ele>
        <time>2013-02-17T10:22:38Z</time>
      </trkpt>
      <trkpt lat="48.42026" lon="2.63598">
        <ele>123.574</ele>
        <time>2013-02-17T10:22:39Z</time>
      </trkpt>
      <trkpt lat="48.42023" lon="2.63626">
        <ele>123.855</ele>
        <time>2013-02-17T10:22:43Z</time>
      </trkpt>
      <trkpt lat="48.42022" lon="2.63643">
        <ele>123.912</ele>
        <time>2013-02-17T10:22:48Z</time>
      </trkpt>
      <trkpt lat="48.42021" lon="2.63674">
        <ele>124.102</ele>
        <time>2013-02-17T10:22:55Z</time>
      </trkpt>
      <trkpt lat="48.42019" lon="2.63693">
        <ele>124.289</ele>
        <time>2013-02-17T10:22:59Z</time>
      </trkpt>
      <trkpt lat="48.42018" lon="2.63711">
        <ele>124.371</ele>
        <time>2013-02-17T10:23:03Z</time>
      </trkpt>
      <trkpt lat="48.42017" lon="2.63733">
        <ele>124.473</ele>
        <time>2013-02-17T10:23:08Z</time>
      </trkpt>
      <trkpt lat="48.42016" lon="2.63745">
        <ele>124.746</ele>
        <time>2013-02-17T10:23:14Z</time>
      </trkpt>
      <trkpt lat="48.42021" lon="2.63815">
        <ele>125.247</ele>
        <time>2013-02-17T10:23:21Z</time>
      </trkpt>
      <trkpt lat="48.42023" lon="2.63848">
        <ele>125.378</ele>
        <time>2013-02-17T10:23:26Z</time>
      </trkpt>
      <trkpt lat="48.42026" lon="2.639">
        <ele>125.935</ele>
        <time>2013-02-17T10:23:34Z</time>
      </trkpt>
      <trkpt lat="48.42029" lon="2.63945">
        <ele>126.393</ele>
        <time>2013-02-17T10:23:41Z</time>
      </trkpt>
      <trkpt lat="48.42032" lon="2.63999">
        <ele>126.749</ele>
        <time>2013-02-17T10:23:49Z</time>
      </trkpt>
      <trkpt lat="48.42033" lon="2.64013">
        <ele>126.915</ele>
        <time>2013-02-17T10:23:51Z</time>
      </trkpt>
      <trkpt lat="48.42035" lon="2.64039">
        <ele>127.106</ele>
        <time>2013-02-17T10:23:55Z</time>
      </trkpt>
      <trkpt lat="48.42037" lon="2.64058">
        <ele>127.126</ele>
        <time>2013-02-17T10:23:58Z</time>
      </trkpt>
      <trkpt lat="48.4204" lon="2.64101">
        <ele>127.327</ele>
        <time>2013-02-17T10:24:05Z</time>
      </trkpt>
      <trkpt lat="48.42042" lon="2.64138">
        <ele>127.442</ele>
        <time>2013-02-17T10:24:12Z</time>
      </trkpt>
      <trkpt lat="48.42056" lon="2.64145">
        <ele>127.371</ele>
        <time>2013-02-17T10:24:15Z</time>
      </trkpt>
      <trkpt lat="48.42062" lon="2.6415">
        <ele>127.325</ele>
        <time>2013-02-17T10:24:17Z</time>
      </trkpt>
      <trkpt lat="48.42074" lon="2.6416">
        <ele>127.273</ele>
        <time>2013-02-17T10:24:20Z</time>
      </trkpt>
      <trkpt lat="48.42082" lon="2.64167">
        <ele>127.248</ele>
        <time>2013-02-17T10:24:22Z</time>
      </trkpt>
      <trkpt lat="48.42095" lon="2.64177">
        <ele>127.109</ele>
        <time>2013-02-17T10:24:25Z</time>
      </trkpt>
      <trkpt lat="48.42115" lon="2.64194">
        <ele>126.968</ele>
        <time>2013-02-17T10:24:30Z</time>
      </trkpt>
      <trkpt lat="48.42137" lon="2.64213">
        <ele>126.616</ele>
        <time>2013-02-17T10:24:35Z</time>
      </trkpt>
      <trkpt lat="48.42153" lon="2.64226">
        <ele>126.381</ele>
        <time>2013-02-17T10:24:38Z</time>
      </trkpt>
      <trkpt lat="48.42185" lon="2.64253">
        <ele>125.644</ele>
        <time>2013-02-17T10:24:44Z</time>
      </trkpt>
      <trkpt lat="48.42205" lon="2.6427">
        <ele>125.276</ele>
        <time>2013-02-17T10:24:48Z</time>
      </trkpt>
      <trkpt lat="48.42242" lon="2.64301">
        <ele>123.874</ele>
        <time>2013-02-17T10:24:55Z</time>
      </trkpt>
      <trkpt lat="48.42247" lon="2.64305">
        <ele>123.496</ele>
        <time>2013-02-17T10:24:56Z</time>
      </trkpt>
      <trkpt lat="48.42263" lon="2.64318">
        <ele>122.117</ele>
        <time>2013-02-17T10:24:59Z</time>
      </trkpt>
      <trkpt lat="48.42297" lon="2.64345">
        <ele>118.232</ele>
        <time>2013-02-17T10:25:04Z</time>
      </trkpt>
      <trkpt lat="48.42306" lon="2.64352">
        <ele>117.193</ele>
        <time>2013-02-17T10:25:05Z</time>
      </trkpt>
      <trkpt lat="48.42329" lon="2.64371">
        <ele>114.007</ele>
        <time>2013-02-17T10:25:08Z</time>
      </trkpt>
      <trkpt lat="48.42352" lon="2.64389">
        <ele>111.379</ele>
        <time>2013-02-17T10:25:11Z</time>
      </trkpt>
      <trkpt lat="48.42386" lon="2.64416">
        <ele>108.514</ele>
        <time>2013-02-17T10:25:16Z</time>
      </trkpt>
      <trkpt lat="48.42393" lon="2.64422">
        <ele>107.739</ele>
        <time>2013-02-17T10:25:18Z</time>
      </trkpt>
      <trkpt lat="48.42422" lon="2.64388">
        <ele>106.417</ele>
        <time>2013-02-17T10:25:24Z</time>
      </trkpt>
      <trkpt lat="48.42441" lon="2.64341">
        <ele>105.605</ele>
        <time>2013-02-17T10:25:31Z</time>
      </trkpt>
      <trkpt lat="48.42444" lon="2.64335">
        <ele>105.663</ele>
        <time>2013-02-17T10:25:32Z</time>
      </trkpt>
      <trkpt lat="48.42457" lon="2.6432">
        <ele>105.8</ele>
        <time>2013-02-17T10:25:36Z</time>
      </trkpt>
      <trkpt lat="48.42467" lon="2.64325">
        <ele>106.359</ele>
        <time>2013-02-17T10:25:39Z</time>
      </trkpt>
      <trkpt lat="48.4248" lon="2.64333">
        <ele>107.519</ele>
        <time>2013-02-17T10:25:44Z</time>
      </trkpt>
      <trkpt lat="48.42491" lon="2.64339">
        <ele>109.383</ele>
        <time>2013-02-17T10:25:49Z</time>
      </trkpt>
      <trkpt lat="48.42502" lon="2.64335">
        <ele>110.757</ele>
        <time>2013-02-17T10:25:53Z</time>
      </trkpt>
      <trkpt lat="48.42505" lon="2.64318">
        <ele>112.524</ele>
        <time>2013-02-17T10:25:58Z</time>
      </trkpt>
      <trkpt lat="48.42506" lon="2.64304">
        <ele>113.946</ele>
        <time>2013-02-17T10:26:03Z</time>
      </trkpt>
      <trkpt lat="48.42507" lon="2.64301">
        <ele>114.269</ele>
        <time>2013-02-17T10:26:04Z</time>
      </trkpt>
      <trkpt lat="48.4251" lon="2.64277">
        <ele>115.397</ele>
        <time>2013-02-17T10:26:10Z</time>
      </trkpt>
      <trkpt lat="48.42512" lon="2.64256">
        <ele>116.784</ele>
        <time>2013-02-17T10:26:16Z</time>
      </trkpt>
      <trkpt lat="48.42514" lon="2.64243">
        <ele>119.481</ele>
        <time>2013-02-17T10:26:21Z</time>
      </trkpt>
      <trkpt lat="48.42517" lon="2.64222">
        <ele>121.299</ele>
        <time>2013-02-17T10:26:27Z</time>
      </trkpt>
      <trkpt lat="48.42522" lon="2.64204">
        <ele>122.612</ele>
        <time>2013-02-17T10:26:33Z</time>
      </trkpt>
      <trkpt lat="48.42531" lon="2.64187">
        <ele>124.195</ele>
        <time>2013-02-17T10:26:40Z</time>
      </trkpt>
      <trkpt lat="48.42541" lon="2.64173">
        <ele>125.122</ele>
        <time>2013-02-17T10:26:46Z</time>
      </trkpt>
      <trkpt lat="48.42553" lon="2.64155">
        <ele>125.45</ele>
        <time>2013-02-17T10:26:54Z</time>
      </trkpt>
      <trkpt lat="48.42565" lon="2.64139">
        <ele>125.514</ele>
        <time>2013-02-17T10:27:00Z</time>
      </trkpt>
      <trkpt lat="48.42577" lon="2.64123">
        <ele>125.716</ele>
        <time>2013-02-17T10:27:06Z</time>
      </trkpt>
      <trkpt lat="48.42591" lon="2.64105">
        <ele>126.186</ele>
        <time>2013-02-17T10:27:13Z</time>
      </trkpt>
      <trkpt lat="48.42604" lon="2.64088">
        <ele>126.348</ele>
        <time>2013-02-17T10:27:18Z</time>
      </trkpt>
      <trkpt lat="48.4262" lon="2.64068">
        <ele>126.561</ele>
        <time>2013-02-17T10:27:24Z</time>
      </trkpt>
      <trkpt lat="48.42641" lon="2.6404">
        <ele>126.851</ele>
        <time>2013-02-17T10:27:31Z</time>
      </trkpt>
      <trkpt lat="48.42647" lon="2.64033">
        <ele>126.878</ele>
        <time>2013-02-17T10:27:33Z</time>
      </trkpt>
      <trkpt lat="48.42664" lon="2.64009">
        <ele>126.795</ele>
        <time>2013-02-17T10:27:38Z</time>
      </trkpt>
      <trkpt lat="48.42659" lon="2.64047">
        <ele>126.889</ele>
        <time>2013-02-17T10:27:42Z</time>
      </trkpt>
      <trkpt lat="48.42658" lon="2.64056">
        <ele>126.975</ele>
        <time>2013-02-17T10:27:44Z</time>
      </trkpt>
      <trkpt lat="48.42654" lon="2.64086">
        <ele>127.291</ele>
        <time>2013-02-17T10:27:50Z</time>
      </trkpt>
      <trkpt lat="48.42653" lon="2.64092">
        <ele>127.292</ele>
        <time>2013-02-17T10:27:51Z</time>
      </trkpt>
      <trkpt lat="48.42648" lon="2.64134">
        <ele>127.593</ele>
        <time>2013-02-17T10:27:57Z</time>
      </trkpt>
      <trkpt lat="48.42643" lon="2.64175">
        <ele>127.841</ele>
        <time>2013-02-17T10:28:03Z</time>
      </trkpt>
      <trkpt lat="48.42637" lon="2.6422">
        <ele>127.891</ele>
        <time>2013-02-17T10:28:09Z</time>
      </trkpt>
      <trkpt lat="48.42634" lon="2.6424">
        <ele>127.922</ele>
        <time>2013-02-17T10:28:12Z</time>
      </trkpt>
      <trkpt lat="48.42628" lon="2.64286">
        <ele>127.858</ele>
        <time>2013-02-17T10:28:18Z</time>
      </trkpt>
      <trkpt lat="48.42622" lon="2.64334">
        <ele>127.621</ele>
        <time>2013-02-17T10:28:24Z</time>
      </trkpt>
      <trkpt lat="48.42617" lon="2.6438">
        <ele>127.701</ele>
        <time>2013-02-17T10:28:30Z</time>
      </trkpt>
      <trkpt lat="48.42612" lon="2.64414">
        <ele>127.563</ele>
        <time>2013-02-17T10:28:35Z</time>
      </trkpt>
      <trkpt lat="48.4261" lon="2.64433">
        <ele>126.832</ele>
        <time>2013-02-17T10:28:38Z</time>
      </trkpt>
      <trkpt lat="48.42602" lon="2.64497">
        <ele>124.404</ele>
        <time>2013-02-17T10:28:46Z</time>
      </trkpt>
      <trkpt lat="48.426" lon="2.64506">
        <ele>124.172</ele>
        <time>2013-02-17T10:28:47Z</time>
      </trkpt>
      <trkpt lat="48.42598" lon="2.64524">
        <ele>123.56</ele>
        <time>2013-02-17T10:28:49Z</time>
      </trkpt>
      <trkpt lat="48.4259" lon="2.64585">
        <ele>120.502</ele>
        <time>2013-02-17T10:28:55Z</time>
      </trkpt>
      <trkpt lat="48.42585" lon="2.64652">
        <ele>116.855</ele>
        <time>2013-02-17T10:29:01Z</time>
      </trkpt>
      <trkpt lat="48.42581" lon="2.64684">
        <ele>115.533</ele>
        <time>2013-02-17T10:29:04Z</time>
      </trkpt>
      <trkpt lat="48.42578" lon="2.64718">
        <ele>114.228</ele>
        <time>2013-02-17T10:29:08Z</time>
      </trkpt>
      <trkpt lat="48.42577" lon="2.64746">
        <ele>113.649</ele>
        <time>2013-02-17T10:29:13Z</time>
      </trkpt>
      <trkpt lat="48.42579" lon="2.64767">
        <ele>113.876</ele>
        <time>2013-02-17T10:29:16Z</time>
      </trkpt>
      <trkpt lat="48.42596" lon="2.64817">
        <ele>113.566</ele>
        <time>2013-02-17T10:29:23Z</time>
      </trkpt>
      <trkpt lat="48.42613" lon="2.64861">
        <ele>113.924</ele>
        <time>2013-02-17T10:29:30Z</time>
      </trkpt>
      <trkpt lat="48.42626" lon="2.64896">
        <ele>114.563</ele>
        <time>2013-02-17T10:29:36Z</time>
      </trkpt>
      <trkpt lat="48.42636" lon="2.6492">
        <ele>115.053</ele>
        <time>2013-02-17T10:29:40Z</time>
      </trkpt>
      <trkpt lat="48.42645" lon="2.64943">
        <ele>115.59</ele>
        <time>2013-02-17T10:29:44Z</time>
      </trkpt>
      <trkpt lat="48.42657" lon="2.64971">
        <ele>116.219</ele>
        <time>2013-02-17T10:29:49Z</time>
      </trkpt>
      <trkpt lat="48.42659" lon="2.64976">
        <ele>116.385</ele>
        <time>2013-02-17T10:29:50Z</time>
      </trkpt>
      <trkpt lat="48.42669" lon="2.64999">
        <ele>116.819</ele>
        <time>2013-02-17T10:29:54Z</time>
      </trkpt>
      <trkpt lat="48.42684" lon="2.65031">
        <ele>117.646</ele>
        <time>2013-02-17T10:30:00Z</time>
      </trkpt>
      <trkpt lat="48.42702" lon="2.65063">
        <ele>118.558</ele>
        <time>2013-02-17T10:30:07Z</time>
      </trkpt>
      <trkpt lat="48.42718" lon="2.65096">
        <ele>119.811</ele>
        <time>2013-02-17T10:30:14Z</time>
      </trkpt>
      <trkpt lat="48.42737" lon="2.65139">
        <ele>121.301</ele>
        <time>2013-02-17T10:30:23Z</time>
      </trkpt>
      <trkpt lat="48.42739" lon="2.6517">
        <ele>122.596</ele>
        <time>2013-02-17T10:30:29Z</time>
      </trkpt>
      <trkpt lat="48.42736" lon="2.65197">
        <ele>123.804</ele>
        <time>2013-02-17T10:30:35Z</time>
      </trkpt>
      <trkpt lat="48.42734" lon="2.6522">
        <ele>125.767</ele>
        <time>2013-02-17T10:30:40Z</time>
      </trkpt>
      <trkpt lat="48.42733" lon="2.65236">
        <ele>127.751</ele>
        <time>2013-02-17T10:30:45Z</time>
      </trkpt>
      <trkpt lat="48.42734" lon="2.65259">
        <ele>128.653</ele>
        <time>2013-02-17T10:30:50Z</time>
      </trkpt>
      <trkpt lat="48.42735" lon="2.65285">
        <ele>129.377</ele>
        <time>2013-02-17T10:30:57Z</time>
      </trkpt>
      <trkpt lat="48.42735" lon="2.65294">
        <ele>129.53</ele>
        <time>2013-02-17T10:31:01Z</time>
      </trkpt>
      <trkpt lat="48.42735" lon="2.6531">
        <ele>129.754</ele>
        <time>2013-02-17T10:31:59Z</time>
      </trkpt>
      <trkpt lat="48.42735" lon="2.65312">
        <ele>129.834</ele>
        <time>2013-02-17T10:32:00Z</time>
      </trkpt>
      <trkpt lat="48.42735" lon="2.65323">
        <ele>130.063</ele>
        <time>2013-02-17T10:32:04Z</time>
      </trkpt>
      <trkpt lat="48.42735" lon="2.65327">
        <ele>130.04</ele>
        <time>2013-02-17T10:32:05Z</time>
      </trkpt>
      <trkpt lat="48.42735" lon="2.6537">
        <ele>129.498</ele>
        <time>2013-02-17T10:32:12Z</time>
      </trkpt>
      <trkpt lat="48.42731" lon="2.65414">
        <ele>129.269</ele>
        <time>2013-02-17T10:32:18Z</time>
      </trkpt>
      <trkpt lat="48.42732" lon="2.65458">
        <ele>129.694</ele>
        <time>2013-02-17T10:32:24Z</time>
      </trkpt>
      <trkpt lat="48.42734" lon="2.65488">
        <ele>129.935</ele>
        <time>2013-02-17T10:32:28Z</time>
      </trkpt>
      <trkpt lat="48.42735" lon="2.65495">
        <ele>130.033</ele>
        <time>2013-02-17T10:32:29Z</time>
      </trkpt>
      <trkpt lat="48.42741" lon="2.65522">
        <ele>130.538</ele>
        <time>2013-02-17T10:32:33Z</time>
      </trkpt>
      <trkpt lat="48.42747" lon="2.65548">
        <ele>130.954</ele>
        <time>2013-02-17T10:32:37Z</time>
      </trkpt>
      <trkpt lat="48.4275" lon="2.65562">
        <ele>131.153</ele>
        <time>2013-02-17T10:32:39Z</time>
      </trkpt>
      <trkpt lat="48.42752" lon="2.65584">
        <ele>131.307</ele>
        <time>2013-02-17T10:32:42Z</time>
      </trkpt>
      <trkpt lat="48.42756" lon="2.65615">
        <ele>131.506</ele>
        <time>2013-02-17T10:32:46Z</time>
      </trkpt>
      <trkpt lat="48.42766" lon="2.65651">
        <ele>131.523</ele>
        <time>2013-02-17T10:32:51Z</time>
      </trkpt>
      <trkpt lat="48.42774" lon="2.65692">
        <ele>131.579</ele>
        <time>2013-02-17T10:32:56Z</time>
      </trkpt>
      <trkpt lat="48.42785" lon="2.65744">
        <ele>131.331</ele>
        <time>2013-02-17T10:33:02Z</time>
      </trkpt>
      <trkpt lat="48.42791" lon="2.65795">
        <ele>130.872</ele>
        <time>2013-02-17T10:33:08Z</time>
      </trkpt>
      <trkpt lat="48.42791" lon="2.65837">
        <ele>130.849</ele>
        <time>2013-02-17T10:33:13Z</time>
      </trkpt>
      <trkpt lat="48.42797" lon="2.65886">
        <ele>130.954</ele>
        <time>2013-02-17T10:33:19Z</time>
      </trkpt>
      <trkpt lat="48.42799" lon="2.65902">
        <ele>130.864</ele>
        <time>2013-02-17T10:33:21Z</time>
      </trkpt>
      <trkpt lat="48.42801" lon="2.65917">
        <ele>130.892</ele>
        <time>2013-02-17T10:33:23Z</time>
      </trkpt>
      <trkpt lat="48.42805" lon="2.65946">
        <ele>131.138</ele>
        <time>2013-02-17T10:33:28Z</time>
      </trkpt>
      <trkpt lat="48.42807" lon="2.65963">
        <ele>131.599</ele>
        <time>2013-02-17T10:33:32Z</time>
      </trkpt>
      <trkpt lat="48.42807" lon="2.65966">
        <ele>131.701</ele>
        <time>2013-02-17T10:33:33Z</time>
      </trkpt>
      <trkpt lat="48.42841" lon="2.65957">
        <ele>132.128</ele>
        <time>2013-02-17T10:33:37Z</time>
      </trkpt>
      <trkpt lat="48.4287" lon="2.65943">
        <ele>132.854</ele>
        <time>2013-02-17T10:33:43Z</time>
      </trkpt>
      <trkpt lat="48.42903" lon="2.65924">
        <ele>132.993</ele>
        <time>2013-02-17T10:33:49Z</time>
      </trkpt>
      <trkpt lat="48.42948" lon="2.65896">
        <ele>132.344</ele>
        <time>2013-02-17T10:33:57Z</time>
      </trkpt>
      <trkpt lat="48.42963" lon="2.65882">
        <ele>130.982</ele>
        <time>2013-02-17T10:34:01Z</time>
      </trkpt>
      <trkpt lat="48.4297" lon="2.65874">
        <ele>130.367</ele>
        <time>2013-02-17T10:34:03Z</time>
      </trkpt>
      <trkpt lat="48.4299" lon="2.65857">
        <ele>130.293</ele>
        <time>2013-02-17T10:34:08Z</time>
      </trkpt>
      <trkpt lat="48.43008" lon="2.65852">
        <ele>130.73</ele>
        <time>2013-02-17T10:34:12Z</time>
      </trkpt>
      <trkpt lat="48.4306" lon="2.65869">
        <ele>130.996</ele>
        <time>2013-02-17T10:34:21Z</time>
      </trkpt>
      <trkpt lat="48.43099" lon="2.65889">
        <ele>131.13</ele>
        <time>2013-02-17T10:34:28Z</time>
      </trkpt>
      <trkpt lat="48.43105" lon="2.65891">
        <ele>131.135</ele>
        <time>2013-02-17T10:34:29Z</time>
      </trkpt>
      <trkpt lat="48.43126" lon="2.65897">
        <ele>131.02</ele>
        <time>2013-02-17T10:34:33Z</time>
      </trkpt>
      <trkpt lat="48.43139" lon="2.65879">
        <ele>130.805</ele>
        <time>2013-02-17T10:34:36Z</time>
      </trkpt>
      <trkpt lat="48.43159" lon="2.65824">
        <ele>131.469</ele>
        <time>2013-02-17T10:34:44Z</time>
      </trkpt>
      <trkpt lat="48.43181" lon="2.6578">
        <ele>131.899</ele>
        <time>2013-02-17T10:34:51Z</time>
      </trkpt>
      <trkpt lat="48.43202" lon="2.65722">
        <ele>133.135</ele>
        <time>2013-02-17T10:34:59Z</time>
      </trkpt>
      <trkpt lat="48.43216" lon="2.65706">
        <ele>133.526</ele>
        <time>2013-02-17T10:35:02Z</time>
      </trkpt>
      <trkpt lat="48.43253" lon="2.65668">
        <ele>134.294</ele>
        <time>2013-02-17T10:35:10Z</time>
      </trkpt>
      <trkpt lat="48.43282" lon="2.65641">
        <ele>134.312</ele>
        <time>2013-02-17T10:35:16Z</time>
      </trkpt>
      <trkpt lat="48.43317" lon="2.65611">
        <ele>134.471</ele>
        <time>2013-02-17T10:35:23Z</time>
      </trkpt>
      <trkpt lat="48.43322" lon="2.65606">
        <ele>134.413</ele>
        <time>2013-02-17T10:35:24Z</time>
      </trkpt>
      <trkpt lat="48.43367" lon="2.65559">
        <ele>134.392</ele>
        <time>2013-02-17T10:35:33Z</time>
      </trkpt>
      <trkpt lat="48.43402" lon="2.65526">
        <ele>134.369</ele>
        <time>2013-02-17T10:35:40Z</time>
      </trkpt>
      <trkpt lat="48.43442" lon="2.65484">
        <ele>134.19</ele>
        <time>2013-02-17T10:35:48Z</time>
      </trkpt>
      <trkpt lat="48.43473" lon="2.65452">
        <ele>134.028</ele>
        <time>2013-02-17T10:35:54Z</time>
      </trkpt>
      <trkpt lat="48.43511" lon="2.65416">
        <ele>133.554</ele>
        <time>2013-02-17T10:36:01Z</time>
      </trkpt>
      <trkpt lat="48.43534" lon="2.65395">
        <ele>133.25</ele>
        <time>2013-02-17T10:36:05Z</time>
      </trkpt>
      <trkpt lat="48.43573" lon="2.65341">
        <ele>133.38</ele>
        <time>2013-02-17T10:36:13Z</time>
      </trkpt>
      <trkpt lat="48.43614" lon="2.65294">
        <ele>133.852</ele>
        <time>2013-02-17T10:36:21Z</time>
      </trkpt>
      <trkpt lat="48.43643" lon="2.65253">
        <ele>133.611</ele>
        <time>2013-02-17T10:36:27Z</time>
      </trkpt>
      <trkpt lat="48.43672" lon="2.65214">
        <ele>133.292</ele>
        <time>2013-02-17T10:36:33Z</time>
      </trkpt>
      <trkpt lat="48.43712" lon="2.65156">
        <ele>133.468</ele>
        <time>2013-02-17T10:36:42Z</time>
      </trkpt>
      <trkpt lat="48.43717" lon="2.65149">
        <ele>133.417</ele>
        <time>2013-02-17T10:36:43Z</time>
      </trkpt>
      <trkpt lat="48.43743" lon="2.65103">
        <ele>131.838</ele>
        <time>2013-02-17T10:36:49Z</time>
      </trkpt>
      <trkpt lat="48.43758" lon="2.65073">
        <ele>129.553</ele>
        <time>2013-02-17T10:36:52Z</time>
      </trkpt>
      <trkpt lat="48.43767" lon="2.6503">
        <ele>125.128</ele>
        <time>2013-02-17T10:36:56Z</time>
      </trkpt>
      <trkpt lat="48.43764" lon="2.64979">
        <ele>119.899</ele>
        <time>2013-02-17T10:37:00Z</time>
      </trkpt>
      <trkpt lat="48.43762" lon="2.64955">
        <ele>118.621</ele>
        <time>2013-02-17T10:37:02Z</time>
      </trkpt>
      <trkpt lat="48.43765" lon="2.64909">
        <ele>113.361</ele>
        <time>2013-02-17T10:37:06Z</time>
      </trkpt>
      <trkpt lat="48.43775" lon="2.64847">
        <ele>107.751</ele>
        <time>2013-02-17T10:37:11Z</time>
      </trkpt>
      <trkpt lat="48.43786" lon="2.6479">
        <ele>103.625</ele>
        <time>2013-02-17T10:37:15Z</time>
      </trkpt>
      <trkpt lat="48.43805" lon="2.64702">
        <ele>97.819</ele>
        <time>2013-02-17T10:37:21Z</time>
      </trkpt>
      <trkpt lat="48.43817" lon="2.64644">
        <ele>95.369</ele>
        <time>2013-02-17T10:37:25Z</time>
      </trkpt>
      <trkpt lat="48.43825" lon="2.64602">
        <ele>94.14</ele>
        <time>2013-02-17T10:37:28Z</time>
      </trkpt>
      <trkpt lat="48.4384" lon="2.6452">
        <ele>90.514</ele>
        <time>2013-02-17T10:37:34Z</time>
      </trkpt>
      <trkpt lat="48.43855" lon="2.6444">
        <ele>87.552</ele>
        <time>2013-02-17T10:37:40Z</time>
      </trkpt>
      <trkpt lat="48.43866" lon="2.64378">
        <ele>85.691</ele>
        <time>2013-02-17T10:37:45Z</time>
      </trkpt>
      <trkpt lat="48.43879" lon="2.64321">
        <ele>83.912</ele>
        <time>2013-02-17T10:37:50Z</time>
      </trkpt>
      <trkpt lat="48.43887" lon="2.64267">
        <ele>82.656</ele>
        <time>2013-02-17T10:37:55Z</time>
      </trkpt>
      <trkpt lat="48.43901" lon="2.64199">
        <ele>81.8</ele>
        <time>2013-02-17T10:38:01Z</time>
      </trkpt>
      <trkpt lat="48.43917" lon="2.64117">
        <ele>81.432</ele>
        <time>2013-02-17T10:38:08Z</time>
      </trkpt>
      <trkpt lat="48.43927" lon="2.6406">
        <ele>80.355</ele>
        <time>2013-02-17T10:38:13Z</time>
      </trkpt>
      <trkpt lat="48.43939" lon="2.63992">
        <ele>80.115</ele>
        <time>2013-02-17T10:38:19Z</time>
      </trkpt>
      <trkpt lat="48.43949" lon="2.63938">
        <ele>80.368</ele>
        <time>2013-02-17T10:38:24Z</time>
      </trkpt>
      <trkpt lat="48.43957" lon="2.63887">
        <ele>80.229</ele>
        <time>2013-02-17T10:38:29Z</time>
      </trkpt>
      <trkpt lat="48.43964" lon="2.63829">
        <ele>79.852</ele>
        <time>2013-02-17T10:38:35Z</time>
      </trkpt>
      <trkpt lat="48.43972" lon="2.6376">
        <ele>79.89</ele>
        <time>2013-02-17T10:38:42Z</time>
      </trkpt>
      <trkpt lat="48.4398" lon="2.63686">
        <ele>79.453</ele>
        <time>2013-02-17T10:38:50Z</time>
      </trkpt>
      <trkpt lat="48.4399" lon="2.63622">
        <ele>78.96</ele>
        <time>2013-02-17T10:38:57Z</time>
      </trkpt>
      <trkpt lat="48.43996" lon="2.63569">
        <ele>78.831</ele>
        <time>2013-02-17T10:39:03Z</time>
      </trkpt>
      <trkpt lat="48.44007" lon="2.63476">
        <ele>78.147</ele>
        <time>2013-02-17T10:39:13Z</time>
      </trkpt>
      <trkpt lat="48.4401" lon="2.63449">
        <ele>78.272</ele>
        <time>2013-02-17T10:39:16Z</time>
      </trkpt>
      <trkpt lat="48.44015" lon="2.634">
        <ele>79.059</ele>
        <time>2013-02-17T10:39:22Z</time>
      </trkpt>
      <trkpt lat="48.44017" lon="2.63384">
        <ele>79.159</ele>
        <time>2013-02-17T10:39:24Z</time>
      </trkpt>
      <trkpt lat="48.44023" lon="2.63333">
        <ele>79.384</ele>
        <time>2013-02-17T10:39:30Z</time>
      </trkpt>
      <trkpt lat="48.44028" lon="2.63291">
        <ele>79.464</ele>
        <time>2013-02-17T10:39:35Z</time>
      </trkpt>
      <trkpt lat="48.44034" lon="2.63254">
        <ele>79.792</ele>
        <time>2013-02-17T10:39:40Z</time>
      </trkpt>
      <trkpt lat="48.44039" lon="2.63207">
        <ele>80.252</ele>
        <time>2013-02-17T10:39:46Z</time>
      </trkpt>
      <trkpt lat="48.44042" lon="2.63186">
        <ele>80.456</ele>
        <time>2013-02-17T10:39:49Z</time>
      </trkpt>
      <trkpt lat="48.44049" lon="2.63137">
        <ele>80.061</ele>
        <time>2013-02-17T10:39:55Z</time>
      </trkpt>
      <trkpt lat="48.44056" lon="2.63072">
        <ele>79.565</ele>
        <time>2013-02-17T10:40:02Z</time>
      </trkpt>
      <trkpt lat="48.44059" lon="2.63028">
        <ele>79.254</ele>
        <time>2013-02-17T10:40:07Z</time>
      </trkpt>
      <trkpt lat="48.44061" lon="2.62984">
        <ele>78.536</ele>
        <time>2013-02-17T10:40:12Z</time>
      </trkpt>
      <trkpt lat="48.44063" lon="2.62942">
        <ele>78.177</ele>
        <time>2013-02-17T10:40:17Z</time>
      </trkpt>
      <trkpt lat="48.44058" lon="2.62872">
        <ele>78.928</ele>
        <time>2013-02-17T10:40:26Z</time>
      </trkpt>
      <trkpt lat="48.44054" lon="2.62801">
        <ele>79.161</ele>
        <time>2013-02-17T10:40:35Z</time>
      </trkpt>
      <trkpt lat="48.44052" lon="2.62767">
        <ele>79.007</ele>
        <time>2013-02-17T10:40:39Z</time>
      </trkpt>
      <trkpt lat="48.4405" lon="2.62741">
        <ele>79</ele>
        <time>2013-02-17T10:40:42Z</time>
      </trkpt>
      <trkpt lat="48.44059" lon="2.62685">
        <ele>79.296</ele>
        <time>2013-02-17T10:40:49Z</time>
      </trkpt>
      <trkpt lat="48.44069" lon="2.6262">
        <ele>78.826</ele>
        <time>2013-02-17T10:40:56Z</time>
      </trkpt>
      <trkpt lat="48.44076" lon="2.62575">
        <ele>78.679</ele>
        <time>2013-02-17T10:41:01Z</time>
      </trkpt>
      <trkpt lat="48.44085" lon="2.62521">
        <ele>77.833</ele>
        <time>2013-02-17T10:41:07Z</time>
      </trkpt>
      <trkpt lat="48.4409" lon="2.62489">
        <ele>77.3</ele>
        <time>2013-02-17T10:41:11Z</time>
      </trkpt>
      <trkpt lat="48.44094" lon="2.62454">
        <ele>76.716</ele>
        <time>2013-02-17T10:41:16Z</time>
      </trkpt>
      <trkpt lat="48.44097" lon="2.62435">
        <ele>75.918</ele>
        <time>2013-02-17T10:41:21Z</time>
      </trkpt>
      <trkpt lat="48.44117" lon="2.6243">
        <ele>75.672</ele>
        <time>2013-02-17T10:41:25Z</time>
      </trkpt>
      <trkpt lat="48.44117" lon="2.6243">
        <ele>75.46</ele>
        <time>2013-02-17T10:41:26Z</time>
      </trkpt>
      <trkpt lat="48.44117" lon="2.6243">
        <ele>76.452</ele>
        <time>2013-02-17T10:45:20Z</time>
      </trkpt>
      <trkpt lat="48.44117" lon="2.6243">
        <ele>76.436</ele>
        <time>2013-02-17T10:45:21Z</time>
      </trkpt>
      <trkpt lat="48.44121" lon="2.6243">
        <ele>75.864</ele>
        <time>2013-02-17T10:47:18Z</time>
      </trkpt>
      <trkpt lat="48.44117" lon="2.6243">
        <ele>75.871</ele>
        <time>2013-02-17T10:47:21Z</time>
      </trkpt>
      <trkpt lat="48.44114" lon="2.6243">
        <ele>75.885</ele>
        <time>2013-02-17T10:47:22Z</time>
      </trkpt>
      <trkpt lat="48.44111" lon="2.6243">
        <ele>75.903</ele>
        <time>2013-02-17T10:47:24Z</time>
      </trkpt>
      <trkpt lat="48.44095" lon="2.62447">
        <ele>76.055</ele>
        <time>2013-02-17T10:47:27Z</time>
      </trkpt>
      <trkpt lat="48.44094" lon="2.62461">
        <ele>76.393</ele>
        <time>2013-02-17T10:47:33Z</time>
      </trkpt>
      <trkpt lat="48.44118" lon="2.62489">
        <ele>76.679</ele>
        <time>2013-02-17T10:47:38Z</time>
      </trkpt>
      <trkpt lat="48.44125" lon="2.62508">
        <ele>76.776</ele>
        <time>2013-02-17T10:47:42Z</time>
      </trkpt>
      <trkpt lat="48.4414" lon="2.6255">
        <ele>77.303</ele>
        <time>2013-02-17T10:47:50Z</time>
      </trkpt>
      <trkpt lat="48.4415" lon="2.62582">
        <ele>78.032</ele>
        <time>2013-02-17T10:47:56Z</time>
      </trkpt>
      <trkpt lat="48.44156" lon="2.62606">
        <ele>78.278</ele>
        <time>2013-02-17T10:48:00Z</time>
      </trkpt>
      <trkpt lat="48.44166" lon="2.62632">
        <ele>78.033</ele>
        <time>2013-02-17T10:48:04Z</time>
      </trkpt>
      <trkpt lat="48.44185" lon="2.62686">
        <ele>76.889</ele>
        <time>2013-02-17T10:48:12Z</time>
      </trkpt>
      <trkpt lat="48.442" lon="2.62729">
        <ele>76.346</ele>
        <time>2013-02-17T10:48:19Z</time>
      </trkpt>
      <trkpt lat="48.44216" lon="2.62771">
        <ele>76.682</ele>
        <time>2013-02-17T10:48:26Z</time>
      </trkpt>
      <trkpt lat="48.44221" lon="2.6279">
        <ele>77.036</ele>
        <time>2013-02-17T10:48:29Z</time>
      </trkpt>
      <trkpt lat="48.44227" lon="2.62812">
        <ele>77.156</ele>
        <time>2013-02-17T10:48:33Z</time>
      </trkpt>
      <trkpt lat="48.44233" lon="2.62833">
        <ele>77.075</ele>
        <time>2013-02-17T10:48:36Z</time>
      </trkpt>
      <trkpt lat="48.4425" lon="2.62902">
        <ele>77.327</ele>
        <time>2013-02-17T10:48:45Z</time>
      </trkpt>
      <trkpt lat="48.44268" lon="2.62949">
        <ele>77.723</ele>
        <time>2013-02-17T10:48:52Z</time>
      </trkpt>
      <trkpt lat="48.44271" lon="2.62955">
        <ele>77.757</ele>
        <time>2013-02-17T10:48:53Z</time>
      </trkpt>
      <trkpt lat="48.4428" lon="2.62973">
        <ele>78.026</ele>
        <time>2013-02-17T10:48:56Z</time>
      </trkpt>
      <trkpt lat="48.44304" lon="2.6301">
        <ele>78.149</ele>
        <time>2013-02-17T10:49:03Z</time>
      </trkpt>
      <trkpt lat="48.44329" lon="2.63044">
        <ele>78.112</ele>
        <time>2013-02-17T10:49:10Z</time>
      </trkpt>
      <trkpt lat="48.44335" lon="2.63056">
        <ele>78.117</ele>
        <time>2013-02-17T10:49:12Z</time>
      </trkpt>
      <trkpt lat="48.44356" lon="2.63108">
        <ele>78.149</ele>
        <time>2013-02-17T10:49:20Z</time>
      </trkpt>
      <trkpt lat="48.44374" lon="2.63159">
        <ele>77.854</ele>
        <time>2013-02-17T10:49:28Z</time>
      </trkpt>
      <trkpt lat="48.44382" lon="2.63179">
        <ele>77.839</ele>
        <time>2013-02-17T10:49:32Z</time>
      </trkpt>
      <trkpt lat="48.44391" lon="2.63207">
        <ele>78.303</ele>
        <time>2013-02-17T10:49:37Z</time>
      </trkpt>
      <trkpt lat="48.44397" lon="2.63235">
        <ele>78.598</ele>
        <time>2013-02-17T10:49:42Z</time>
      </trkpt>
      <trkpt lat="48.44404" lon="2.63262">
        <ele>78.829</ele>
        <time>2013-02-17T10:49:48Z</time>
      </trkpt>
      <trkpt lat="48.4441" lon="2.63287">
        <ele>78.905</ele>
        <time>2013-02-17T10:49:55Z</time>
      </trkpt>
      <trkpt lat="48.44413" lon="2.63301">
        <ele>78.835</ele>
        <time>2013-02-17T10:50:01Z</time>
      </trkpt>
      <trkpt lat="48.44414" lon="2.63305">
        <ele>78.832</ele>
        <time>2013-02-17T10:50:04Z</time>
      </trkpt>
      <trkpt lat="48.44414" lon="2.63308">
        <ele>78.776</ele>
        <time>2013-02-17T10:50:55Z</time>
      </trkpt>
      <trkpt lat="48.44415" lon="2.6331">
        <ele>78.79</ele>
        <time>2013-02-17T10:50:56Z</time>
      </trkpt>
      <trkpt lat="48.44417" lon="2.63322">
        <ele>78.862</ele>
        <time>2013-02-17T10:51:00Z</time>
      </trkpt>
      <trkpt lat="48.4442" lon="2.6334">
        <ele>79.203</ele>
        <time>2013-02-17T10:51:05Z</time>
      </trkpt>
      <trkpt lat="48.44424" lon="2.63358">
        <ele>79.666</ele>
        <time>2013-02-17T10:51:10Z</time>
      </trkpt>
      <trkpt lat="48.44432" lon="2.63395">
        <ele>80.611</ele>
        <time>2013-02-17T10:51:16Z</time>
      </trkpt>
      <trkpt lat="48.4444" lon="2.63424">
        <ele>81.017</ele>
        <time>2013-02-17T10:51:20Z</time>
      </trkpt>
      <trkpt lat="48.44442" lon="2.63431">
        <ele>81.016</ele>
        <time>2013-02-17T10:51:21Z</time>
      </trkpt>
      <trkpt lat="48.4445" lon="2.6346">
        <ele>81.099</ele>
        <time>2013-02-17T10:51:25Z</time>
      </trkpt>
      <trkpt lat="48.44481" lon="2.63536">
        <ele>80.3</ele>
        <time>2013-02-17T10:51:36Z</time>
      </trkpt>
      <trkpt lat="48.44501" lon="2.63589">
        <ele>79.957</ele>
        <time>2013-02-17T10:51:44Z</time>
      </trkpt>
      <trkpt lat="48.4452" lon="2.63635">
        <ele>79.817</ele>
        <time>2013-02-17T10:51:51Z</time>
      </trkpt>
      <trkpt lat="48.44523" lon="2.63641">
        <ele>79.802</ele>
        <time>2013-02-17T10:51:52Z</time>
      </trkpt>
      <trkpt lat="48.44537" lon="2.63669">
        <ele>79.979</ele>
        <time>2013-02-17T10:51:57Z</time>
      </trkpt>
      <trkpt lat="48.44537" lon="2.6367">
        <ele>80.068</ele>
        <time>2013-02-17T10:51:58Z</time>
      </trkpt>
      <trkpt lat="48.44522" lon="2.63721">
        <ele>80.751</ele>
        <time>2013-02-17T10:52:05Z</time>
      </trkpt>
      <trkpt lat="48.44518" lon="2.63739">
        <ele>80.561</ele>
        <time>2013-02-17T10:52:08Z</time>
      </trkpt>
      <trkpt lat="48.4453" lon="2.63746">
        <ele>80.46</ele>
        <time>2013-02-17T10:52:11Z</time>
      </trkpt>
      <trkpt lat="48.44536" lon="2.63729">
        <ele>80.142</ele>
        <time>2013-02-17T10:52:14Z</time>
      </trkpt>
      <trkpt lat="48.44546" lon="2.63727">
        <ele>79.947</ele>
        <time>2013-02-17T10:52:15Z</time>
      </trkpt>
      <trkpt lat="48.44563" lon="2.63737">
        <ele>78.999</ele>
        <time>2013-02-17T10:52:18Z</time>
      </trkpt>
      <trkpt lat="48.44584" lon="2.63739">
        <ele>77.836</ele>
        <time>2013-02-17T10:52:22Z</time>
      </trkpt>
      <trkpt lat="48.44597" lon="2.63753">
        <ele>79.481</ele>
        <time>2013-02-17T10:52:28Z</time>
      </trkpt>
      <trkpt lat="48.44597" lon="2.63753">
        <ele>80.577</ele>
        <time>2013-02-17T10:52:33Z</time>
      </trkpt>
      <trkpt lat="48.44619" lon="2.63793">
        <ele>80.779</ele>
        <time>2013-02-17T10:52:37Z</time>
      </trkpt>
      <trkpt lat="48.44624" lon="2.63817">
        <ele>80.897</ele>
        <time>2013-02-17T10:52:42Z</time>
      </trkpt>
      <trkpt lat="48.44627" lon="2.63829">
        <ele>80.938</ele>
        <time>2013-02-17T10:52:46Z</time>
      </trkpt>
      <trkpt lat="48.44603" lon="2.63889">
        <ele>81.341</ele>
        <time>2013-02-17T10:52:54Z</time>
      </trkpt>
      <trkpt lat="48.44592" lon="2.63939">
        <ele>82.147</ele>
        <time>2013-02-17T10:53:02Z</time>
      </trkpt>
      <trkpt lat="48.44586" lon="2.63974">
        <ele>82.781</ele>
        <time>2013-02-17T10:53:08Z</time>
      </trkpt>
      <trkpt lat="48.44579" lon="2.64012">
        <ele>83.461</ele>
        <time>2013-02-17T10:53:15Z</time>
      </trkpt>
      <trkpt lat="48.44572" lon="2.64049">
        <ele>83.96</ele>
        <time>2013-02-17T10:53:22Z</time>
      </trkpt>
      <trkpt lat="48.44567" lon="2.64073">
        <ele>84.215</ele>
        <time>2013-02-17T10:53:26Z</time>
      </trkpt>
      <trkpt lat="48.4456" lon="2.641">
        <ele>84.615</ele>
        <time>2013-02-17T10:53:31Z</time>
      </trkpt>
      <trkpt lat="48.44555" lon="2.64118">
        <ele>84.915</ele>
        <time>2013-02-17T10:53:34Z</time>
      </trkpt>
      <trkpt lat="48.4455" lon="2.6415">
        <ele>85.093</ele>
        <time>2013-02-17T10:53:39Z</time>
      </trkpt>
      <trkpt lat="48.44546" lon="2.64183">
        <ele>85.277</ele>
        <time>2013-02-17T10:53:44Z</time>
      </trkpt>
      <trkpt lat="48.44549" lon="2.64218">
        <ele>85.538</ele>
        <time>2013-02-17T10:53:49Z</time>
      </trkpt>
      <trkpt lat="48.44546" lon="2.64252">
        <ele>85.685</ele>
        <time>2013-02-17T10:53:54Z</time>
      </trkpt>
      <trkpt lat="48.44545" lon="2.6426">
        <ele>85.708</ele>
        <time>2013-02-17T10:53:55Z</time>
      </trkpt>
      <trkpt lat="48.44541" lon="2.64312">
        <ele>85.89</ele>
        <time>2013-02-17T10:54:02Z</time>
      </trkpt>
      <trkpt lat="48.44543" lon="2.64334">
        <ele>85.889</ele>
        <time>2013-02-17T10:54:05Z</time>
      </trkpt>
      <trkpt lat="48.44544" lon="2.64366">
        <ele>85.722</ele>
        <time>2013-02-17T10:54:10Z</time>
      </trkpt>
      <trkpt lat="48.44564" lon="2.64367">
        <ele>85.753</ele>
        <time>2013-02-17T10:54:13Z</time>
      </trkpt>
      <trkpt lat="48.44587" lon="2.64365">
        <ele>86.369</ele>
        <time>2013-02-17T10:54:19Z</time>
      </trkpt>
      <trkpt lat="48.44595" lon="2.64365">
        <ele>87.083</ele>
        <time>2013-02-17T10:54:23Z</time>
      </trkpt>
      <trkpt lat="48.44595" lon="2.64365">
        <ele>87.589</ele>
        <time>2013-02-17T10:54:26Z</time>
      </trkpt>
      <trkpt lat="48.44595" lon="2.64365">
        <ele>88.281</ele>
        <time>2013-02-17T10:54:31Z</time>
      </trkpt>
      <trkpt lat="48.44639" lon="2.64381">
        <ele>89.026</ele>
        <time>2013-02-17T10:54:37Z</time>
      </trkpt>
      <trkpt lat="48.44649" lon="2.64393">
        <ele>89.773</ele>
        <time>2013-02-17T10:54:42Z</time>
      </trkpt>
      <trkpt lat="48.44649" lon="2.64415">
        <ele>90.418</ele>
        <time>2013-02-17T10:54:47Z</time>
      </trkpt>
      <trkpt lat="48.44643" lon="2.64434">
        <ele>90.658</ele>
        <time>2013-02-17T10:54:51Z</time>
      </trkpt>
      <trkpt lat="48.44646" lon="2.64451">
        <ele>90.858</ele>
        <time>2013-02-17T10:54:55Z</time>
      </trkpt>
      <trkpt lat="48.4466" lon="2.64463">
        <ele>91.489</ele>
        <time>2013-02-17T10:55:00Z</time>
      </trkpt>
      <trkpt lat="48.44675" lon="2.64463">
        <ele>92.414</ele>
        <time>2013-02-17T10:55:05Z</time>
      </trkpt>
      <trkpt lat="48.4469" lon="2.64462">
        <ele>93.057</ele>
        <time>2013-02-17T10:55:10Z</time>
      </trkpt>
      <trkpt lat="48.4471" lon="2.64474">
        <ele>94.473</ele>
        <time>2013-02-17T10:55:17Z</time>
      </trkpt>
      <trkpt lat="48.44725" lon="2.64486">
        <ele>95.92</ele>
        <time>2013-02-17T10:55:23Z</time>
      </trkpt>
      <trkpt lat="48.44737" lon="2.64496">
        <ele>97.341</ele>
        <time>2013-02-17T10:55:28Z</time>
      </trkpt>
      <trkpt lat="48.44748" lon="2.64505">
        <ele>98.152</ele>
        <time>2013-02-17T10:55:33Z</time>
      </trkpt>
      <trkpt lat="48.44764" lon="2.64521">
        <ele>99.326</ele>
        <time>2013-02-17T10:55:39Z</time>
      </trkpt>
      <trkpt lat="48.44775" lon="2.64532">
        <ele>100.51</ele>
        <time>2013-02-17T10:55:44Z</time>
      </trkpt>
      <trkpt lat="48.44789" lon="2.64528">
        <ele>101.633</ele>
        <time>2013-02-17T10:55:49Z</time>
      </trkpt>
      <trkpt lat="48.44798" lon="2.6452">
        <ele>102.796</ele>
        <time>2013-02-17T10:55:53Z</time>
      </trkpt>
      <trkpt lat="48.44808" lon="2.64528">
        <ele>104.312</ele>
        <time>2013-02-17T10:55:57Z</time>
      </trkpt>
      <trkpt lat="48.44812" lon="2.64551">
        <ele>106.799</ele>
        <time>2013-02-17T10:56:05Z</time>
      </trkpt>
      <trkpt lat="48.44816" lon="2.64566">
        <ele>108.31</ele>
        <time>2013-02-17T10:56:11Z</time>
      </trkpt>
      <trkpt lat="48.44823" lon="2.64573">
        <ele>109.382</ele>
        <time>2013-02-17T10:56:15Z</time>
      </trkpt>
      <trkpt lat="48.44836" lon="2.64567">
        <ele>110.959</ele>
        <time>2013-02-17T10:56:21Z</time>
      </trkpt>
      <trkpt lat="48.44847" lon="2.64558">
        <ele>112.172</ele>
        <time>2013-02-17T10:56:27Z</time>
      </trkpt>
      <trkpt lat="48.44857" lon="2.64539">
        <ele>114.412</ele>
        <time>2013-02-17T10:56:35Z</time>
      </trkpt>
      <trkpt lat="48.44865" lon="2.64525">
        <ele>116.429</ele>
        <time>2013-02-17T10:56:42Z</time>
      </trkpt>
      <trkpt lat="48.44877" lon="2.64511">
        <ele>118.04</ele>
        <time>2013-02-17T10:56:49Z</time>
      </trkpt>
      <trkpt lat="48.4489" lon="2.64522">
        <ele>119.693</ele>
        <time>2013-02-17T10:56:56Z</time>
      </trkpt>
      <trkpt lat="48.44895" lon="2.64539">
        <ele>121.059</ele>
        <time>2013-02-17T10:57:02Z</time>
      </trkpt>
      <trkpt lat="48.44898" lon="2.64561">
        <ele>122.684</ele>
        <time>2013-02-17T10:57:09Z</time>
      </trkpt>
      <trkpt lat="48.44902" lon="2.64585">
        <ele>123.861</ele>
        <time>2013-02-17T10:57:17Z</time>
      </trkpt>
      <trkpt lat="48.4491" lon="2.64609">
        <ele>125.069</ele>
        <time>2013-02-17T10:57:24Z</time>
      </trkpt>
      <trkpt lat="48.44913" lon="2.64616">
        <ele>125.346</ele>
        <time>2013-02-17T10:57:26Z</time>
      </trkpt>
      <trkpt lat="48.44921" lon="2.64627">
        <ele>126.208</ele>
        <time>2013-02-17T10:57:30Z</time>
      </trkpt>
      <trkpt lat="48.44931" lon="2.64638">
        <ele>127.454</ele>
        <time>2013-02-17T10:57:36Z</time>
      </trkpt>
      <trkpt lat="48.44943" lon="2.64656">
        <ele>129.066</ele>
        <time>2013-02-17T10:57:44Z</time>
      </trkpt>
      <trkpt lat="48.44948" lon="2.64674">
        <ele>130.575</ele>
        <time>2013-02-17T10:57:51Z</time>
      </trkpt>
      <trkpt lat="48.44951" lon="2.64685">
        <ele>131.196</ele>
        <time>2013-02-17T10:57:55Z</time>
      </trkpt>
      <trkpt lat="48.44952" lon="2.64692">
        <ele>131.86</ele>
        <time>2013-02-17T10:57:58Z</time>
      </trkpt>
      <trkpt lat="48.44953" lon="2.64693">
        <ele>132.058</ele>
        <time>2013-02-17T10:58:00Z</time>
      </trkpt>
      <trkpt lat="48.44954" lon="2.647">
        <ele>132.258</ele>
        <time>2013-02-17T10:58:05Z</time>
      </trkpt>
      <trkpt lat="48.44958" lon="2.64705">
        <ele>132.378</ele>
        <time>2013-02-17T10:58:09Z</time>
      </trkpt>
      <trkpt lat="48.44958" lon="2.64705">
        <ele>132.536</ele>
        <time>2013-02-17T10:58:11Z</time>
      </trkpt>
      <trkpt lat="48.44966" lon="2.6466">
        <ele>132.378</ele>
        <time>2013-02-17T10:58:44Z</time>
      </trkpt>
      <trkpt lat="48.44965" lon="2.6466">
        <ele>132.453</ele>
        <time>2013-02-17T10:58:45Z</time>
      </trkpt>
      <trkpt lat="48.44935" lon="2.64706">
        <ele>132.704</ele>
        <time>2013-02-17T10:58:51Z</time>
      </trkpt>
      <trkpt lat="48.44915" lon="2.64715">
        <ele>133.013</ele>
        <time>2013-02-17T10:58:57Z</time>
      </trkpt>
      <trkpt lat="48.44902" lon="2.64738">
        <ele>133.282</ele>
        <time>2013-02-17T10:59:03Z</time>
      </trkpt>
      <trkpt lat="48.44894" lon="2.64757">
        <ele>133.512</ele>
        <time>2013-02-17T10:59:07Z</time>
      </trkpt>
      <trkpt lat="48.44883" lon="2.64788">
        <ele>133.502</ele>
        <time>2013-02-17T10:59:13Z</time>
      </trkpt>
      <trkpt lat="48.44782" lon="2.65068">
        <ele>132.708</ele>
        <time>2013-02-17T11:00:02Z</time>
      </trkpt>
      <trkpt lat="48.4478" lon="2.65086">
        <ele>132.755</ele>
        <time>2013-02-17T11:00:05Z</time>
      </trkpt>
      <trkpt lat="48.44789" lon="2.65129">
        <ele>132.658</ele>
        <time>2013-02-17T11:00:12Z</time>
      </trkpt>
      <trkpt lat="48.44791" lon="2.65135">
        <ele>132.625</ele>
        <time>2013-02-17T11:00:13Z</time>
      </trkpt>
      <trkpt lat="48.44804" lon="2.65169">
        <ele>132.729</ele>
        <time>2013-02-17T11:00:19Z</time>
      </trkpt>
      <trkpt lat="48.44818" lon="2.65205">
        <ele>132.75</ele>
        <time>2013-02-17T11:00:25Z</time>
      </trkpt>
      <trkpt lat="48.44837" lon="2.65249">
        <ele>132.629</ele>
        <time>2013-02-17T11:00:32Z</time>
      </trkpt>
      <trkpt lat="48.44839" lon="2.65255">
        <ele>132.644</ele>
        <time>2013-02-17T11:00:33Z</time>
      </trkpt>
      <trkpt lat="48.44861" lon="2.65295">
        <ele>132.487</ele>
        <time>2013-02-17T11:00:40Z</time>
      </trkpt>
      <trkpt lat="48.44865" lon="2.653">
        <ele>132.469</ele>
        <time>2013-02-17T11:00:41Z</time>
      </trkpt>
      <trkpt lat="48.44879" lon="2.65319">
        <ele>132.466</ele>
        <time>2013-02-17T11:00:45Z</time>
      </trkpt>
      <trkpt lat="48.44894" lon="2.65351">
        <ele>132.583</ele>
        <time>2013-02-17T11:00:51Z</time>
      </trkpt>
      <trkpt lat="48.44899" lon="2.65364">
        <ele>132.587</ele>
        <time>2013-02-17T11:00:53Z</time>
      </trkpt>
      <trkpt lat="48.44906" lon="2.65392">
        <ele>132.433</ele>
        <time>2013-02-17T11:00:57Z</time>
      </trkpt>
      <trkpt lat="48.44899" lon="2.65434">
        <ele>132.33</ele>
        <time>2013-02-17T11:01:03Z</time>
      </trkpt>
      <trkpt lat="48.44886" lon="2.65493">
        <ele>132.008</ele>
        <time>2013-02-17T11:01:11Z</time>
      </trkpt>
      <trkpt lat="48.44884" lon="2.65501">
        <ele>132.029</ele>
        <time>2013-02-17T11:01:12Z</time>
      </trkpt>
      <trkpt lat="48.44874" lon="2.65537">
        <ele>131.996</ele>
        <time>2013-02-17T11:01:17Z</time>
      </trkpt>
      <trkpt lat="48.44858" lon="2.65595">
        <ele>132.179</ele>
        <time>2013-02-17T11:01:25Z</time>
      </trkpt>
      <trkpt lat="48.44846" lon="2.65641">
        <ele>132.295</ele>
        <time>2013-02-17T11:01:32Z</time>
      </trkpt>
      <trkpt lat="48.44835" lon="2.65679">
        <ele>132.364</ele>
        <time>2013-02-17T11:01:38Z</time>
      </trkpt>
      <trkpt lat="48.44824" lon="2.65719">
        <ele>132.517</ele>
        <time>2013-02-17T11:01:44Z</time>
      </trkpt>
      <trkpt lat="48.44815" lon="2.65752">
        <ele>132.583</ele>
        <time>2013-02-17T11:01:49Z</time>
      </trkpt>
      <trkpt lat="48.44806" lon="2.6578">
        <ele>132.792</ele>
        <time>2013-02-17T11:01:54Z</time>
      </trkpt>
      <trkpt lat="48.44802" lon="2.65793">
        <ele>132.846</ele>
        <time>2013-02-17T11:01:56Z</time>
      </trkpt>
      <trkpt lat="48.44786" lon="2.65845">
        <ele>133.177</ele>
        <time>2013-02-17T11:02:04Z</time>
      </trkpt>
      <trkpt lat="48.44784" lon="2.65852">
        <ele>133.139</ele>
        <time>2013-02-17T11:02:05Z</time>
      </trkpt>
      <trkpt lat="48.44775" lon="2.65884">
        <ele>133.013</ele>
        <time>2013-02-17T11:02:10Z</time>
      </trkpt>
      <trkpt lat="48.44758" lon="2.65943">
        <ele>131.806</ele>
        <time>2013-02-17T11:02:18Z</time>
      </trkpt>
      <trkpt lat="48.44745" lon="2.65993">
        <ele>131.553</ele>
        <time>2013-02-17T11:02:25Z</time>
      </trkpt>
      <trkpt lat="48.44737" lon="2.66018">
        <ele>132.316</ele>
        <time>2013-02-17T11:02:30Z</time>
      </trkpt>
      <trkpt lat="48.44728" lon="2.66032">
        <ele>133.079</ele>
        <time>2013-02-17T11:02:35Z</time>
      </trkpt>
      <trkpt lat="48.44735" lon="2.66072">
        <ele>133.599</ele>
        <time>2013-02-17T11:02:41Z</time>
      </trkpt>
      <trkpt lat="48.44741" lon="2.66103">
        <ele>134.249</ele>
        <time>2013-02-17T11:02:47Z</time>
      </trkpt>
      <trkpt lat="48.44748" lon="2.66141">
        <ele>134.818</ele>
        <time>2013-02-17T11:02:54Z</time>
      </trkpt>
      <trkpt lat="48.44756" lon="2.66186">
        <ele>134.791</ele>
        <time>2013-02-17T11:03:02Z</time>
      </trkpt>
      <trkpt lat="48.44762" lon="2.66214">
        <ele>134.774</ele>
        <time>2013-02-17T11:03:07Z</time>
      </trkpt>
      <trkpt lat="48.44767" lon="2.66248">
        <ele>135.049</ele>
        <time>2013-02-17T11:03:13Z</time>
      </trkpt>
      <trkpt lat="48.44772" lon="2.66277">
        <ele>135.035</ele>
        <time>2013-02-17T11:03:18Z</time>
      </trkpt>
      <trkpt lat="48.44779" lon="2.66318">
        <ele>135.156</ele>
        <time>2013-02-17T11:03:25Z</time>
      </trkpt>
      <trkpt lat="48.44788" lon="2.66367">
        <ele>135.145</ele>
        <time>2013-02-17T11:03:33Z</time>
      </trkpt>
      <trkpt lat="48.44795" lon="2.66408">
        <ele>135.401</ele>
        <time>2013-02-17T11:03:40Z</time>
      </trkpt>
      <trkpt lat="48.44796" lon="2.66413">
        <ele>135.446</ele>
        <time>2013-02-17T11:03:41Z</time>
      </trkpt>
      <trkpt lat="48.44799" lon="2.66431">
        <ele>135.269</ele>
        <time>2013-02-17T11:03:45Z</time>
      </trkpt>
      <trkpt lat="48.44824" lon="2.66456">
        <ele>135.037</ele>
        <time>2013-02-17T11:03:52Z</time>
      </trkpt>
      <trkpt lat="48.44849" lon="2.6648">
        <ele>134.991</ele>
        <time>2013-02-17T11:03:59Z</time>
      </trkpt>
      <trkpt lat="48.44875" lon="2.66504">
        <ele>135.194</ele>
        <time>2013-02-17T11:04:06Z</time>
      </trkpt>
      <trkpt lat="48.44896" lon="2.66525">
        <ele>135.445</ele>
        <time>2013-02-17T11:04:12Z</time>
      </trkpt>
      <trkpt lat="48.44925" lon="2.66553">
        <ele>135.552</ele>
        <time>2013-02-17T11:04:20Z</time>
      </trkpt>
      <trkpt lat="48.44945" lon="2.66571">
        <ele>135.808</ele>
        <time>2013-02-17T11:04:26Z</time>
      </trkpt>
      <trkpt lat="48.44979" lon="2.66602">
        <ele>135.864</ele>
        <time>2013-02-17T11:04:35Z</time>
      </trkpt>
      <trkpt lat="48.45008" lon="2.6664">
        <ele>136.217</ele>
        <time>2013-02-17T11:04:44Z</time>
      </trkpt>
      <trkpt lat="48.45009" lon="2.66642">
        <ele>136.331</ele>
        <time>2013-02-17T11:04:48Z</time>
      </trkpt>
      <trkpt lat="48.45043" lon="2.66675">
        <ele>136.085</ele>
        <time>2013-02-17T11:04:54Z</time>
      </trkpt>
      <trkpt lat="48.45063" lon="2.66694">
        <ele>136.032</ele>
        <time>2013-02-17T11:05:00Z</time>
      </trkpt>
      <trkpt lat="48.4509" lon="2.66721">
        <ele>135.866</ele>
        <time>2013-02-17T11:05:07Z</time>
      </trkpt>
      <trkpt lat="48.45123" lon="2.66754">
        <ele>135.404</ele>
        <time>2013-02-17T11:05:15Z</time>
      </trkpt>
      <trkpt lat="48.45147" lon="2.66777">
        <ele>134.917</ele>
        <time>2013-02-17T11:05:21Z</time>
      </trkpt>
      <trkpt lat="48.45164" lon="2.66793">
        <ele>134.503</ele>
        <time>2013-02-17T11:05:25Z</time>
      </trkpt>
      <trkpt lat="48.4519" lon="2.6682">
        <ele>133.705</ele>
        <time>2013-02-17T11:05:32Z</time>
      </trkpt>
      <trkpt lat="48.45219" lon="2.66848">
        <ele>133.122</ele>
        <time>2013-02-17T11:05:39Z</time>
      </trkpt>
      <trkpt lat="48.45244" lon="2.66872">
        <ele>132.752</ele>
        <time>2013-02-17T11:05:45Z</time>
      </trkpt>
      <trkpt lat="48.45262" lon="2.6689">
        <ele>132.156</ele>
        <time>2013-02-17T11:05:49Z</time>
      </trkpt>
      <trkpt lat="48.45275" lon="2.66903">
        <ele>131.07</ele>
        <time>2013-02-17T11:05:53Z</time>
      </trkpt>
      <trkpt lat="48.45279" lon="2.66889">
        <ele>130.785</ele>
        <time>2013-02-17T11:05:54Z</time>
      </trkpt>
      <trkpt lat="48.45287" lon="2.66861">
        <ele>129.952</ele>
        <time>2013-02-17T11:06:00Z</time>
      </trkpt>
      <trkpt lat="48.45288" lon="2.66855">
        <ele>129.984</ele>
        <time>2013-02-17T11:06:01Z</time>
      </trkpt>
      <trkpt lat="48.45297" lon="2.66832">
        <ele>130.025</ele>
        <time>2013-02-17T11:06:05Z</time>
      </trkpt>
      <trkpt lat="48.45308" lon="2.66813">
        <ele>130.054</ele>
        <time>2013-02-17T11:06:08Z</time>
      </trkpt>
      <trkpt lat="48.45321" lon="2.66798">
        <ele>129.643</ele>
        <time>2013-02-17T11:06:11Z</time>
      </trkpt>
      <trkpt lat="48.45352" lon="2.66776">
        <ele>128.36</ele>
        <time>2013-02-17T11:06:17Z</time>
      </trkpt>
      <trkpt lat="48.4537" lon="2.66765">
        <ele>127.722</ele>
        <time>2013-02-17T11:06:20Z</time>
      </trkpt>
      <trkpt lat="48.45397" lon="2.66769">
        <ele>127.038</ele>
        <time>2013-02-17T11:06:24Z</time>
      </trkpt>
      <trkpt lat="48.45402" lon="2.66775">
        <ele>126.899</ele>
        <time>2013-02-17T11:06:25Z</time>
      </trkpt>
      <trkpt lat="48.45387" lon="2.66802">
        <ele>126.487</ele>
        <time>2013-02-17T11:06:29Z</time>
      </trkpt>
      <trkpt lat="48.45385" lon="2.66906">
        <ele>125.682</ele>
        <time>2013-02-17T11:06:33Z</time>
      </trkpt>
      <trkpt lat="48.45416" lon="2.66759">
        <ele>125.074</ele>
        <time>2013-02-17T11:06:36Z</time>
      </trkpt>
      <trkpt lat="48.45419" lon="2.66753">
        <ele>124.854</ele>
        <time>2013-02-17T11:06:38Z</time>
      </trkpt>
      <trkpt lat="48.45422" lon="2.66741">
        <ele>124.634</ele>
        <time>2013-02-17T11:06:42Z</time>
      </trkpt>
      <trkpt lat="48.45424" lon="2.66717">
        <ele>124.705</ele>
        <time>2013-02-17T11:06:48Z</time>
      </trkpt>
      <trkpt lat="48.45424" lon="2.66717">
        <ele>124.821</ele>
        <time>2013-02-17T11:06:49Z</time>
      </trkpt>
      <trkpt lat="48.45409" lon="2.66674">
        <ele>125.844</ele>
        <time>2013-02-17T11:06:57Z</time>
      </trkpt>
      <trkpt lat="48.45397" lon="2.66643">
        <ele>126.706</ele>
        <time>2013-02-17T11:07:03Z</time>
      </trkpt>
      <trkpt lat="48.4539" lon="2.66629">
        <ele>126.964</ele>
        <time>2013-02-17T11:07:06Z</time>
      </trkpt>
      <trkpt lat="48.45388" lon="2.66617">
        <ele>127.129</ele>
        <time>2013-02-17T11:07:08Z</time>
      </trkpt>
      <trkpt lat="48.45387" lon="2.66598">
        <ele>127.28</ele>
        <time>2013-02-17T11:07:11Z</time>
      </trkpt>
      <trkpt lat="48.45393" lon="2.66573">
        <ele>127.448</ele>
        <time>2013-02-17T11:07:15Z</time>
      </trkpt>
      <trkpt lat="48.45408" lon="2.66546">
        <ele>127.238</ele>
        <time>2013-02-17T11:07:20Z</time>
      </trkpt>
      <trkpt lat="48.45413" lon="2.66523">
        <ele>126.668</ele>
        <time>2013-02-17T11:07:24Z</time>
      </trkpt>
      <trkpt lat="48.45412" lon="2.66518">
        <ele>126.591</ele>
        <time>2013-02-17T11:07:25Z</time>
      </trkpt>
      <trkpt lat="48.45405" lon="2.665">
        <ele>126.727</ele>
        <time>2013-02-17T11:07:31Z</time>
      </trkpt>
      <trkpt lat="48.45394" lon="2.6648">
        <ele>127.321</ele>
        <time>2013-02-17T11:07:37Z</time>
      </trkpt>
      <trkpt lat="48.45381" lon="2.66454">
        <ele>127.869</ele>
        <time>2013-02-17T11:07:44Z</time>
      </trkpt>
      <trkpt lat="48.45365" lon="2.66423">
        <ele>128.519</ele>
        <time>2013-02-17T11:07:52Z</time>
      </trkpt>
      <trkpt lat="48.45358" lon="2.66396">
        <ele>129.104</ele>
        <time>2013-02-17T11:07:58Z</time>
      </trkpt>
      <trkpt lat="48.45358" lon="2.66369">
        <ele>129.246</ele>
        <time>2013-02-17T11:08:03Z</time>
      </trkpt>
      <trkpt lat="48.4536" lon="2.66331">
        <ele>129.37</ele>
        <time>2013-02-17T11:08:09Z</time>
      </trkpt>
      <trkpt lat="48.45361" lon="2.66264">
        <ele>129.581</ele>
        <time>2013-02-17T11:08:19Z</time>
      </trkpt>
      <trkpt lat="48.45361" lon="2.66244">
        <ele>129.724</ele>
        <time>2013-02-17T11:08:22Z</time>
      </trkpt>
      <trkpt lat="48.45365" lon="2.66211">
        <ele>129.951</ele>
        <time>2013-02-17T11:08:27Z</time>
      </trkpt>
      <trkpt lat="48.45369" lon="2.66206">
        <ele>129.964</ele>
        <time>2013-02-17T11:08:28Z</time>
      </trkpt>
      <trkpt lat="48.45409" lon="2.66172">
        <ele>130.43</ele>
        <time>2013-02-17T11:08:38Z</time>
      </trkpt>
      <trkpt lat="48.45446" lon="2.66148">
        <ele>131.239</ele>
        <time>2013-02-17T11:08:47Z</time>
      </trkpt>
      <trkpt lat="48.45479" lon="2.6613">
        <ele>131.285</ele>
        <time>2013-02-17T11:08:54Z</time>
      </trkpt>
      <trkpt lat="48.45501" lon="2.66111">
        <ele>130.802</ele>
        <time>2013-02-17T11:08:59Z</time>
      </trkpt>
      <trkpt lat="48.45531" lon="2.66084">
        <ele>129.895</ele>
        <time>2013-02-17T11:09:05Z</time>
      </trkpt>
      <trkpt lat="48.45574" lon="2.66054">
        <ele>129.258</ele>
        <time>2013-02-17T11:09:13Z</time>
      </trkpt>
      <trkpt lat="48.45579" lon="2.66049">
        <ele>129.22</ele>
        <time>2013-02-17T11:09:14Z</time>
      </trkpt>
      <trkpt lat="48.45607" lon="2.66023">
        <ele>128.023</ele>
        <time>2013-02-17T11:09:19Z</time>
      </trkpt>
      <trkpt lat="48.45625" lon="2.66">
        <ele>126.616</ele>
        <time>2013-02-17T11:09:23Z</time>
      </trkpt>
      <trkpt lat="48.45634" lon="2.65956">
        <ele>125.914</ele>
        <time>2013-02-17T11:09:28Z</time>
      </trkpt>
      <trkpt lat="48.45646" lon="2.65889">
        <ele>125.982</ele>
        <time>2013-02-17T11:09:35Z</time>
      </trkpt>
      <trkpt lat="48.45664" lon="2.65831">
        <ele>124.576</ele>
        <time>2013-02-17T11:09:41Z</time>
      </trkpt>
      <trkpt lat="48.45679" lon="2.65799">
        <ele>123.807</ele>
        <time>2013-02-17T11:09:45Z</time>
      </trkpt>
      <trkpt lat="48.45706" lon="2.65772">
        <ele>123.493</ele>
        <time>2013-02-17T11:09:50Z</time>
      </trkpt>
      <trkpt lat="48.45742" lon="2.6576">
        <ele>123.371</ele>
        <time>2013-02-17T11:09:56Z</time>
      </trkpt>
      <trkpt lat="48.45746" lon="2.65759">
        <ele>123.243</ele>
        <time>2013-02-17T11:09:57Z</time>
      </trkpt>
      <trkpt lat="48.4575" lon="2.65758">
        <ele>122.849</ele>
        <time>2013-02-17T11:10:01Z</time>
      </trkpt>
      <trkpt lat="48.45742" lon="2.65744">
        <ele>122.98</ele>
        <time>2013-02-17T11:10:07Z</time>
      </trkpt>
      <trkpt lat="48.45728" lon="2.6573">
        <ele>124.008</ele>
        <time>2013-02-17T11:10:12Z</time>
      </trkpt>
      <trkpt lat="48.45706" lon="2.65708">
        <ele>125.771</ele>
        <time>2013-02-17T11:10:20Z</time>
      </trkpt>
      <trkpt lat="48.45688" lon="2.65691">
        <ele>126.613</ele>
        <time>2013-02-17T11:10:26Z</time>
      </trkpt>
      <trkpt lat="48.45662" lon="2.65665">
        <ele>127.735</ele>
        <time>2013-02-17T11:10:35Z</time>
      </trkpt>
      <trkpt lat="48.45636" lon="2.6564">
        <ele>128.759</ele>
        <time>2013-02-17T11:10:43Z</time>
      </trkpt>
      <trkpt lat="48.45606" lon="2.65604">
        <ele>129.927</ele>
        <time>2013-02-17T11:10:53Z</time>
      </trkpt>
      <trkpt lat="48.4558" lon="2.65573">
        <ele>130.56</ele>
        <time>2013-02-17T11:11:01Z</time>
      </trkpt>
      <trkpt lat="48.45553" lon="2.65546">
        <ele>130.986</ele>
        <time>2013-02-17T11:11:09Z</time>
      </trkpt>
      <trkpt lat="48.4554" lon="2.65533">
        <ele>131.119</ele>
        <time>2013-02-17T11:11:14Z</time>
      </trkpt>
      <trkpt lat="48.45531" lon="2.65508">
        <ele>131.585</ele>
        <time>2013-02-17T11:11:20Z</time>
      </trkpt>
      <trkpt lat="48.45517" lon="2.65462">
        <ele>131.476</ele>
        <time>2013-02-17T11:11:28Z</time>
      </trkpt>
      <trkpt lat="48.45507" lon="2.65422">
        <ele>131.474</ele>
        <time>2013-02-17T11:11:34Z</time>
      </trkpt>
      <trkpt lat="48.45505" lon="2.65414">
        <ele>131.479</ele>
        <time>2013-02-17T11:11:35Z</time>
      </trkpt>
      <trkpt lat="48.45497" lon="2.65377">
        <ele>131.615</ele>
        <time>2013-02-17T11:11:40Z</time>
      </trkpt>
      <trkpt lat="48.45488" lon="2.65323">
        <ele>132.156</ele>
        <time>2013-02-17T11:11:47Z</time>
      </trkpt>
      <trkpt lat="48.45484" lon="2.65294">
        <ele>132.426</ele>
        <time>2013-02-17T11:11:51Z</time>
      </trkpt>
      <trkpt lat="48.45479" lon="2.65257">
        <ele>132.349</ele>
        <time>2013-02-17T11:11:56Z</time>
      </trkpt>
      <trkpt lat="48.45473" lon="2.65213">
        <ele>132.188</ele>
        <time>2013-02-17T11:12:02Z</time>
      </trkpt>
      <trkpt lat="48.4547" lon="2.65187">
        <ele>132.176</ele>
        <time>2013-02-17T11:12:06Z</time>
      </trkpt>
      <trkpt lat="48.45466" lon="2.65156">
        <ele>132.13</ele>
        <time>2013-02-17T11:12:10Z</time>
      </trkpt>
      <trkpt lat="48.45462" lon="2.65127">
        <ele>132.089</ele>
        <time>2013-02-17T11:12:14Z</time>
      </trkpt>
      <trkpt lat="48.45457" lon="2.6508">
        <ele>132.566</ele>
        <time>2013-02-17T11:12:20Z</time>
      </trkpt>
      <trkpt lat="48.45453" lon="2.65044">
        <ele>132.461</ele>
        <time>2013-02-17T11:12:25Z</time>
      </trkpt>
      <trkpt lat="48.45451" lon="2.65026">
        <ele>132.294</ele>
        <time>2013-02-17T11:12:31Z</time>
      </trkpt>
      <trkpt lat="48.45421" lon="2.65003">
        <ele>132.703</ele>
        <time>2013-02-17T11:12:37Z</time>
      </trkpt>
      <trkpt lat="48.45403" lon="2.6499">
        <ele>133.072</ele>
        <time>2013-02-17T11:12:43Z</time>
      </trkpt>
      <trkpt lat="48.4538" lon="2.64973">
        <ele>133.487</ele>
        <time>2013-02-17T11:12:51Z</time>
      </trkpt>
      <trkpt lat="48.45354" lon="2.64955">
        <ele>134.061</ele>
        <time>2013-02-17T11:12:59Z</time>
      </trkpt>
      <trkpt lat="48.45329" lon="2.64937">
        <ele>134.306</ele>
        <time>2013-02-17T11:13:07Z</time>
      </trkpt>
      <trkpt lat="48.45322" lon="2.64931">
        <ele>134.364</ele>
        <time>2013-02-17T11:13:09Z</time>
      </trkpt>
      <trkpt lat="48.45307" lon="2.64918">
        <ele>134.528</ele>
        <time>2013-02-17T11:13:14Z</time>
      </trkpt>
      <trkpt lat="48.45294" lon="2.64907">
        <ele>134.605</ele>
        <time>2013-02-17T11:13:20Z</time>
      </trkpt>
      <trkpt lat="48.45285" lon="2.64898">
        <ele>134.738</ele>
        <time>2013-02-17T11:13:25Z</time>
      </trkpt>
      <trkpt lat="48.45266" lon="2.64881">
        <ele>135.015</ele>
        <time>2013-02-17T11:13:32Z</time>
      </trkpt>
      <trkpt lat="48.45243" lon="2.6486">
        <ele>135.319</ele>
        <time>2013-02-17T11:13:39Z</time>
      </trkpt>
      <trkpt lat="48.45216" lon="2.6484">
        <ele>135.782</ele>
        <time>2013-02-17T11:13:46Z</time>
      </trkpt>
      <trkpt lat="48.45196" lon="2.6483">
        <ele>135.589</ele>
        <time>2013-02-17T11:13:52Z</time>
      </trkpt>
      <trkpt lat="48.45199" lon="2.64806">
        <ele>135.494</ele>
        <time>2013-02-17T11:13:58Z</time>
      </trkpt>
      <trkpt lat="48.45206" lon="2.64781">
        <ele>135.695</ele>
        <time>2013-02-17T11:14:04Z</time>
      </trkpt>
      <trkpt lat="48.45216" lon="2.64747">
        <ele>135.755</ele>
        <time>2013-02-17T11:14:10Z</time>
      </trkpt>
      <trkpt lat="48.45218" lon="2.64742">
        <ele>135.674</ele>
        <time>2013-02-17T11:14:11Z</time>
      </trkpt>
      <trkpt lat="48.45225" lon="2.64715">
        <ele>135.597</ele>
        <time>2013-02-17T11:14:15Z</time>
      </trkpt>
      <trkpt lat="48.4523" lon="2.64694">
        <ele>135.653</ele>
        <time>2013-02-17T11:14:18Z</time>
      </trkpt>
      <trkpt lat="48.4524" lon="2.64653">
        <ele>135.76</ele>
        <time>2013-02-17T11:14:24Z</time>
      </trkpt>
      <trkpt lat="48.45257" lon="2.64599">
        <ele>135.723</ele>
        <time>2013-02-17T11:14:32Z</time>
      </trkpt>
      <trkpt lat="48.45273" lon="2.64545">
        <ele>136.047</ele>
        <time>2013-02-17T11:14:40Z</time>
      </trkpt>
      <trkpt lat="48.4528" lon="2.64518">
        <ele>135.83</ele>
        <time>2013-02-17T11:14:44Z</time>
      </trkpt>
      <trkpt lat="48.45287" lon="2.64492">
        <ele>135.294</ele>
        <time>2013-02-17T11:14:48Z</time>
      </trkpt>
      <trkpt lat="48.45295" lon="2.6446">
        <ele>134.854</ele>
        <time>2013-02-17T11:14:53Z</time>
      </trkpt>
      <trkpt lat="48.45299" lon="2.64448">
        <ele>134.815</ele>
        <time>2013-02-17T11:14:55Z</time>
      </trkpt>
      <trkpt lat="48.45313" lon="2.64394">
        <ele>134.671</ele>
        <time>2013-02-17T11:15:03Z</time>
      </trkpt>
      <trkpt lat="48.45323" lon="2.64357">
        <ele>134.287</ele>
        <time>2013-02-17T11:15:09Z</time>
      </trkpt>
      <trkpt lat="48.45336" lon="2.64309">
        <ele>134.112</ele>
        <time>2013-02-17T11:15:17Z</time>
      </trkpt>
      <trkpt lat="48.45351" lon="2.64257">
        <ele>133.421</ele>
        <time>2013-02-17T11:15:25Z</time>
      </trkpt>
      <trkpt lat="48.45365" lon="2.64209">
        <ele>133.492</ele>
        <time>2013-02-17T11:15:32Z</time>
      </trkpt>
      <trkpt lat="48.45381" lon="2.64155">
        <ele>133.358</ele>
        <time>2013-02-17T11:15:40Z</time>
      </trkpt>
      <trkpt lat="48.45391" lon="2.64119">
        <ele>133.31</ele>
        <time>2013-02-17T11:15:45Z</time>
      </trkpt>
      <trkpt lat="48.45398" lon="2.64093">
        <ele>133.031</ele>
        <time>2013-02-17T11:15:49Z</time>
      </trkpt>
      <trkpt lat="48.4541" lon="2.64085">
        <ele>132.694</ele>
        <time>2013-02-17T11:15:52Z</time>
      </trkpt>
      <trkpt lat="48.45456" lon="2.64112">
        <ele>132.612</ele>
        <time>2013-02-17T11:16:03Z</time>
      </trkpt>
      <trkpt lat="48.455" lon="2.64137">
        <ele>132.423</ele>
        <time>2013-02-17T11:16:12Z</time>
      </trkpt>
      <trkpt lat="48.45549" lon="2.64169">
        <ele>131.991</ele>
        <time>2013-02-17T11:16:22Z</time>
      </trkpt>
      <trkpt lat="48.45569" lon="2.64171">
        <ele>131.602</ele>
        <time>2013-02-17T11:16:26Z</time>
      </trkpt>
      <trkpt lat="48.45605" lon="2.64161">
        <ele>131.033</ele>
        <time>2013-02-17T11:16:34Z</time>
      </trkpt>
      <trkpt lat="48.45644" lon="2.64151">
        <ele>131.167</ele>
        <time>2013-02-17T11:16:42Z</time>
      </trkpt>
      <trkpt lat="48.45664" lon="2.64147">
        <ele>131.248</ele>
        <time>2013-02-17T11:16:46Z</time>
      </trkpt>
      <trkpt lat="48.45684" lon="2.6415">
        <ele>131.073</ele>
        <time>2013-02-17T11:16:50Z</time>
      </trkpt>
      <trkpt lat="48.45692" lon="2.64161">
        <ele>131.082</ele>
        <time>2013-02-17T11:16:52Z</time>
      </trkpt>
      <trkpt lat="48.457" lon="2.64179">
        <ele>131.2</ele>
        <time>2013-02-17T11:16:55Z</time>
      </trkpt>
      <trkpt lat="48.45719" lon="2.64233">
        <ele>130.952</ele>
        <time>2013-02-17T11:17:03Z</time>
      </trkpt>
      <trkpt lat="48.45723" lon="2.64246">
        <ele>130.818</ele>
        <time>2013-02-17T11:17:05Z</time>
      </trkpt>
      <trkpt lat="48.45738" lon="2.64287">
        <ele>130.748</ele>
        <time>2013-02-17T11:17:11Z</time>
      </trkpt>
      <trkpt lat="48.45746" lon="2.64306">
        <ele>130.67</ele>
        <time>2013-02-17T11:17:14Z</time>
      </trkpt>
      <trkpt lat="48.45756" lon="2.64332">
        <ele>130.611</ele>
        <time>2013-02-17T11:17:18Z</time>
      </trkpt>
      <trkpt lat="48.45775" lon="2.64381">
        <ele>130.218</ele>
        <time>2013-02-17T11:17:25Z</time>
      </trkpt>
      <trkpt lat="48.45795" lon="2.6443">
        <ele>129.515</ele>
        <time>2013-02-17T11:17:32Z</time>
      </trkpt>
      <trkpt lat="48.45799" lon="2.64445">
        <ele>129.323</ele>
        <time>2013-02-17T11:17:34Z</time>
      </trkpt>
      <trkpt lat="48.45803" lon="2.64461">
        <ele>129.163</ele>
        <time>2013-02-17T11:17:36Z</time>
      </trkpt>
      <trkpt lat="48.45816" lon="2.64479">
        <ele>128.435</ele>
        <time>2013-02-17T11:17:40Z</time>
      </trkpt>
      <trkpt lat="48.45816" lon="2.64479">
        <ele>128.015</ele>
        <time>2013-02-17T11:17:42Z</time>
      </trkpt>
      <trkpt lat="48.45858" lon="2.64465">
        <ele>126.869</ele>
        <time>2013-02-17T11:17:48Z</time>
      </trkpt>
      <trkpt lat="48.45891" lon="2.64463">
        <ele>125.168</ele>
        <time>2013-02-17T11:17:53Z</time>
      </trkpt>
      <trkpt lat="48.45904" lon="2.64462">
        <ele>122.598</ele>
        <time>2013-02-17T11:17:57Z</time>
      </trkpt>
      <trkpt lat="48.45907" lon="2.64488">
        <ele>120.656</ele>
        <time>2013-02-17T11:18:01Z</time>
      </trkpt>
      <trkpt lat="48.45909" lon="2.64513">
        <ele>120.566</ele>
        <time>2013-02-17T11:18:06Z</time>
      </trkpt>
      <trkpt lat="48.45915" lon="2.64536">
        <ele>121.304</ele>
        <time>2013-02-17T11:18:10Z</time>
      </trkpt>
      <trkpt lat="48.45923" lon="2.64558">
        <ele>121.827</ele>
        <time>2013-02-17T11:18:15Z</time>
      </trkpt>
      <trkpt lat="48.45934" lon="2.64582">
        <ele>121.68</ele>
        <time>2013-02-17T11:18:20Z</time>
      </trkpt>
      <trkpt lat="48.45943" lon="2.64601">
        <ele>121.586</ele>
        <time>2013-02-17T11:18:23Z</time>
      </trkpt>
      <trkpt lat="48.45951" lon="2.64633">
        <ele>121.586</ele>
        <time>2013-02-17T11:18:28Z</time>
      </trkpt>
      <trkpt lat="48.45951" lon="2.6464">
        <ele>121.699</ele>
        <time>2013-02-17T11:18:29Z</time>
      </trkpt>
      <trkpt lat="48.45951" lon="2.64662">
        <ele>121.945</ele>
        <time>2013-02-17T11:18:32Z</time>
      </trkpt>
      <trkpt lat="48.45952" lon="2.64676">
        <ele>122.08</ele>
        <time>2013-02-17T11:18:34Z</time>
      </trkpt>
      <trkpt lat="48.45953" lon="2.64691">
        <ele>122.12</ele>
        <time>2013-02-17T11:18:36Z</time>
      </trkpt>
      <trkpt lat="48.45954" lon="2.64721">
        <ele>121.661</ele>
        <time>2013-02-17T11:18:41Z</time>
      </trkpt>
      <trkpt lat="48.45953" lon="2.6473">
        <ele>121.032</ele>
        <time>2013-02-17T11:18:46Z</time>
      </trkpt>
      <trkpt lat="48.45951" lon="2.64748">
        <ele>120.871</ele>
        <time>2013-02-17T11:18:52Z</time>
      </trkpt>
      <trkpt lat="48.45948" lon="2.64764">
        <ele>120.772</ele>
        <time>2013-02-17T11:18:56Z</time>
      </trkpt>
      <trkpt lat="48.45943" lon="2.64776">
        <ele>120.429</ele>
        <time>2013-02-17T11:19:00Z</time>
      </trkpt>
      <trkpt lat="48.45936" lon="2.64788">
        <ele>120.226</ele>
        <time>2013-02-17T11:19:05Z</time>
      </trkpt>
      <trkpt lat="48.45918" lon="2.64801">
        <ele>120.367</ele>
        <time>2013-02-17T11:19:11Z</time>
      </trkpt>
      <trkpt lat="48.45903" lon="2.64811">
        <ele>120.828</ele>
        <time>2013-02-17T11:19:16Z</time>
      </trkpt>
      <trkpt lat="48.45882" lon="2.64819">
        <ele>121.66</ele>
        <time>2013-02-17T11:19:22Z</time>
      </trkpt>
      <trkpt lat="48.45852" lon="2.64836">
        <ele>121.983</ele>
        <time>2013-02-17T11:19:29Z</time>
      </trkpt>
      <trkpt lat="48.45844" lon="2.64839">
        <ele>122.012</ele>
        <time>2013-02-17T11:19:31Z</time>
      </trkpt>
      <trkpt lat="48.45839" lon="2.64834">
        <ele>122.01</ele>
        <time>2013-02-17T11:19:34Z</time>
      </trkpt>
      <trkpt lat="48.45825" lon="2.64972">
        <ele>122.762</ele>
        <time>2013-02-17T11:19:39Z</time>
      </trkpt>
      <trkpt lat="48.45802" lon="2.64913">
        <ele>123.885</ele>
        <time>2013-02-17T11:19:45Z</time>
      </trkpt>
      <trkpt lat="48.4581" lon="2.64943">
        <ele>124.322</ele>
        <time>2013-02-17T11:19:50Z</time>
      </trkpt>
      <trkpt lat="48.45828" lon="2.64979">
        <ele>124.089</ele>
        <time>2013-02-17T11:19:56Z</time>
      </trkpt>
      <trkpt lat="48.4585" lon="2.6502">
        <ele>124.216</ele>
        <time>2013-02-17T11:20:03Z</time>
      </trkpt>
      <trkpt lat="48.45859" lon="2.65047">
        <ele>123.496</ele>
        <time>2013-02-17T11:20:08Z</time>
      </trkpt>
      <trkpt lat="48.45863" lon="2.65068">
        <ele>122.863</ele>
        <time>2013-02-17T11:20:12Z</time>
      </trkpt>
      <trkpt lat="48.45866" lon="2.65094">
        <ele>122.94</ele>
        <time>2013-02-17T11:20:17Z</time>
      </trkpt>
      <trkpt lat="48.45863" lon="2.65111">
        <ele>122.966</ele>
        <time>2013-02-17T11:20:21Z</time>
      </trkpt>
      <trkpt lat="48.45855" lon="2.65128">
        <ele>122.845</ele>
        <time>2013-02-17T11:20:25Z</time>
      </trkpt>
      <trkpt lat="48.45851" lon="2.65131">
        <ele>122.863</ele>
        <time>2013-02-17T11:20:26Z</time>
      </trkpt>
      <trkpt lat="48.45832" lon="2.65142">
        <ele>122.931</ele>
        <time>2013-02-17T11:20:31Z</time>
      </trkpt>
      <trkpt lat="48.45811" lon="2.65154">
        <ele>123.024</ele>
        <time>2013-02-17T11:20:36Z</time>
      </trkpt>
      <trkpt lat="48.45789" lon="2.65171">
        <ele>123.066</ele>
        <time>2013-02-17T11:20:41Z</time>
      </trkpt>
      <trkpt lat="48.45783" lon="2.65177">
        <ele>123.162</ele>
        <time>2013-02-17T11:20:42Z</time>
      </trkpt>
      <trkpt lat="48.45768" lon="2.65204">
        <ele>123.691</ele>
        <time>2013-02-17T11:20:47Z</time>
      </trkpt>
      <trkpt lat="48.45759" lon="2.65244">
        <ele>124.449</ele>
        <time>2013-02-17T11:20:53Z</time>
      </trkpt>
      <trkpt lat="48.45758" lon="2.65259">
        <ele>124.743</ele>
        <time>2013-02-17T11:20:56Z</time>
      </trkpt>
      <trkpt lat="48.45763" lon="2.6526">
        <ele>124.647</ele>
        <time>2013-02-17T11:21:01Z</time>
      </trkpt>
      <trkpt lat="48.45766" lon="2.65255">
        <ele>124.343</ele>
        <time>2013-02-17T11:21:07Z</time>
      </trkpt>
      <trkpt lat="48.45768" lon="2.65252">
        <ele>124.328</ele>
        <time>2013-02-17T11:21:08Z</time>
      </trkpt>
      <trkpt lat="48.4578" lon="2.6523">
        <ele>123.774</ele>
        <time>2013-02-17T11:21:12Z</time>
      </trkpt>
      <trkpt lat="48.45787" lon="2.65215">
        <ele>123.039</ele>
        <time>2013-02-17T11:21:14Z</time>
      </trkpt>
      <trkpt lat="48.45812" lon="2.6519">
        <ele>121.14</ele>
        <time>2013-02-17T11:21:18Z</time>
      </trkpt>
      <trkpt lat="48.4582" lon="2.65187">
        <ele>120.595</ele>
        <time>2013-02-17T11:21:19Z</time>
      </trkpt>
      <trkpt lat="48.45873" lon="2.65179">
        <ele>116.431</ele>
        <time>2013-02-17T11:21:25Z</time>
      </trkpt>
      <trkpt lat="48.45904" lon="2.65172">
        <ele>113.588</ele>
        <time>2013-02-17T11:21:28Z</time>
      </trkpt>
      <trkpt lat="48.45915" lon="2.65169">
        <ele>112.639</ele>
        <time>2013-02-17T11:21:29Z</time>
      </trkpt>
      <trkpt lat="48.45947" lon="2.65159">
        <ele>109.759</ele>
        <time>2013-02-17T11:21:32Z</time>
      </trkpt>
      <trkpt lat="48.45978" lon="2.65145">
        <ele>108.017</ele>
        <time>2013-02-17T11:21:35Z</time>
      </trkpt>
      <trkpt lat="48.46036" lon="2.65114">
        <ele>102.837</ele>
        <time>2013-02-17T11:21:41Z</time>
      </trkpt>
      <trkpt lat="48.46083" lon="2.65087">
        <ele>98.37</ele>
        <time>2013-02-17T11:21:46Z</time>
      </trkpt>
      <trkpt lat="48.46102" lon="2.65076">
        <ele>96.748</ele>
        <time>2013-02-17T11:21:48Z</time>
      </trkpt>
      <trkpt lat="48.4612" lon="2.65067">
        <ele>95.228</ele>
        <time>2013-02-17T11:21:50Z</time>
      </trkpt>
      <trkpt lat="48.46138" lon="2.65058">
        <ele>93.146</ele>
        <time>2013-02-17T11:21:54Z</time>
      </trkpt>
      <trkpt lat="48.46165" lon="2.65058">
        <ele>92.686</ele>
        <time>2013-02-17T11:21:56Z</time>
      </trkpt>
      <trkpt lat="48.46194" lon="2.65069">
        <ele>92.913</ele>
        <time>2013-02-17T11:22:01Z</time>
      </trkpt>
      <trkpt lat="48.46198" lon="2.6507">
        <ele>93.111</ele>
        <time>2013-02-17T11:22:02Z</time>
      </trkpt>
      <trkpt lat="48.46212" lon="2.65073">
        <ele>94.174</ele>
        <time>2013-02-17T11:22:06Z</time>
      </trkpt>
      <trkpt lat="48.46216" lon="2.65072">
        <ele>94.32</ele>
        <time>2013-02-17T11:22:07Z</time>
      </trkpt>
      <trkpt lat="48.46241" lon="2.65069">
        <ele>94.632</ele>
        <time>2013-02-17T11:22:12Z</time>
      </trkpt>
      <trkpt lat="48.46249" lon="2.65068">
        <ele>94.897</ele>
        <time>2013-02-17T11:22:14Z</time>
      </trkpt>
      <trkpt lat="48.46276" lon="2.65117">
        <ele>96.224</ele>
        <time>2013-02-17T11:22:20Z</time>
      </trkpt>
      <trkpt lat="48.46289" lon="2.6513">
        <ele>96.463</ele>
        <time>2013-02-17T11:22:24Z</time>
      </trkpt>
      <trkpt lat="48.46296" lon="2.65136">
        <ele>96.41</ele>
        <time>2013-02-17T11:22:26Z</time>
      </trkpt>
      <trkpt lat="48.46319" lon="2.65151">
        <ele>95.914</ele>
        <time>2013-02-17T11:22:31Z</time>
      </trkpt>
      <trkpt lat="48.46339" lon="2.65173">
        <ele>94.378</ele>
        <time>2013-02-17T11:22:34Z</time>
      </trkpt>
      <trkpt lat="48.46369" lon="2.65205">
        <ele>90.243</ele>
        <time>2013-02-17T11:22:38Z</time>
      </trkpt>
      <trkpt lat="48.46423" lon="2.65225">
        <ele>84.518</ele>
        <time>2013-02-17T11:22:44Z</time>
      </trkpt>
      <trkpt lat="48.46471" lon="2.65241">
        <ele>81.236</ele>
        <time>2013-02-17T11:22:50Z</time>
      </trkpt>
      <trkpt lat="48.46512" lon="2.65254">
        <ele>79.74</ele>
        <time>2013-02-17T11:22:56Z</time>
      </trkpt>
      <trkpt lat="48.46543" lon="2.65267">
        <ele>79.153</ele>
        <time>2013-02-17T11:23:01Z</time>
      </trkpt>
      <trkpt lat="48.46572" lon="2.65276">
        <ele>79.112</ele>
        <time>2013-02-17T11:23:06Z</time>
      </trkpt>
      <trkpt lat="48.46589" lon="2.65277">
        <ele>78.999</ele>
        <time>2013-02-17T11:23:09Z</time>
      </trkpt>
      <trkpt lat="48.46623" lon="2.65266">
        <ele>79.052</ele>
        <time>2013-02-17T11:23:15Z</time>
      </trkpt>
      <trkpt lat="48.46656" lon="2.65254">
        <ele>79.329</ele>
        <time>2013-02-17T11:23:21Z</time>
      </trkpt>
      <trkpt lat="48.46671" lon="2.6525">
        <ele>79.307</ele>
        <time>2013-02-17T11:23:24Z</time>
      </trkpt>
      <trkpt lat="48.46682" lon="2.65248">
        <ele>79.186</ele>
        <time>2013-02-17T11:23:26Z</time>
      </trkpt>
      <trkpt lat="48.46685" lon="2.65247">
        <ele>78.908</ele>
        <time>2013-02-17T11:23:30Z</time>
      </trkpt>
      <trkpt lat="48.46715" lon="2.65286">
        <ele>78.241</ele>
        <time>2013-02-17T11:23:37Z</time>
      </trkpt>
      <trkpt lat="48.46732" lon="2.65316">
        <ele>78.035</ele>
        <time>2013-02-17T11:23:44Z</time>
      </trkpt>
      <trkpt lat="48.46743" lon="2.65336">
        <ele>77.583</ele>
        <time>2013-02-17T11:23:50Z</time>
      </trkpt>
      <trkpt lat="48.46752" lon="2.65349">
        <ele>77.557</ele>
        <time>2013-02-17T11:23:55Z</time>
      </trkpt>
      <trkpt lat="48.46762" lon="2.65364">
        <ele>77.799</ele>
        <time>2013-02-17T11:24:00Z</time>
      </trkpt>
      <trkpt lat="48.46775" lon="2.65383">
        <ele>78.151</ele>
        <time>2013-02-17T11:24:06Z</time>
      </trkpt>
      <trkpt lat="48.46786" lon="2.654">
        <ele>78.148</ele>
        <time>2013-02-17T11:24:11Z</time>
      </trkpt>
      <trkpt lat="48.46794" lon="2.65413">
        <ele>78.002</ele>
        <time>2013-02-17T11:24:15Z</time>
      </trkpt>
      <trkpt lat="48.46804" lon="2.65427">
        <ele>78.065</ele>
        <time>2013-02-17T11:24:20Z</time>
      </trkpt>
      <trkpt lat="48.46817" lon="2.65447">
        <ele>78.295</ele>
        <time>2013-02-17T11:24:26Z</time>
      </trkpt>
      <trkpt lat="48.46834" lon="2.65472">
        <ele>78.513</ele>
        <time>2013-02-17T11:24:32Z</time>
      </trkpt>
      <trkpt lat="48.46845" lon="2.65488">
        <ele>78.921</ele>
        <time>2013-02-17T11:24:36Z</time>
      </trkpt>
      <trkpt lat="48.4686" lon="2.65512">
        <ele>78.951</ele>
        <time>2013-02-17T11:24:41Z</time>
      </trkpt>
      <trkpt lat="48.4689" lon="2.65558">
        <ele>78.661</ele>
        <time>2013-02-17T11:24:50Z</time>
      </trkpt>
      <trkpt lat="48.46896" lon="2.65568">
        <ele>78.479</ele>
        <time>2013-02-17T11:24:52Z</time>
      </trkpt>
      <trkpt lat="48.46927" lon="2.65614">
        <ele>78.212</ele>
        <time>2013-02-17T11:25:02Z</time>
      </trkpt>
      <trkpt lat="48.46942" lon="2.65638">
        <ele>78.284</ele>
        <time>2013-02-17T11:25:07Z</time>
      </trkpt>
      <trkpt lat="48.4696" lon="2.65666">
        <ele>77.947</ele>
        <time>2013-02-17T11:25:13Z</time>
      </trkpt>
      <trkpt lat="48.46983" lon="2.65701">
        <ele>77.454</ele>
        <time>2013-02-17T11:25:20Z</time>
      </trkpt>
      <trkpt lat="48.47011" lon="2.65743">
        <ele>76.873</ele>
        <time>2013-02-17T11:25:28Z</time>
      </trkpt>
      <trkpt lat="48.4702" lon="2.6576">
        <ele>76.605</ele>
        <time>2013-02-17T11:25:32Z</time>
      </trkpt>
      <trkpt lat="48.47033" lon="2.65781">
        <ele>76.684</ele>
        <time>2013-02-17T11:25:36Z</time>
      </trkpt>
      <trkpt lat="48.47055" lon="2.65813">
        <ele>76.956</ele>
        <time>2013-02-17T11:25:42Z</time>
      </trkpt>
      <trkpt lat="48.47078" lon="2.65849">
        <ele>77.163</ele>
        <time>2013-02-17T11:25:49Z</time>
      </trkpt>
      <trkpt lat="48.47096" lon="2.65876">
        <ele>77.556</ele>
        <time>2013-02-17T11:25:55Z</time>
      </trkpt>
      <trkpt lat="48.47101" lon="2.65885">
        <ele>77.438</ele>
        <time>2013-02-17T11:25:57Z</time>
      </trkpt>
      <trkpt lat="48.47126" lon="2.6587">
        <ele>77.563</ele>
        <time>2013-02-17T11:26:04Z</time>
      </trkpt>
      <trkpt lat="48.47155" lon="2.65845">
        <ele>77.707</ele>
        <time>2013-02-17T11:26:12Z</time>
      </trkpt>
      <trkpt lat="48.47188" lon="2.65818">
        <ele>77.741</ele>
        <time>2013-02-17T11:26:21Z</time>
      </trkpt>
      <trkpt lat="48.47215" lon="2.65796">
        <ele>77.904</ele>
        <time>2013-02-17T11:26:29Z</time>
      </trkpt>
      <trkpt lat="48.47243" lon="2.65772">
        <ele>77.956</ele>
        <time>2013-02-17T11:26:37Z</time>
      </trkpt>
      <trkpt lat="48.47274" lon="2.65746">
        <ele>78.562</ele>
        <time>2013-02-17T11:26:45Z</time>
      </trkpt>
      <trkpt lat="48.47312" lon="2.65714">
        <ele>79.06</ele>
        <time>2013-02-17T11:26:54Z</time>
      </trkpt>
      <trkpt lat="48.47346" lon="2.65685">
        <ele>79.766</ele>
        <time>2013-02-17T11:27:02Z</time>
      </trkpt>
      <trkpt lat="48.47374" lon="2.65664">
        <ele>79.591</ele>
        <time>2013-02-17T11:27:08Z</time>
      </trkpt>
      <trkpt lat="48.47388" lon="2.65652">
        <ele>79.504</ele>
        <time>2013-02-17T11:27:11Z</time>
      </trkpt>
      <trkpt lat="48.47409" lon="2.65634">
        <ele>79.344</ele>
        <time>2013-02-17T11:27:16Z</time>
      </trkpt>
      <trkpt lat="48.47418" lon="2.65627">
        <ele>79.342</ele>
        <time>2013-02-17T11:27:18Z</time>
      </trkpt>
      <trkpt lat="48.47426" lon="2.65619">
        <ele>79.315</ele>
        <time>2013-02-17T11:27:20Z</time>
      </trkpt>
      <trkpt lat="48.47454" lon="2.65595">
        <ele>78.993</ele>
        <time>2013-02-17T11:27:26Z</time>
      </trkpt>
      <trkpt lat="48.47478" lon="2.65575">
        <ele>78.967</ele>
        <time>2013-02-17T11:27:31Z</time>
      </trkpt>
      <trkpt lat="48.47509" lon="2.65548">
        <ele>79.251</ele>
        <time>2013-02-17T11:27:38Z</time>
      </trkpt>
      <trkpt lat="48.47546" lon="2.65516">
        <ele>79.433</ele>
        <time>2013-02-17T11:27:46Z</time>
      </trkpt>
      <trkpt lat="48.47584" lon="2.65482">
        <ele>79.52</ele>
        <time>2013-02-17T11:27:54Z</time>
      </trkpt>
      <trkpt lat="48.47614" lon="2.65456">
        <ele>79.242</ele>
        <time>2013-02-17T11:28:00Z</time>
      </trkpt>
      <trkpt lat="48.47645" lon="2.6543">
        <ele>79.177</ele>
        <time>2013-02-17T11:28:06Z</time>
      </trkpt>
      <trkpt lat="48.47655" lon="2.65421">
        <ele>79.186</ele>
        <time>2013-02-17T11:28:08Z</time>
      </trkpt>
      <trkpt lat="48.47685" lon="2.65394">
        <ele>78.673</ele>
        <time>2013-02-17T11:28:14Z</time>
      </trkpt>
      <trkpt lat="48.47715" lon="2.65369">
        <ele>78.446</ele>
        <time>2013-02-17T11:28:20Z</time>
      </trkpt>
      <trkpt lat="48.47734" lon="2.65352">
        <ele>78.628</ele>
        <time>2013-02-17T11:28:24Z</time>
      </trkpt>
      <trkpt lat="48.47748" lon="2.65339">
        <ele>78.753</ele>
        <time>2013-02-17T11:28:27Z</time>
      </trkpt>
      <trkpt lat="48.47763" lon="2.65326">
        <ele>78.77</ele>
        <time>2013-02-17T11:28:30Z</time>
      </trkpt>
      <trkpt lat="48.47795" lon="2.65299">
        <ele>78.288</ele>
        <time>2013-02-17T11:28:37Z</time>
      </trkpt>
      <trkpt lat="48.47825" lon="2.65273">
        <ele>78.186</ele>
        <time>2013-02-17T11:28:44Z</time>
      </trkpt>
      <trkpt lat="48.47854" lon="2.65249">
        <ele>78.37</ele>
        <time>2013-02-17T11:28:51Z</time>
      </trkpt>
      <trkpt lat="48.47865" lon="2.65239">
        <ele>78.496</ele>
        <time>2013-02-17T11:28:55Z</time>
      </trkpt>
      <trkpt lat="48.4787" lon="2.65235">
        <ele>78.566</ele>
        <time>2013-02-17T11:28:58Z</time>
      </trkpt>
      <trkpt lat="48.47894" lon="2.65231">
        <ele>78.684</ele>
        <time>2013-02-17T11:29:06Z</time>
      </trkpt>
      <trkpt lat="48.47899" lon="2.65237">
        <ele>78.663</ele>
        <time>2013-02-17T11:29:09Z</time>
      </trkpt>
      <trkpt lat="48.47908" lon="2.65249">
        <ele>78.806</ele>
        <time>2013-02-17T11:29:14Z</time>
      </trkpt>
      <trkpt lat="48.47914" lon="2.65257">
        <ele>78.623</ele>
        <time>2013-02-17T11:29:18Z</time>
      </trkpt>
      <trkpt lat="48.47916" lon="2.6526">
        <ele>78.51</ele>
        <time>2013-02-17T11:29:19Z</time>
      </trkpt>
      <trkpt lat="48.47911" lon="2.65297">
        <ele>78.204</ele>
        <time>2013-02-17T11:29:26Z</time>
      </trkpt>
      <trkpt lat="48.47916" lon="2.65312">
        <ele>77.887</ele>
        <time>2013-02-17T11:29:33Z</time>
      </trkpt>
      <trkpt lat="48.47921" lon="2.65327">
        <ele>77.933</ele>
        <time>2013-02-17T11:29:38Z</time>
      </trkpt>
      <trkpt lat="48.47929" lon="2.65354">
        <ele>78.307</ele>
        <time>2013-02-17T11:29:44Z</time>
      </trkpt>
      <trkpt lat="48.47938" lon="2.65382">
        <ele>78.539</ele>
        <time>2013-02-17T11:29:50Z</time>
      </trkpt>
      <trkpt lat="48.47947" lon="2.65408">
        <ele>78.757</ele>
        <time>2013-02-17T11:29:55Z</time>
      </trkpt>
      <trkpt lat="48.47958" lon="2.65443">
        <ele>78.961</ele>
        <time>2013-02-17T11:30:02Z</time>
      </trkpt>
      <trkpt lat="48.47962" lon="2.65453">
        <ele>78.945</ele>
        <time>2013-02-17T11:30:04Z</time>
      </trkpt>
      <trkpt lat="48.4798" lon="2.65508">
        <ele>79.039</ele>
        <time>2013-02-17T11:30:13Z</time>
      </trkpt>
      <trkpt lat="48.47981" lon="2.65514">
        <ele>79.049</ele>
        <time>2013-02-17T11:30:14Z</time>
      </trkpt>
      <trkpt lat="48.47986" lon="2.65527">
        <ele>78.932</ele>
        <time>2013-02-17T11:30:17Z</time>
      </trkpt>
      <trkpt lat="48.47991" lon="2.65542">
        <ele>79.013</ele>
        <time>2013-02-17T11:30:21Z</time>
      </trkpt>
      <trkpt lat="48.47996" lon="2.65557">
        <ele>79.143</ele>
        <time>2013-02-17T11:30:25Z</time>
      </trkpt>
      <trkpt lat="48.48004" lon="2.65582">
        <ele>79.048</ele>
        <time>2013-02-17T11:30:30Z</time>
      </trkpt>
      <trkpt lat="48.48012" lon="2.65608">
        <ele>79.138</ele>
        <time>2013-02-17T11:30:35Z</time>
      </trkpt>
      <trkpt lat="48.48023" lon="2.65641">
        <ele>79.1</ele>
        <time>2013-02-17T11:30:41Z</time>
      </trkpt>
      <trkpt lat="48.48034" lon="2.65676">
        <ele>78.89</ele>
        <time>2013-02-17T11:30:47Z</time>
      </trkpt>
      <trkpt lat="48.48044" lon="2.65703">
        <ele>78.805</ele>
        <time>2013-02-17T11:30:52Z</time>
      </trkpt>
      <trkpt lat="48.48055" lon="2.65737">
        <ele>78.839</ele>
        <time>2013-02-17T11:30:58Z</time>
      </trkpt>
      <trkpt lat="48.48056" lon="2.65742">
        <ele>78.856</ele>
        <time>2013-02-17T11:30:59Z</time>
      </trkpt>
      <trkpt lat="48.48072" lon="2.65788">
        <ele>79.303</ele>
        <time>2013-02-17T11:31:07Z</time>
      </trkpt>
      <trkpt lat="48.48082" lon="2.65816">
        <ele>79.655</ele>
        <time>2013-02-17T11:31:12Z</time>
      </trkpt>
      <trkpt lat="48.48086" lon="2.65827">
        <ele>79.751</ele>
        <time>2013-02-17T11:31:14Z</time>
      </trkpt>
      <trkpt lat="48.48094" lon="2.65849">
        <ele>79.837</ele>
        <time>2013-02-17T11:31:18Z</time>
      </trkpt>
      <trkpt lat="48.48108" lon="2.6589">
        <ele>80.473</ele>
        <time>2013-02-17T11:31:25Z</time>
      </trkpt>
      <trkpt lat="48.48125" lon="2.65939">
        <ele>81.182</ele>
        <time>2013-02-17T11:31:33Z</time>
      </trkpt>
      <trkpt lat="48.48136" lon="2.65984">
        <ele>81.558</ele>
        <time>2013-02-17T11:31:40Z</time>
      </trkpt>
      <trkpt lat="48.48152" lon="2.66032">
        <ele>82.441</ele>
        <time>2013-02-17T11:31:48Z</time>
      </trkpt>
      <trkpt lat="48.48165" lon="2.66074">
        <ele>83.327</ele>
        <time>2013-02-17T11:31:55Z</time>
      </trkpt>
      <trkpt lat="48.48179" lon="2.66117">
        <ele>84.798</ele>
        <time>2013-02-17T11:32:02Z</time>
      </trkpt>
      <trkpt lat="48.48187" lon="2.66141">
        <ele>85.443</ele>
        <time>2013-02-17T11:32:06Z</time>
      </trkpt>
      <trkpt lat="48.48202" lon="2.66191">
        <ele>87.764</ele>
        <time>2013-02-17T11:32:15Z</time>
      </trkpt>
      <trkpt lat="48.48209" lon="2.66213">
        <ele>89.036</ele>
        <time>2013-02-17T11:32:21Z</time>
      </trkpt>
      <trkpt lat="48.48235" lon="2.66217">
        <ele>90.869</ele>
        <time>2013-02-17T11:32:27Z</time>
      </trkpt>
      <trkpt lat="48.4826" lon="2.66221">
        <ele>92.278</ele>
        <time>2013-02-17T11:32:35Z</time>
      </trkpt>
      <trkpt lat="48.48277" lon="2.66223">
        <ele>93.905</ele>
        <time>2013-02-17T11:32:41Z</time>
      </trkpt>
      <trkpt lat="48.48295" lon="2.66225">
        <ele>96.119</ele>
        <time>2013-02-17T11:32:48Z</time>
      </trkpt>
      <trkpt lat="48.48318" lon="2.66226">
        <ele>98.12</ele>
        <time>2013-02-17T11:32:56Z</time>
      </trkpt>
      <trkpt lat="48.48335" lon="2.66227">
        <ele>99.638</ele>
        <time>2013-02-17T11:33:02Z</time>
      </trkpt>
      <trkpt lat="48.4836" lon="2.66228">
        <ele>101.492</ele>
        <time>2013-02-17T11:33:10Z</time>
      </trkpt>
      <trkpt lat="48.48388" lon="2.66231">
        <ele>102.266</ele>
        <time>2013-02-17T11:33:18Z</time>
      </trkpt>
      <trkpt lat="48.48395" lon="2.66233">
        <ele>102.28</ele>
        <time>2013-02-17T11:33:20Z</time>
      </trkpt>
      <trkpt lat="48.48404" lon="2.66214">
        <ele>101.79</ele>
        <time>2013-02-17T11:33:24Z</time>
      </trkpt>
      <trkpt lat="48.4842" lon="2.66141">
        <ele>98.542</ele>
        <time>2013-02-17T11:33:31Z</time>
      </trkpt>
      <trkpt lat="48.48438" lon="2.66069">
        <ele>95.637</ele>
        <time>2013-02-17T11:33:38Z</time>
      </trkpt>
      <trkpt lat="48.48447" lon="2.66033">
        <ele>95.11</ele>
        <time>2013-02-17T11:33:42Z</time>
      </trkpt>
      <trkpt lat="48.48453" lon="2.66007">
        <ele>95.649</ele>
        <time>2013-02-17T11:33:48Z</time>
      </trkpt>
      <trkpt lat="48.48467" lon="2.65924">
        <ele>95.748</ele>
        <time>2013-02-17T11:33:56Z</time>
      </trkpt>
      <trkpt lat="48.48477" lon="2.65856">
        <ele>95.707</ele>
        <time>2013-02-17T11:34:04Z</time>
      </trkpt>
      <trkpt lat="48.48485" lon="2.65784">
        <ele>95.629</ele>
        <time>2013-02-17T11:34:12Z</time>
      </trkpt>
      <trkpt lat="48.48496" lon="2.6571">
        <ele>95.451</ele>
        <time>2013-02-17T11:34:20Z</time>
      </trkpt>
      <trkpt lat="48.48507" lon="2.65632">
        <ele>95.778</ele>
        <time>2013-02-17T11:34:29Z</time>
      </trkpt>
      <trkpt lat="48.48514" lon="2.65579">
        <ele>95.587</ele>
        <time>2013-02-17T11:34:35Z</time>
      </trkpt>
      <trkpt lat="48.48521" lon="2.65528">
        <ele>95.551</ele>
        <time>2013-02-17T11:34:41Z</time>
      </trkpt>
      <trkpt lat="48.48524" lon="2.65503">
        <ele>95.689</ele>
        <time>2013-02-17T11:34:44Z</time>
      </trkpt>
      <trkpt lat="48.48532" lon="2.65442">
        <ele>95.836</ele>
        <time>2013-02-17T11:34:51Z</time>
      </trkpt>
      <trkpt lat="48.48538" lon="2.65399">
        <ele>95.606</ele>
        <time>2013-02-17T11:34:56Z</time>
      </trkpt>
      <trkpt lat="48.48541" lon="2.65382">
        <ele>95.684</ele>
        <time>2013-02-17T11:34:58Z</time>
      </trkpt>
      <trkpt lat="48.48543" lon="2.65351">
        <ele>95.754</ele>
        <time>2013-02-17T11:35:02Z</time>
      </trkpt>
      <trkpt lat="48.48548" lon="2.65339">
        <ele>95.866</ele>
        <time>2013-02-17T11:35:04Z</time>
      </trkpt>
      <trkpt lat="48.48596" lon="2.65356">
        <ele>96.063</ele>
        <time>2013-02-17T11:35:11Z</time>
      </trkpt>
      <trkpt lat="48.48643" lon="2.65363">
        <ele>96.092</ele>
        <time>2013-02-17T11:35:19Z</time>
      </trkpt>
      <trkpt lat="48.48698" lon="2.6537">
        <ele>96.02</ele>
        <time>2013-02-17T11:35:28Z</time>
      </trkpt>
      <trkpt lat="48.48745" lon="2.65376">
        <ele>95.577</ele>
        <time>2013-02-17T11:35:36Z</time>
      </trkpt>
      <trkpt lat="48.48786" lon="2.65381">
        <ele>95.272</ele>
        <time>2013-02-17T11:35:43Z</time>
      </trkpt>
      <trkpt lat="48.48821" lon="2.65386">
        <ele>94.641</ele>
        <time>2013-02-17T11:35:49Z</time>
      </trkpt>
      <trkpt lat="48.48864" lon="2.65392">
        <ele>93.855</ele>
        <time>2013-02-17T11:35:56Z</time>
      </trkpt>
      <trkpt lat="48.48912" lon="2.65399">
        <ele>93.784</ele>
        <time>2013-02-17T11:36:04Z</time>
      </trkpt>
      <trkpt lat="48.48945" lon="2.65403">
        <ele>93.464</ele>
        <time>2013-02-17T11:36:10Z</time>
      </trkpt>
      <trkpt lat="48.48955" lon="2.65404">
        <ele>92.966</ele>
        <time>2013-02-17T11:36:13Z</time>
      </trkpt>
      <trkpt lat="48.48963" lon="2.65405">
        <ele>92.706</ele>
        <time>2013-02-17T11:36:19Z</time>
      </trkpt>
      <trkpt lat="48.48962" lon="2.65416">
        <ele>92.676</ele>
        <time>2013-02-17T11:36:22Z</time>
      </trkpt>
      <trkpt lat="48.48964" lon="2.65408">
        <ele>92.527</ele>
        <time>2013-02-17T11:36:26Z</time>
      </trkpt>
      <trkpt lat="48.48962" lon="2.65416">
        <ele>93.195</ele>
        <time>2013-02-17T11:39:32Z</time>
      </trkpt>
      <trkpt lat="48.48965" lon="2.65419">
        <ele>93.392</ele>
        <time>2013-02-17T11:39:37Z</time>
      </trkpt>
      <trkpt lat="48.48967" lon="2.6542">
        <ele>93.396</ele>
        <time>2013-02-17T11:39:38Z</time>
      </trkpt>
      <trkpt lat="48.48974" lon="2.65425">
        <ele>93.46</ele>
        <time>2013-02-17T11:39:40Z</time>
      </trkpt>
      <trkpt lat="48.48983" lon="2.65428">
        <ele>93.546</ele>
        <time>2013-02-17T11:39:42Z</time>
      </trkpt>
      <trkpt lat="48.49003" lon="2.65451">
        <ele>93.395</ele>
        <time>2013-02-17T11:39:48Z</time>
      </trkpt>
      <trkpt lat="48.4903" lon="2.65476">
        <ele>93.215</ele>
        <time>2013-02-17T11:39:55Z</time>
      </trkpt>
      <trkpt lat="48.49045" lon="2.6549">
        <ele>93.031</ele>
        <time>2013-02-17T11:40:00Z</time>
      </trkpt>
      <trkpt lat="48.49057" lon="2.65501">
        <ele>92.863</ele>
        <time>2013-02-17T11:40:04Z</time>
      </trkpt>
      <trkpt lat="48.49075" lon="2.65518">
        <ele>93.017</ele>
        <time>2013-02-17T11:40:11Z</time>
      </trkpt>
      <trkpt lat="48.49085" lon="2.65527">
        <ele>92.974</ele>
        <time>2013-02-17T11:40:16Z</time>
      </trkpt>
      <trkpt lat="48.49096" lon="2.65537">
        <ele>92.918</ele>
        <time>2013-02-17T11:40:21Z</time>
      </trkpt>
      <trkpt lat="48.49107" lon="2.65547">
        <ele>92.891</ele>
        <time>2013-02-17T11:40:26Z</time>
      </trkpt>
      <trkpt lat="48.49117" lon="2.65556">
        <ele>92.888</ele>
        <time>2013-02-17T11:40:30Z</time>
      </trkpt>
      <trkpt lat="48.49134" lon="2.65572">
        <ele>93.123</ele>
        <time>2013-02-17T11:40:36Z</time>
      </trkpt>
      <trkpt lat="48.49145" lon="2.65583">
        <ele>93.414</ele>
        <time>2013-02-17T11:40:40Z</time>
      </trkpt>
      <trkpt lat="48.49169" lon="2.65605">
        <ele>93.286</ele>
        <time>2013-02-17T11:40:48Z</time>
      </trkpt>
      <trkpt lat="48.49183" lon="2.65618">
        <ele>93.272</ele>
        <time>2013-02-17T11:40:53Z</time>
      </trkpt>
      <trkpt lat="48.49199" lon="2.65632">
        <ele>93.322</ele>
        <time>2013-02-17T11:40:59Z</time>
      </trkpt>
      <trkpt lat="48.49222" lon="2.65654">
        <ele>93.522</ele>
        <time>2013-02-17T11:41:07Z</time>
      </trkpt>
      <trkpt lat="48.49242" lon="2.65672">
        <ele>93.159</ele>
        <time>2013-02-17T11:41:14Z</time>
      </trkpt>
      <trkpt lat="48.49267" lon="2.65696">
        <ele>93.338</ele>
        <time>2013-02-17T11:41:24Z</time>
      </trkpt>
      <trkpt lat="48.49289" lon="2.65715">
        <ele>93.368</ele>
        <time>2013-02-17T11:41:32Z</time>
      </trkpt>
      <trkpt lat="48.4931" lon="2.65735">
        <ele>93.63</ele>
        <time>2013-02-17T11:41:39Z</time>
      </trkpt>
      <trkpt lat="48.4933" lon="2.65753">
        <ele>93.766</ele>
        <time>2013-02-17T11:41:45Z</time>
      </trkpt>
      <trkpt lat="48.49348" lon="2.65771">
        <ele>93.647</ele>
        <time>2013-02-17T11:41:51Z</time>
      </trkpt>
      <trkpt lat="48.49372" lon="2.65792">
        <ele>93.654</ele>
        <time>2013-02-17T11:41:58Z</time>
      </trkpt>
      <trkpt lat="48.4939" lon="2.65809">
        <ele>93.598</ele>
        <time>2013-02-17T11:42:04Z</time>
      </trkpt>
      <trkpt lat="48.49407" lon="2.65825">
        <ele>93.693</ele>
        <time>2013-02-17T11:42:10Z</time>
      </trkpt>
      <trkpt lat="48.49408" lon="2.65826">
        <ele>93.97</ele>
        <time>2013-02-17T11:42:16Z</time>
      </trkpt>
      <trkpt lat="48.49447" lon="2.65823">
        <ele>93.711</ele>
        <time>2013-02-17T11:42:23Z</time>
      </trkpt>
      <trkpt lat="48.49469" lon="2.65821">
        <ele>93.702</ele>
        <time>2013-02-17T11:42:30Z</time>
      </trkpt>
      <trkpt lat="48.49486" lon="2.6582">
        <ele>93.702</ele>
        <time>2013-02-17T11:42:36Z</time>
      </trkpt>
      <trkpt lat="48.49504" lon="2.65818">
        <ele>93.709</ele>
        <time>2013-02-17T11:42:42Z</time>
      </trkpt>
      <trkpt lat="48.49526" lon="2.65816">
        <ele>93.929</ele>
        <time>2013-02-17T11:42:49Z</time>
      </trkpt>
      <trkpt lat="48.49549" lon="2.65814">
        <ele>93.907</ele>
        <time>2013-02-17T11:42:56Z</time>
      </trkpt>
      <trkpt lat="48.4957" lon="2.65813">
        <ele>93.92</ele>
        <time>2013-02-17T11:43:02Z</time>
      </trkpt>
      <trkpt lat="48.49592" lon="2.65811">
        <ele>94.079</ele>
        <time>2013-02-17T11:43:08Z</time>
      </trkpt>
      <trkpt lat="48.49624" lon="2.65808">
        <ele>94.311</ele>
        <time>2013-02-17T11:43:16Z</time>
      </trkpt>
      <trkpt lat="48.49648" lon="2.65806">
        <ele>94.315</ele>
        <time>2013-02-17T11:43:22Z</time>
      </trkpt>
      <trkpt lat="48.49667" lon="2.65804">
        <ele>94.353</ele>
        <time>2013-02-17T11:43:27Z</time>
      </trkpt>
      <trkpt lat="48.49677" lon="2.65804">
        <ele>94.294</ele>
        <time>2013-02-17T11:43:30Z</time>
      </trkpt>
      <trkpt lat="48.49693" lon="2.65802">
        <ele>94.118</ele>
        <time>2013-02-17T11:43:34Z</time>
      </trkpt>
      <trkpt lat="48.49714" lon="2.65801">
        <ele>94.033</ele>
        <time>2013-02-17T11:43:40Z</time>
      </trkpt>
      <trkpt lat="48.49735" lon="2.65799">
        <ele>94.094</ele>
        <time>2013-02-17T11:43:47Z</time>
      </trkpt>
      <trkpt lat="48.49751" lon="2.65797">
        <ele>94.236</ele>
        <time>2013-02-17T11:43:52Z</time>
      </trkpt>
      <trkpt lat="48.49758" lon="2.65797">
        <ele>94.348</ele>
        <time>2013-02-17T11:43:54Z</time>
      </trkpt>
      <trkpt lat="48.4979" lon="2.65794">
        <ele>94.149</ele>
        <time>2013-02-17T11:44:02Z</time>
      </trkpt>
      <trkpt lat="48.49816" lon="2.65792">
        <ele>94.181</ele>
        <time>2013-02-17T11:44:08Z</time>
      </trkpt>
      <trkpt lat="48.49844" lon="2.6579">
        <ele>93.733</ele>
        <time>2013-02-17T11:44:15Z</time>
      </trkpt>
      <trkpt lat="48.49864" lon="2.65788">
        <ele>93.694</ele>
        <time>2013-02-17T11:44:20Z</time>
      </trkpt>
      <trkpt lat="48.49892" lon="2.65786">
        <ele>93.7</ele>
        <time>2013-02-17T11:44:27Z</time>
      </trkpt>
      <trkpt lat="48.49915" lon="2.65784">
        <ele>93.586</ele>
        <time>2013-02-17T11:44:33Z</time>
      </trkpt>
      <trkpt lat="48.49933" lon="2.65783">
        <ele>93.217</ele>
        <time>2013-02-17T11:44:38Z</time>
      </trkpt>
      <trkpt lat="48.49959" lon="2.65781">
        <ele>93.025</ele>
        <time>2013-02-17T11:44:45Z</time>
      </trkpt>
      <trkpt lat="48.49971" lon="2.6578">
        <ele>92.844</ele>
        <time>2013-02-17T11:44:50Z</time>
      </trkpt>
      <trkpt lat="48.4998" lon="2.65779">
        <ele>92.666</ele>
        <time>2013-02-17T11:44:55Z</time>
      </trkpt>
      <trkpt lat="48.49981" lon="2.65779">
        <ele>92.563</ele>
        <time>2013-02-17T11:45:00Z</time>
      </trkpt>
      <trkpt lat="48.49994" lon="2.65749">
        <ele>92.721</ele>
        <time>2013-02-17T11:45:05Z</time>
      </trkpt>
      <trkpt lat="48.50006" lon="2.65717">
        <ele>92.75</ele>
        <time>2013-02-17T11:45:12Z</time>
      </trkpt>
      <trkpt lat="48.50016" lon="2.65691">
        <ele>92.717</ele>
        <time>2013-02-17T11:45:18Z</time>
      </trkpt>
      <trkpt lat="48.50023" lon="2.65672">
        <ele>92.795</ele>
        <time>2013-02-17T11:45:22Z</time>
      </trkpt>
      <trkpt lat="48.50034" lon="2.65643">
        <ele>92.631</ele>
        <time>2013-02-17T11:45:28Z</time>
      </trkpt>
      <trkpt lat="48.50045" lon="2.65615">
        <ele>92.46</ele>
        <time>2013-02-17T11:45:34Z</time>
      </trkpt>
      <trkpt lat="48.50057" lon="2.65583">
        <ele>92.606</ele>
        <time>2013-02-17T11:45:40Z</time>
      </trkpt>
      <trkpt lat="48.50074" lon="2.65538">
        <ele>93.553</ele>
        <time>2013-02-17T11:45:48Z</time>
      </trkpt>
      <trkpt lat="48.50086" lon="2.65512">
        <ele>93.7</ele>
        <time>2013-02-17T11:45:53Z</time>
      </trkpt>
      <trkpt lat="48.50094" lon="2.6549">
        <ele>93.198</ele>
        <time>2013-02-17T11:45:58Z</time>
      </trkpt>
      <trkpt lat="48.50103" lon="2.65461">
        <ele>93.004</ele>
        <time>2013-02-17T11:46:04Z</time>
      </trkpt>
      <trkpt lat="48.50112" lon="2.65434">
        <ele>92.682</ele>
        <time>2013-02-17T11:46:10Z</time>
      </trkpt>
      <trkpt lat="48.50118" lon="2.65419">
        <ele>92.554</ele>
        <time>2013-02-17T11:46:13Z</time>
      </trkpt>
      <trkpt lat="48.50134" lon="2.65374">
        <ele>92.412</ele>
        <time>2013-02-17T11:46:21Z</time>
      </trkpt>
      <trkpt lat="48.50153" lon="2.65319">
        <ele>92.308</ele>
        <time>2013-02-17T11:46:30Z</time>
      </trkpt>
      <trkpt lat="48.50163" lon="2.65291">
        <ele>92.378</ele>
        <time>2013-02-17T11:46:36Z</time>
      </trkpt>
      <trkpt lat="48.50175" lon="2.65259">
        <ele>92.301</ele>
        <time>2013-02-17T11:46:43Z</time>
      </trkpt>
      <trkpt lat="48.50188" lon="2.65221">
        <ele>92.331</ele>
        <time>2013-02-17T11:46:50Z</time>
      </trkpt>
      <trkpt lat="48.50192" lon="2.6521">
        <ele>92.436</ele>
        <time>2013-02-17T11:46:52Z</time>
      </trkpt>
      <trkpt lat="48.50204" lon="2.65178">
        <ele>92.561</ele>
        <time>2013-02-17T11:46:58Z</time>
      </trkpt>
      <trkpt lat="48.50215" lon="2.65148">
        <ele>92.495</ele>
        <time>2013-02-17T11:47:03Z</time>
      </trkpt>
      <trkpt lat="48.50233" lon="2.65099">
        <ele>92.647</ele>
        <time>2013-02-17T11:47:11Z</time>
      </trkpt>
      <trkpt lat="48.50244" lon="2.65068">
        <ele>92.427</ele>
        <time>2013-02-17T11:47:16Z</time>
      </trkpt>
      <trkpt lat="48.50263" lon="2.65016">
        <ele>91.788</ele>
        <time>2013-02-17T11:47:24Z</time>
      </trkpt>
      <trkpt lat="48.5028" lon="2.64971">
        <ele>91.551</ele>
        <time>2013-02-17T11:47:31Z</time>
      </trkpt>
      <trkpt lat="48.50297" lon="2.64946">
        <ele>91.302</ele>
        <time>2013-02-17T11:47:35Z</time>
      </trkpt>
      <trkpt lat="48.50311" lon="2.64903">
        <ele>90.136</ele>
        <time>2013-02-17T11:47:43Z</time>
      </trkpt>
      <trkpt lat="48.50316" lon="2.6489">
        <ele>89.691</ele>
        <time>2013-02-17T11:47:45Z</time>
      </trkpt>
      <trkpt lat="48.50339" lon="2.64832">
        <ele>88.93</ele>
        <time>2013-02-17T11:47:53Z</time>
      </trkpt>
      <trkpt lat="48.50354" lon="2.64793">
        <ele>88.187</ele>
        <time>2013-02-17T11:47:59Z</time>
      </trkpt>
      <trkpt lat="48.50361" lon="2.64775">
        <ele>87.92</ele>
        <time>2013-02-17T11:48:02Z</time>
      </trkpt>
      <trkpt lat="48.50367" lon="2.64749">
        <ele>87.43</ele>
        <time>2013-02-17T11:48:06Z</time>
      </trkpt>
      <trkpt lat="48.50391" lon="2.64683">
        <ele>87.36</ele>
        <time>2013-02-17T11:48:15Z</time>
      </trkpt>
      <trkpt lat="48.50409" lon="2.64632">
        <ele>88.174</ele>
        <time>2013-02-17T11:48:23Z</time>
      </trkpt>
      <trkpt lat="48.50428" lon="2.64582">
        <ele>88.834</ele>
        <time>2013-02-17T11:48:31Z</time>
      </trkpt>
      <trkpt lat="48.50433" lon="2.6457">
        <ele>89.039</ele>
        <time>2013-02-17T11:48:33Z</time>
      </trkpt>
      <trkpt lat="48.50444" lon="2.64539">
        <ele>89.418</ele>
        <time>2013-02-17T11:48:38Z</time>
      </trkpt>
      <trkpt lat="48.50455" lon="2.64506">
        <ele>89.296</ele>
        <time>2013-02-17T11:48:43Z</time>
      </trkpt>
      <trkpt lat="48.50476" lon="2.64451">
        <ele>89.249</ele>
        <time>2013-02-17T11:48:51Z</time>
      </trkpt>
      <trkpt lat="48.50493" lon="2.64406">
        <ele>88.939</ele>
        <time>2013-02-17T11:48:57Z</time>
      </trkpt>
      <trkpt lat="48.5052" lon="2.64333">
        <ele>88.576</ele>
        <time>2013-02-17T11:49:06Z</time>
      </trkpt>
      <trkpt lat="48.5054" lon="2.64276">
        <ele>88.581</ele>
        <time>2013-02-17T11:49:13Z</time>
      </trkpt>
      <trkpt lat="48.50554" lon="2.64236">
        <ele>88.516</ele>
        <time>2013-02-17T11:49:18Z</time>
      </trkpt>
      <trkpt lat="48.50575" lon="2.64179">
        <ele>88.197</ele>
        <time>2013-02-17T11:49:25Z</time>
      </trkpt>
      <trkpt lat="48.50599" lon="2.64114">
        <ele>88.322</ele>
        <time>2013-02-17T11:49:33Z</time>
      </trkpt>
      <trkpt lat="48.50619" lon="2.64057">
        <ele>87.778</ele>
        <time>2013-02-17T11:49:40Z</time>
      </trkpt>
      <trkpt lat="48.50622" lon="2.64049">
        <ele>87.702</ele>
        <time>2013-02-17T11:49:41Z</time>
      </trkpt>
      <trkpt lat="48.5065" lon="2.63993">
        <ele>87.657</ele>
        <time>2013-02-17T11:49:49Z</time>
      </trkpt>
      <trkpt lat="48.50677" lon="2.63941">
        <ele>87.076</ele>
        <time>2013-02-17T11:49:56Z</time>
      </trkpt>
      <trkpt lat="48.50684" lon="2.63926">
        <ele>86.86</ele>
        <time>2013-02-17T11:49:58Z</time>
      </trkpt>
      <trkpt lat="48.50691" lon="2.63911">
        <ele>86.603</ele>
        <time>2013-02-17T11:50:00Z</time>
      </trkpt>
      <trkpt lat="48.50718" lon="2.63864">
        <ele>85.019</ele>
        <time>2013-02-17T11:50:08Z</time>
      </trkpt>
      <trkpt lat="48.50721" lon="2.63859">
        <ele>84.521</ele>
        <time>2013-02-17T11:50:11Z</time>
      </trkpt>
      <trkpt lat="48.50721" lon="2.63859">
        <ele>83.762</ele>
        <time>2013-02-17T11:50:14Z</time>
      </trkpt>
      <trkpt lat="48.50753" lon="2.63812">
        <ele>83.245</ele>
        <time>2013-02-17T11:50:18Z</time>
      </trkpt>
      <trkpt lat="48.50776" lon="2.63783">
        <ele>83.267</ele>
        <time>2013-02-17T11:50:24Z</time>
      </trkpt>
      <trkpt lat="48.50797" lon="2.63745">
        <ele>83.643</ele>
        <time>2013-02-17T11:50:30Z</time>
      </trkpt>
      <trkpt lat="48.50817" lon="2.63715">
        <ele>83.608</ele>
        <time>2013-02-17T11:50:35Z</time>
      </trkpt>
      <trkpt lat="48.50844" lon="2.63675">
        <ele>82.988</ele>
        <time>2013-02-17T11:50:41Z</time>
      </trkpt>
      <trkpt lat="48.50857" lon="2.63654">
        <ele>82.877</ele>
        <time>2013-02-17T11:50:44Z</time>
      </trkpt>
      <trkpt lat="48.5087" lon="2.63629">
        <ele>82.789</ele>
        <time>2013-02-17T11:50:51Z</time>
      </trkpt>
      <trkpt lat="48.50886" lon="2.6359">
        <ele>83.123</ele>
        <time>2013-02-17T11:50:54Z</time>
      </trkpt>
      <trkpt lat="48.50895" lon="2.63566">
        <ele>83.473</ele>
        <time>2013-02-17T11:50:58Z</time>
      </trkpt>
      <trkpt lat="48.50912" lon="2.6352">
        <ele>84.72</ele>
        <time>2013-02-17T11:51:06Z</time>
      </trkpt>
      <trkpt lat="48.50925" lon="2.6349">
        <ele>85.239</ele>
        <time>2013-02-17T11:51:12Z</time>
      </trkpt>
      <trkpt lat="48.50935" lon="2.63433">
        <ele>86.125</ele>
        <time>2013-02-17T11:51:21Z</time>
      </trkpt>
      <trkpt lat="48.5094" lon="2.63379">
        <ele>86.268</ele>
        <time>2013-02-17T11:51:29Z</time>
      </trkpt>
      <trkpt lat="48.50939" lon="2.63332">
        <ele>86.572</ele>
        <time>2013-02-17T11:51:35Z</time>
      </trkpt>
      <trkpt lat="48.50938" lon="2.63268">
        <ele>86.954</ele>
        <time>2013-02-17T11:51:43Z</time>
      </trkpt>
      <trkpt lat="48.50936" lon="2.63193">
        <ele>87.158</ele>
        <time>2013-02-17T11:51:52Z</time>
      </trkpt>
      <trkpt lat="48.50938" lon="2.63139">
        <ele>87.359</ele>
        <time>2013-02-17T11:51:58Z</time>
      </trkpt>
      <trkpt lat="48.50943" lon="2.63113">
        <ele>87.511</ele>
        <time>2013-02-17T11:52:01Z</time>
      </trkpt>
      <trkpt lat="48.50944" lon="2.63069">
        <ele>87.557</ele>
        <time>2013-02-17T11:52:06Z</time>
      </trkpt>
      <trkpt lat="48.50926" lon="2.62987">
        <ele>87.07</ele>
        <time>2013-02-17T11:52:15Z</time>
      </trkpt>
      <trkpt lat="48.50922" lon="2.62915">
        <ele>87.076</ele>
        <time>2013-02-17T11:52:22Z</time>
      </trkpt>
      <trkpt lat="48.50921" lon="2.62884">
        <ele>87.08</ele>
        <time>2013-02-17T11:52:25Z</time>
      </trkpt>
      <trkpt lat="48.50921" lon="2.62857">
        <ele>86.965</ele>
        <time>2013-02-17T11:52:28Z</time>
      </trkpt>
      <trkpt lat="48.50934" lon="2.6285">
        <ele>86.922</ele>
        <time>2013-02-17T11:52:30Z</time>
      </trkpt>
      <trkpt lat="48.50981" lon="2.62867">
        <ele>87.567</ele>
        <time>2013-02-17T11:52:38Z</time>
      </trkpt>
      <trkpt lat="48.5103" lon="2.62887">
        <ele>87.026</ele>
        <time>2013-02-17T11:52:46Z</time>
      </trkpt>
      <trkpt lat="48.51072" lon="2.62901">
        <ele>85.148</ele>
        <time>2013-02-17T11:52:52Z</time>
      </trkpt>
      <trkpt lat="48.5108" lon="2.62905">
        <ele>84.664</ele>
        <time>2013-02-17T11:52:53Z</time>
      </trkpt>
      <trkpt lat="48.511" lon="2.62908">
        <ele>83.322</ele>
        <time>2013-02-17T11:52:56Z</time>
      </trkpt>
      <trkpt lat="48.51116" lon="2.62886">
        <ele>82.031</ele>
        <time>2013-02-17T11:52:59Z</time>
      </trkpt>
      <trkpt lat="48.51122" lon="2.62877">
        <ele>81.332</ele>
        <time>2013-02-17T11:53:01Z</time>
      </trkpt>
      <trkpt lat="48.51197" lon="2.62939">
        <ele>79.239</ele>
        <time>2013-02-17T11:53:11Z</time>
      </trkpt>
      <trkpt lat="48.51246" lon="2.62966">
        <ele>76.872</ele>
        <time>2013-02-17T11:53:18Z</time>
      </trkpt>
      <trkpt lat="48.51295" lon="2.62993">
        <ele>74.099</ele>
        <time>2013-02-17T11:53:25Z</time>
      </trkpt>
      <trkpt lat="48.51308" lon="2.63">
        <ele>72.694</ele>
        <time>2013-02-17T11:53:29Z</time>
      </trkpt>
      <trkpt lat="48.51311" lon="2.63001">
        <ele>72.127</ele>
        <time>2013-02-17T11:53:30Z</time>
      </trkpt>
      <trkpt lat="48.51318" lon="2.63003">
        <ele>71.281</ele>
        <time>2013-02-17T11:53:32Z</time>
      </trkpt>
      <trkpt lat="48.51353" lon="2.63013">
        <ele>70.525</ele>
        <time>2013-02-17T11:53:38Z</time>
      </trkpt>
      <trkpt lat="48.51378" lon="2.63017">
        <ele>69.593</ele>
        <time>2013-02-17T11:53:42Z</time>
      </trkpt>
      <trkpt lat="48.514" lon="2.6302">
        <ele>68.188</ele>
        <time>2013-02-17T11:53:46Z</time>
      </trkpt>
      <trkpt lat="48.51399" lon="2.62995">
        <ele>67.597</ele>
        <time>2013-02-17T11:53:48Z</time>
      </trkpt>
      <trkpt lat="48.51397" lon="2.62916">
        <ele>67.246</ele>
        <time>2013-02-17T11:53:56Z</time>
      </trkpt>
      <trkpt lat="48.51397" lon="2.62897">
        <ele>67.257</ele>
        <time>2013-02-17T11:53:58Z</time>
      </trkpt>
      <trkpt lat="48.51396" lon="2.6287">
        <ele>67.39</ele>
        <time>2013-02-17T11:54:01Z</time>
      </trkpt>
      <trkpt lat="48.51412" lon="2.62866">
        <ele>67.443</ele>
        <time>2013-02-17T11:54:03Z</time>
      </trkpt>
      <trkpt lat="48.51418" lon="2.62868">
        <ele>67.556</ele>
        <time>2013-02-17T11:54:04Z</time>
      </trkpt>
      <trkpt lat="48.51458" lon="2.62879">
        <ele>67.055</ele>
        <time>2013-02-17T11:54:10Z</time>
      </trkpt>
      <trkpt lat="48.51492" lon="2.62889">
        <ele>65.869</ele>
        <time>2013-02-17T11:54:15Z</time>
      </trkpt>
      <trkpt lat="48.5152" lon="2.62897">
        <ele>64.495</ele>
        <time>2013-02-17T11:54:19Z</time>
      </trkpt>
      <trkpt lat="48.51539" lon="2.62902">
        <ele>63.407</ele>
        <time>2013-02-17T11:54:23Z</time>
      </trkpt>
      <trkpt lat="48.51573" lon="2.62921">
        <ele>63.063</ele>
        <time>2013-02-17T11:54:24Z</time>
      </trkpt>
      <trkpt lat="48.51536" lon="2.62938">
        <ele>62.41</ele>
        <time>2013-02-17T11:54:26Z</time>
      </trkpt>
      <trkpt lat="48.51535" lon="2.62968">
        <ele>62.089</ele>
        <time>2013-02-17T11:54:29Z</time>
      </trkpt>
      <trkpt lat="48.51535" lon="2.62994">
        <ele>62.044</ele>
        <time>2013-02-17T11:54:32Z</time>
      </trkpt>
      <trkpt lat="48.51558" lon="2.62987">
        <ele>61.848</ele>
        <time>2013-02-17T11:54:34Z</time>
      </trkpt>
      <trkpt lat="48.51595" lon="2.62982">
        <ele>59.733</ele>
        <time>2013-02-17T11:54:40Z</time>
      </trkpt>
      <trkpt lat="48.51642" lon="2.62966">
        <ele>58.198</ele>
        <time>2013-02-17T11:54:47Z</time>
      </trkpt>
      <trkpt lat="48.51675" lon="2.62948">
        <ele>56.375</ele>
        <time>2013-02-17T11:54:52Z</time>
      </trkpt>
      <trkpt lat="48.5172" lon="2.62908">
        <ele>53.639</ele>
        <time>2013-02-17T11:54:58Z</time>
      </trkpt>
      <trkpt lat="48.51762" lon="2.62865">
        <ele>52.418</ele>
        <time>2013-02-17T11:55:04Z</time>
      </trkpt>
      <trkpt lat="48.51784" lon="2.62845">
        <ele>51.777</ele>
        <time>2013-02-17T11:55:07Z</time>
      </trkpt>
      <trkpt lat="48.51796" lon="2.62835">
        <ele>50.516</ele>
        <time>2013-02-17T11:55:11Z</time>
      </trkpt>
      <trkpt lat="48.51821" lon="2.62864">
        <ele>49.267</ele>
        <time>2013-02-17T11:55:14Z</time>
      </trkpt>
      <trkpt lat="48.51837" lon="2.62879">
        <ele>49.013</ele>
        <time>2013-02-17T11:55:18Z</time>
      </trkpt>
      <trkpt lat="48.51844" lon="2.62885">
        <ele>48.603</ele>
        <time>2013-02-17T11:55:21Z</time>
      </trkpt>
      <trkpt lat="48.51848" lon="2.62891">
        <ele>48.042</ele>
        <time>2013-02-17T11:55:24Z</time>
      </trkpt>
      <trkpt lat="48.51852" lon="2.62895">
        <ele>47.737</ele>
        <time>2013-02-17T11:55:26Z</time>
      </trkpt>
      <trkpt lat="48.51854" lon="2.62946">
        <ele>48.382</ele>
        <time>2013-02-17T11:55:31Z</time>
      </trkpt>
      <trkpt lat="48.51865" lon="2.63025">
        <ele>48.504</ele>
        <time>2013-02-17T11:55:40Z</time>
      </trkpt>
      <trkpt lat="48.51867" lon="2.63033">
        <ele>48.546</ele>
        <time>2013-02-17T11:55:41Z</time>
      </trkpt>
      <trkpt lat="48.51873" lon="2.63076">
        <ele>48.56</ele>
        <time>2013-02-17T11:55:46Z</time>
      </trkpt>
      <trkpt lat="48.51878" lon="2.63127">
        <ele>48.211</ele>
        <time>2013-02-17T11:55:52Z</time>
      </trkpt>
      <trkpt lat="48.51887" lon="2.63178">
        <ele>48.005</ele>
        <time>2013-02-17T11:55:57Z</time>
      </trkpt>
      <trkpt lat="48.51903" lon="2.63204">
        <ele>47.993</ele>
        <time>2013-02-17T11:56:02Z</time>
      </trkpt>
      <trkpt lat="48.51914" lon="2.63242">
        <ele>47.343</ele>
        <time>2013-02-17T11:56:09Z</time>
      </trkpt>
      <trkpt lat="48.51918" lon="2.63261">
        <ele>47.137</ele>
        <time>2013-02-17T11:56:12Z</time>
      </trkpt>
      <trkpt lat="48.51925" lon="2.63293">
        <ele>46.834</ele>
        <time>2013-02-17T11:56:17Z</time>
      </trkpt>
      <trkpt lat="48.51979" lon="2.63366">
        <ele>46.589</ele>
        <time>2013-02-17T11:56:19Z</time>
      </trkpt>
      <trkpt lat="48.51989" lon="2.63363">
        <ele>46.28</ele>
        <time>2013-02-17T11:56:21Z</time>
      </trkpt>
      <trkpt lat="48.52013" lon="2.63372">
        <ele>45.806</ele>
        <time>2013-02-17T11:56:25Z</time>
      </trkpt>
      <trkpt lat="48.52013" lon="2.63372">
        <ele>45.705</ele>
        <time>2013-02-17T11:56:27Z</time>
      </trkpt>
      <trkpt lat="48.52013" lon="2.63372">
        <ele>45.767</ele>
        <time>2013-02-17T11:56:32Z</time>
      </trkpt>
      <trkpt lat="48.52032" lon="2.63355">
        <ele>45.587</ele>
        <time>2013-02-17T11:56:38Z</time>
      </trkpt>
      <trkpt lat="48.52032" lon="2.63355">
        <ele>45.42</ele>
        <time>2013-02-17T11:56:39Z</time>
      </trkpt>
      <trkpt lat="48.52031" lon="2.63356">
        <ele>41.024</ele>
        <time>2013-02-17T12:19:11Z</time>
      </trkpt>
      <trkpt lat="48.52031" lon="2.63356">
        <ele>41.026</ele>
        <time>2013-02-17T12:19:12Z</time>
      </trkpt>
      <trkpt lat="48.52029" lon="2.63357">
        <ele>41.457</ele>
        <time>2013-02-17T12:20:41Z</time>
      </trkpt>
      <trkpt lat="48.52064" lon="2.63205">
        <ele>41.372</ele>
        <time>2013-02-17T12:20:47Z</time>
      </trkpt>
      <trkpt lat="48.52063" lon="2.63203">
        <ele>41.347</ele>
        <time>2013-02-17T12:20:48Z</time>
      </trkpt>
      <trkpt lat="48.51994" lon="2.63376">
        <ele>41.704</ele>
        <time>2013-02-17T12:20:57Z</time>
      </trkpt>
      <trkpt lat="48.51994" lon="2.63376">
        <ele>41.802</ele>
        <time>2013-02-17T12:20:59Z</time>
      </trkpt>
      <trkpt lat="48.51922" lon="2.63279">
        <ele>41.919</ele>
        <time>2013-02-17T12:21:07Z</time>
      </trkpt>
      <trkpt lat="48.51918" lon="2.63258">
        <ele>42.08</ele>
        <time>2013-02-17T12:21:15Z</time>
      </trkpt>
      <trkpt lat="48.51914" lon="2.63242">
        <ele>42.279</ele>
        <time>2013-02-17T12:21:22Z</time>
      </trkpt>
      <trkpt lat="48.5191" lon="2.63224">
        <ele>42.382</ele>
        <time>2013-02-17T12:21:29Z</time>
      </trkpt>
      <trkpt lat="48.51906" lon="2.6321">
        <ele>42.259</ele>
        <time>2013-02-17T12:21:35Z</time>
      </trkpt>
      <trkpt lat="48.51898" lon="2.63194">
        <ele>42.843</ele>
        <time>2013-02-17T12:21:42Z</time>
      </trkpt>
      <trkpt lat="48.51891" lon="2.63183">
        <ele>42.986</ele>
        <time>2013-02-17T12:21:47Z</time>
      </trkpt>
      <trkpt lat="48.5188" lon="2.63169">
        <ele>43.011</ele>
        <time>2013-02-17T12:21:54Z</time>
      </trkpt>
      <trkpt lat="48.51878" lon="2.63168">
        <ele>42.944</ele>
        <time>2013-02-17T12:22:00Z</time>
      </trkpt>
      <trkpt lat="48.51878" lon="2.63119">
        <ele>42.907</ele>
        <time>2013-02-17T12:22:05Z</time>
      </trkpt>
      <trkpt lat="48.51876" lon="2.63098">
        <ele>42.929</ele>
        <time>2013-02-17T12:22:11Z</time>
      </trkpt>
      <trkpt lat="48.51874" lon="2.63078">
        <ele>43.113</ele>
        <time>2013-02-17T12:22:16Z</time>
      </trkpt>
      <trkpt lat="48.51872" lon="2.63067">
        <ele>43.223</ele>
        <time>2013-02-17T12:22:19Z</time>
      </trkpt>
      <trkpt lat="48.51869" lon="2.63052">
        <ele>43.162</ele>
        <time>2013-02-17T12:22:23Z</time>
      </trkpt>
      <trkpt lat="48.51868" lon="2.63043">
        <ele>43.133</ele>
        <time>2013-02-17T12:22:26Z</time>
      </trkpt>
      <trkpt lat="48.51864" lon="2.63014">
        <ele>43.278</ele>
        <time>2013-02-17T12:22:34Z</time>
      </trkpt>
      <trkpt lat="48.5186" lon="2.62984">
        <ele>43.368</ele>
        <time>2013-02-17T12:22:41Z</time>
      </trkpt>
      <trkpt lat="48.51856" lon="2.62957">
        <ele>43.398</ele>
        <time>2013-02-17T12:22:47Z</time>
      </trkpt>
      <trkpt lat="48.5185" lon="2.62922">
        <ele>43.396</ele>
        <time>2013-02-17T12:22:56Z</time>
      </trkpt>
      <trkpt lat="48.51849" lon="2.62902">
        <ele>43.521</ele>
        <time>2013-02-17T12:23:02Z</time>
      </trkpt>
      <trkpt lat="48.51848" lon="2.62894">
        <ele>43.537</ele>
        <time>2013-02-17T12:23:04Z</time>
      </trkpt>
      <trkpt lat="48.51838" lon="2.6288">
        <ele>43.614</ele>
        <time>2013-02-17T12:23:09Z</time>
      </trkpt>
      <trkpt lat="48.51831" lon="2.62874">
        <ele>43.847</ele>
        <time>2013-02-17T12:23:13Z</time>
      </trkpt>
      <trkpt lat="48.51815" lon="2.62859">
        <ele>44.059</ele>
        <time>2013-02-17T12:23:20Z</time>
      </trkpt>
      <trkpt lat="48.51797" lon="2.62845">
        <ele>44.267</ele>
        <time>2013-02-17T12:23:27Z</time>
      </trkpt>
      <trkpt lat="48.5179" lon="2.62839">
        <ele>44.812</ele>
        <time>2013-02-17T12:23:36Z</time>
      </trkpt>
      <trkpt lat="48.51761" lon="2.62816">
        <ele>45.309</ele>
        <time>2013-02-17T12:23:40Z</time>
      </trkpt>
      <trkpt lat="48.51736" lon="2.62796">
        <ele>46.079</ele>
        <time>2013-02-17T12:23:48Z</time>
      </trkpt>
      <trkpt lat="48.51727" lon="2.62787">
        <ele>46.248</ele>
        <time>2013-02-17T12:23:51Z</time>
      </trkpt>
      <trkpt lat="48.51703" lon="2.62761">
        <ele>46.884</ele>
        <time>2013-02-17T12:23:59Z</time>
      </trkpt>
      <trkpt lat="48.51685" lon="2.62738">
        <ele>47.429</ele>
        <time>2013-02-17T12:24:05Z</time>
      </trkpt>
      <trkpt lat="48.51656" lon="2.62695">
        <ele>47.895</ele>
        <time>2013-02-17T12:24:15Z</time>
      </trkpt>
      <trkpt lat="48.51632" lon="2.62656">
        <ele>48.798</ele>
        <time>2013-02-17T12:24:24Z</time>
      </trkpt>
      <trkpt lat="48.51621" lon="2.62642">
        <ele>49.302</ele>
        <time>2013-02-17T12:24:30Z</time>
      </trkpt>
      <trkpt lat="48.51604" lon="2.62602">
        <ele>50.011</ele>
        <time>2013-02-17T12:24:38Z</time>
      </trkpt>
      <trkpt lat="48.51596" lon="2.62585">
        <ele>50.292</ele>
        <time>2013-02-17T12:24:42Z</time>
      </trkpt>
      <trkpt lat="48.51591" lon="2.62575">
        <ele>50.517</ele>
        <time>2013-02-17T12:24:46Z</time>
      </trkpt>
      <trkpt lat="48.5159" lon="2.62569">
        <ele>50.614</ele>
        <time>2013-02-17T12:24:48Z</time>
      </trkpt>
      <trkpt lat="48.51589" lon="2.62564">
        <ele>50.605</ele>
        <time>2013-02-17T12:24:51Z</time>
      </trkpt>
      <trkpt lat="48.51592" lon="2.62536">
        <ele>50.339</ele>
        <time>2013-02-17T12:25:30Z</time>
      </trkpt>
      <trkpt lat="48.51599" lon="2.62534">
        <ele>50.178</ele>
        <time>2013-02-17T12:25:34Z</time>
      </trkpt>
      <trkpt lat="48.51603" lon="2.62532">
        <ele>50.022</ele>
        <time>2013-02-17T12:25:36Z</time>
      </trkpt>
      <trkpt lat="48.51601" lon="2.62571">
        <ele>49.767</ele>
        <time>2013-02-17T12:25:41Z</time>
      </trkpt>
      <trkpt lat="48.51601" lon="2.62571">
        <ele>49.66</ele>
        <time>2013-02-17T12:25:42Z</time>
      </trkpt>
      <trkpt lat="48.51635" lon="2.62521">
        <ele>48.703</ele>
        <time>2013-02-17T12:25:47Z</time>
      </trkpt>
      <trkpt lat="48.5167" lon="2.62508">
        <ele>46.605</ele>
        <time>2013-02-17T12:25:52Z</time>
      </trkpt>
      <trkpt lat="48.51729" lon="2.62482">
        <ele>42.931</ele>
        <time>2013-02-17T12:25:59Z</time>
      </trkpt>
      <trkpt lat="48.51768" lon="2.62462">
        <ele>40.29</ele>
        <time>2013-02-17T12:26:04Z</time>
      </trkpt>
      <trkpt lat="48.51778" lon="2.62455">
        <ele>39.552</ele>
        <time>2013-02-17T12:26:06Z</time>
      </trkpt>
      <trkpt lat="48.51796" lon="2.62479">
        <ele>38.575</ele>
        <time>2013-02-17T12:26:11Z</time>
      </trkpt>
      <trkpt lat="48.51791" lon="2.62443">
        <ele>38.986</ele>
        <time>2013-02-17T12:26:17Z</time>
      </trkpt>
      <trkpt lat="48.51795" lon="2.6244">
        <ele>39.051</ele>
        <time>2013-02-17T12:26:20Z</time>
      </trkpt>
      <trkpt lat="48.51825" lon="2.62502">
        <ele>38.932</ele>
        <time>2013-02-17T12:26:25Z</time>
      </trkpt>
      <trkpt lat="48.51798" lon="2.62436">
        <ele>38.794</ele>
        <time>2013-02-17T12:26:30Z</time>
      </trkpt>
    </trkseg>
  </trk>
</gpx>